[[{"header":{"parameterUnit":"m.s-1","parameterCategory":1,"la1":30.6,"la2":29.2853,"lo1":-89.7004,"lo2":-87.6739,"dy":0.0162,"dx":0.0183,"nx":112,"ny":82,"refTime":"2026-03-30T12:00:00:Z","depth":0,"parameterNumber":2,"parameterNumberName":"U-component_of_WINDS"},"data":[0.0,0.0,0.0,0.0,0.0,0.0,0.0,0.0,0.0,0.0,0.0,0.0,0.0,0.0,0.0,0.0,0.0,0.0,0.0,0.0,0.0,0.0,0.0,0.0,0.0,0.0,0.0,0.0,0.0,0.0,0.0,0.0,0.0,0.0,0.0,0.0,0.0,0.0,0.0,0.0,0.0,0.0,0.0,0.0,0.0,0.0,0.0,0.0,0.0,0.0,0.0,0.0,0.0,0.0,0.0,0.0,0.0,0.0,0.0,0.0,0.0,0.0,0.0,0.0,0.0,0.0,0.0,0.0,0.0,0.0,0.0,0.0,0.0,0.0,0.0,0.0,0.0,0.0,0.0,0.0,0.0,0.0,0.0,0.0,0.0,0.0,0.0,0.0,0.0,0.0,0.0,-2.3816,-2.5527,-2.5841,-2.4108,-2.229,-2.0412,-1.8515,0.0,0.0,0.0,0.0,0.0,0.0,0.0,0.0,0.0,0.0,0.0,0.0,0.0,0.0,0.0,0.0,0.0,0.0,0.0,0.0,0.0,0.0,0.0,0.0,0.0,0.0,0.0,0.0,0.0,0.0,0.0,0.0,0.0,0.0,0.0,0.0,0.0,0.0,0.0,0.0,0.0,0.0,0.0,0.0,0.0,0.0,0.0,0.0,0.0,0.0,0.0,0.0,0.0,0.0,0.0,0.0,0.0,0.0,0.0,0.0,0.0,0.0,0.0,0.0,0.0,0.0,0.0,0.0,0.0,0.0,0.0,0.0,0.0,0.0,0.0,0.0,0.0,0.0,0.0,0.0,0.0,0.0,0.0,0.0,0.0,0.0,0.0,0.0,0.0,0.0,0.0,0.0,0.0,0.0,0.0,0.0,0.0,0.0,0.0,0.0,0.0,0.0,0.0,0.0,-2.1829,-2.507,-2.6328,-2.6161,-2.4376,-2.2494,-2.1009,-2.0157,0.0,0.0,0.0,0.0,0.0,0.0,0.0,0.0,0.0,0.0,0.0,0.0,0.0,0.0,0.0,0.0,0.0,0.0,0.0,0.0,0.0,0.0,0.0,0.0,0.0,0.0,0.0,0.0,0.0,0.0,0.0,0.0,0.0,0.0,0.0,0.0,0.0,0.0,0.0,0.0,0.0,0.0,0.0,0.0,0.0,0.0,0.0,0.0,0.0,0.0,0.0,0.0,0.0,0.0,0.0,0.0,0.0,0.0,0.0,0.0,0.0,0.0,0.0,0.0,0.0,0.0,0.0,0.0,0.0,0.0,0.0,0.0,0.0,0.0,0.0,0.0,0.0,0.0,0.0,0.0,0.0,0.0,0.0,0.0,0.0,0.0,0.0,0.0,0.0,0.0,0.0,0.0,0.0,0.0,0.0,0.0,0.0,0.0,0.0,0.0,0.0,0.0,0.0,-2.2031,-2.3711,-2.6484,-2.7129,-2.693,-2.5856,-2.3913,-2.2191,-2.092,-1.8539,0.0,0.0,0.0,0.0,0.0,0.0,0.0,0.0,0.0,0.0,0.0,0.0,0.0,0.0,0.0,0.0,0.0,0.0,0.0,0.0,0.0,0.0,0.0,0.0,0.0,0.0,0.0,0.0,0.0,0.0,0.0,0.0,0.0,0.0,0.0,0.0,0.0,0.0,0.0,0.0,0.0,0.0,0.0,0.0,0.0,0.0,0.0,0.0,0.0,0.0,0.0,0.0,0.0,0.0,0.0,0.0,0.0,0.0,0.0,0.0,0.0,0.0,0.0,0.0,0.0,0.0,0.0,0.0,0.0,0.0,0.0,0.0,0.0,0.0,0.0,0.0,0.0,0.0,0.0,0.0,0.0,0.0,0.0,0.0,0.0,0.0,0.0,0.0,0.0,0.0,0.0,0.0,0.0,0.0,0.0,0.0,0.0,0.0,0.0,0.0,0.0,0.0,-2.4297,-2.5586,-2.7513,-2.7754,-2.7598,-2.707,-2.4983,-2.3114,-2.1634,-1.9199,0.0,0.0,0.0,0.0,0.0,0.0,0.0,0.0,0.0,0.0,0.0,0.0,0.0,0.0,0.0,0.0,0.0,0.0,0.0,0.0,0.0,0.0,0.0,0.0,0.0,0.0,0.0,0.0,0.0,0.0,0.0,0.0,0.0,0.0,0.0,0.0,0.0,0.0,0.0,0.0,0.0,0.0,0.0,0.0,0.0,0.0,0.0,0.0,0.0,0.0,0.0,0.0,0.0,0.0,0.0,0.0,0.0,0.0,0.0,0.0,0.0,0.0,0.0,0.0,0.0,0.0,0.0,0.0,0.0,0.0,0.0,0.0,0.0,0.0,0.0,0.0,0.0,0.0,0.0,0.0,0.0,0.0,0.0,0.0,0.0,0.0,0.0,0.0,0.0,0.0,0.0,0.0,0.0,0.0,0.0,0.0,0.0,0.0,0.0,0.0,0.0,0.0,-2.4746,-2.6621,-2.7611,-2.8008,-2.791,-2.709,-2.474,-2.3232,-2.3008,-1.915,0.0,0.0,0.0,0.0,0.0,0.0,0.0,0.0,0.0,0.0,0.0,0.0,0.0,0.0,0.0,0.0,0.0,0.0,0.0,0.0,0.0,0.0,0.0,0.0,0.0,0.0,0.0,0.0,0.0,0.0,0.0,0.0,0.0,0.0,0.0,0.0,0.0,0.0,0.0,0.0,0.0,0.0,0.0,0.0,0.0,0.0,0.0,0.0,0.0,0.0,0.0,0.0,0.0,0.0,0.0,0.0,0.0,0.0,0.0,0.0,0.0,0.0,0.0,0.0,0.0,0.0,0.0,0.0,0.0,0.0,0.0,0.0,0.0,0.0,0.0,0.0,0.0,0.0,0.0,0.0,0.0,0.0,0.0,0.0,0.0,0.0,0.0,0.0,0.0,0.0,0.0,0.0,0.0,0.0,0.0,0.0,0.0,0.0,0.0,0.0,0.0,0.0,-2.4883,-2.6523,0.0,-2.8203,-2.8066,-2.748,-2.5563,-2.398,-2.313,0.0,0.0,0.0,0.0,0.0,0.0,0.0,0.0,0.0,0.0,0.0,0.0,0.0,0.0,0.0,0.0,0.0,0.0,0.0,0.0,0.0,0.0,0.0,0.0,0.0,0.0,0.0,0.0,0.0,0.0,0.0,0.0,0.0,0.0,0.0,0.0,0.0,0.0,0.0,0.0,0.0,0.0,0.0,0.0,0.0,0.0,0.0,0.0,0.0,0.0,0.0,0.0,0.0,0.0,0.0,0.0,0.0,0.0,0.0,0.0,0.0,0.0,0.0,0.0,0.0,0.0,0.0,0.0,0.0,0.0,0.0,0.0,0.0,0.0,0.0,0.0,0.0,0.0,0.0,0.0,0.0,0.0,0.0,0.0,0.0,0.0,0.0,0.0,0.0,0.0,0.0,0.0,0.0,0.0,0.0,0.0,0.0,0.0,0.0,0.0,0.0,0.0,-2.3633,-2.5488,-2.7051,0.0,-2.8496,-2.8262,-2.7767,-2.5773,-2.4036,-2.2751,0.0,0.0,0.0,0.0,0.0,0.0,0.0,0.0,0.0,0.0,0.0,0.0,0.0,0.0,0.0,0.0,0.0,0.0,0.0,0.0,0.0,0.0,0.0,0.0,0.0,0.0,0.0,0.0,0.0,0.0,0.0,0.0,0.0,0.0,0.0,0.0,0.0,0.0,0.0,0.0,0.0,0.0,0.0,0.0,0.0,0.0,0.0,0.0,0.0,0.0,0.0,0.0,0.0,0.0,0.0,0.0,0.0,0.0,0.0,0.0,0.0,0.0,0.0,0.0,0.0,0.0,0.0,0.0,0.0,0.0,0.0,0.0,0.0,0.0,0.0,0.0,0.0,0.0,0.0,0.0,0.0,0.0,0.0,0.0,0.0,0.0,0.0,0.0,0.0,0.0,0.0,0.0,0.0,0.0,0.0,0.0,0.0,0.0,0.0,0.0,0.0,0.0,-2.4141,-2.6699,-2.8457,-2.8887,-2.8926,-2.8574,-2.7806,-2.5288,-2.313,0.0,0.0,0.0,0.0,0.0,0.0,0.0,0.0,0.0,0.0,0.0,0.0,0.0,0.0,0.0,0.0,0.0,0.0,0.0,0.0,0.0,0.0,0.0,0.0,0.0,0.0,0.0,0.0,0.0,0.0,0.0,0.0,0.0,0.0,0.0,0.0,0.0,0.0,0.0,0.0,0.0,0.0,0.0,0.0,0.0,0.0,0.0,0.0,0.0,0.0,0.0,0.0,0.0,0.0,0.0,0.0,0.0,0.0,0.0,0.0,0.0,0.0,0.0,0.0,0.0,0.0,0.0,0.0,0.0,0.0,0.0,0.0,0.0,0.0,0.0,0.0,0.0,0.0,0.0,0.0,0.0,0.0,0.0,0.0,0.0,0.0,0.0,0.0,0.0,0.0,0.0,0.0,0.0,0.0,0.0,0.0,0.0,0.0,0.0,0.0,0.0,0.0,0.0,-2.4609,-2.7129,-2.8906,-2.9336,-2.9101,-2.8809,-2.8574,-2.6128,-2.3759,-2.1823,0.0,0.0,0.0,0.0,0.0,0.0,0.0,0.0,0.0,0.0,0.0,0.0,0.0,0.0,0.0,0.0,0.0,0.0,0.0,0.0,0.0,0.0,0.0,0.0,0.0,0.0,0.0,0.0,0.0,0.0,0.0,0.0,0.0,0.0,0.0,0.0,0.0,0.0,0.0,0.0,0.0,0.0,0.0,0.0,0.0,0.0,0.0,0.0,0.0,0.0,0.0,0.0,0.0,0.0,0.0,0.0,0.0,0.0,0.0,0.0,0.0,0.0,0.0,0.0,0.0,0.0,0.0,0.0,0.0,0.0,0.0,0.0,0.0,0.0,0.0,0.0,0.0,0.0,0.0,0.0,0.0,0.0,0.0,0.0,0.0,0.0,0.0,0.0,0.0,0.0,0.0,0.0,0.0,0.0,0.0,0.0,0.0,0.0,0.0,0.0,0.0,0.0,-2.5039,-2.7578,-2.9336,-2.9766,-2.959,-2.9297,-2.8945,-2.6667,-2.4299,-2.2143,0.0,0.0,0.0,0.0,0.0,0.0,0.0,0.0,0.0,0.0,0.0,0.0,0.0,0.0,0.0,0.0,0.0,0.0,0.0,0.0,0.0,0.0,0.0,0.0,0.0,0.0,0.0,0.0,0.0,0.0,0.0,0.0,0.0,0.0,0.0,0.0,0.0,0.0,0.0,0.0,0.0,0.0,0.0,0.0,0.0,0.0,0.0,0.0,0.0,0.0,0.0,0.0,0.0,0.0,0.0,0.0,0.0,0.0,0.0,0.0,0.0,0.0,0.0,0.0,0.0,0.0,0.0,0.0,0.0,0.0,0.0,0.0,0.0,0.0,0.0,0.0,0.0,0.0,0.0,0.0,0.0,0.0,0.0,0.0,0.0,0.0,0.0,0.0,0.0,0.0,0.0,0.0,0.0,0.0,0.0,0.0,0.0,0.0,0.0,0.0,0.0,0.0,-2.5479,-2.8066,-2.9805,-3.0273,-3.0293,-2.9922,-2.9101,-2.7093,-2.4889,-2.2704,0.0,0.0,0.0,0.0,0.0,0.0,0.0,0.0,0.0,0.0,0.0,0.0,0.0,0.0,0.0,0.0,0.0,0.0,0.0,0.0,0.0,0.0,0.0,0.0,0.0,0.0,0.0,0.0,0.0,0.0,0.0,0.0,0.0,0.0,0.0,0.0,0.0,0.0,0.0,0.0,0.0,0.0,0.0,0.0,0.0,0.0,0.0,0.0,0.0,0.0,0.0,0.0,0.0,0.0,0.0,0.0,0.0,0.0,0.0,0.0,-2.0286,0.0,0.0,0.0,0.0,0.0,0.0,0.0,0.0,0.0,0.0,0.0,0.0,0.0,0.0,0.0,0.0,0.0,0.0,0.0,0.0,0.0,0.0,0.0,0.0,0.0,0.0,0.0,0.0,0.0,0.0,0.0,0.0,0.0,0.0,0.0,0.0,0.0,0.0,0.0,0.0,0.0,-2.6367,-2.8691,-3.0371,-3.1152,-3.0937,-3.0527,-2.9961,-2.8555,-2.6631,-2.4066,-2.2333,0.0,0.0,0.0,0.0,0.0,0.0,0.0,0.0,0.0,0.0,0.0,0.0,0.0,0.0,0.0,0.0,0.0,0.0,0.0,0.0,0.0,0.0,0.0,0.0,0.0,0.0,0.0,0.0,0.0,0.0,0.0,0.0,0.0,0.0,0.0,0.0,0.0,0.0,0.0,0.0,0.0,0.0,0.0,0.0,0.0,0.0,0.0,0.0,0.0,0.0,0.0,0.0,0.0,0.0,0.0,0.0,0.0,0.0,0.0,0.0,-2.1577,0.0,0.0,0.0,0.0,0.0,0.0,0.0,0.0,0.0,0.0,0.0,0.0,0.0,0.0,0.0,0.0,0.0,0.0,0.0,0.0,0.0,0.0,0.0,0.0,0.0,0.0,0.0,0.0,0.0,0.0,0.0,0.0,0.0,0.0,0.0,0.0,0.0,0.0,0.0,0.0,-2.666,-2.9082,-3.0859,-3.1738,-3.1445,-3.1016,-3.0566,-2.9531,-2.7951,-2.5724,-2.3888,0.0,0.0,0.0,0.0,0.0,0.0,0.0,0.0,0.0,0.0,0.0,0.0,0.0,0.0,0.0,0.0,0.0,0.0,0.0,0.0,0.0,0.0,0.0,0.0,0.0,0.0,0.0,0.0,0.0,0.0,0.0,0.0,0.0,0.0,0.0,0.0,0.0,0.0,0.0,0.0,0.0,0.0,0.0,0.0,0.0,0.0,0.0,0.0,0.0,0.0,0.0,0.0,0.0,-2.7598,-2.8242,-2.9082,-2.9004,-2.9004,-2.891,-2.5862,-2.4616,-2.4634,-2.3584,0.0,0.0,0.0,0.0,0.0,0.0,0.0,0.0,0.0,0.0,0.0,0.0,0.0,0.0,0.0,0.0,0.0,0.0,0.0,0.0,0.0,0.0,0.0,0.0,-2.6914,-2.6992,0.0,0.0,0.0,0.0,0.0,0.0,0.0,0.0,0.0,0.0,0.0,0.0,-2.7012,-2.9492,-3.1328,-3.2187,-3.1953,-3.1562,-3.1152,-3.0312,-2.916,-2.7656,-2.5222,-2.3643,0.0,0.0,0.0,0.0,0.0,0.0,0.0,0.0,0.0,0.0,0.0,0.0,0.0,0.0,0.0,0.0,0.0,0.0,0.0,0.0,0.0,0.0,0.0,0.0,0.0,0.0,0.0,0.0,0.0,0.0,0.0,0.0,-2.0155,-2.0331,0.0,0.0,0.0,0.0,0.0,0.0,0.0,0.0,0.0,0.0,0.0,0.0,0.0,-2.6465,-2.7676,-2.8496,-2.9355,-3.0293,-3.0723,-3.1367,-3.2187,-3.1816,-3.1855,-3.2187,-3.1715,0.0,-2.7227,-2.7053,0.0,0.0,0.0,0.0,0.0,0.0,0.0,0.0,0.0,0.0,0.0,0.0,0.0,0.0,0.0,0.0,0.0,0.0,0.0,0.0,0.0,0.0,-2.9551,-3.0019,-3.0254,-3.0156,0.0,-2.6582,-2.3711,-2.1894,-2.1582,0.0,0.0,0.0,0.0,0.0,0.0,0.0,-2.834,-3.0293,-3.1758,-3.2617,-3.2656,-3.2461,-3.2031,-3.1211,-3.0449,-2.9824,-2.7727,-2.6326,-2.5898,-2.2584,0.0,0.0,0.0,0.0,0.0,0.0,0.0,0.0,0.0,0.0,0.0,0.0,0.0,0.0,0.0,0.0,0.0,0.0,0.0,0.0,0.0,0.0,0.0,0.0,0.0,0.0,0.0,0.0,0.0,-1.998,-2.1349,-2.1349,-2.1699,-2.158,0.0,0.0,0.0,0.0,0.0,0.0,0.0,0.0,0.0,-2.8184,-2.8437,-2.916,-3.0449,-3.1074,-3.1699,-3.2324,-3.2988,-3.3633,-3.4258,-3.4316,-3.4434,-3.4609,-3.4609,-3.3476,-3.1504,-3.0078,-2.8848,-2.7812,0.0,0.0,0.0,0.0,-2.707,-2.7383,-2.8359,-2.8535,-2.8281,-2.7988,0.0,0.0,0.0,0.0,0.0,0.0,0.0,0.0,0.0,0.0,-3.0762,-3.1445,-3.1973,-3.2129,-3.1445,-2.998,-2.7988,0.0,-2.457,-2.3769,-2.1738,0.0,0.0,0.0,0.0,-2.7012,-2.9336,-3.1152,-3.2461,-3.3086,-3.293,-3.2715,-3.2539,-3.1953,-3.1309,-3.0625,-2.9453,-2.8398,-2.75,-2.5324,-2.3794,0.0,0.0,0.0,0.0,0.0,0.0,0.0,0.0,0.0,0.0,0.0,0.0,0.0,0.0,0.0,0.0,0.0,0.0,0.0,0.0,0.0,0.0,0.0,0.0,0.0,0.0,0.0,0.0,-2.1641,-2.2754,-2.2402,-2.3144,-2.3203,0.0,0.0,0.0,0.0,0.0,0.0,-2.7305,-2.7871,-2.9043,-3.0957,-3.1133,-3.1777,-3.2988,-3.3418,-3.3828,-3.4258,-3.4902,-3.5449,-3.5898,-3.6211,-3.6348,-3.6348,-3.6348,-3.5976,-3.5176,-3.2715,-3.1191,-3.0312,-2.957,-2.9101,-2.8887,-2.9512,-2.9883,-3.0254,-3.1562,-3.1797,-3.1465,-3.1035,-3.0078,-2.8789,-2.707,0.0,0.0,0.0,0.0,-2.8535,-3.0137,-3.1133,-3.1894,-3.2637,-3.3301,-3.3574,-3.2949,-3.2637,-3.1562,0.0,-2.7578,-2.6641,-2.4375,0.0,0.0,0.0,0.0,-2.8359,-3.0293,-3.1855,-3.2949,-3.3379,-3.3144,-3.2949,-3.2949,-3.2578,-3.2051,-3.1426,-3.0742,-2.9941,-2.9004,-2.7715,-2.6426,-2.5117,0.0,0.0,0.0,0.0,0.0,0.0,0.0,0.0,0.0,0.0,0.0,0.0,0.0,0.0,0.0,0.0,0.0,0.0,0.0,0.0,0.0,0.0,0.0,0.0,0.0,0.0,0.0,0.0,0.0,-2.3848,-2.5527,0.0,0.0,0.0,0.0,-2.6133,-2.7402,-2.8672,-2.9941,-3.082,-3.1894,-3.3223,-3.3672,-3.4316,-3.5215,-3.5644,-3.6074,-3.6504,-3.6543,-3.6797,-3.7207,-3.7226,-3.7226,-3.7226,-3.7226,-3.7207,-3.6992,-3.4805,-3.3398,-3.2598,-3.2148,-3.1953,-3.2013,-3.2053,-3.25,-3.3203,-3.3301,-3.332,-3.3418,-3.4199,-3.3047,-3.1269,-3.0762,-2.9726,0.0,0.0,-3.0644,-3.1582,-3.2891,-3.3574,-3.4023,-3.4473,-3.4609,-3.4629,-3.457,-3.3926,-3.2695,0.0,-3.0019,-2.957,-2.8242,0.0,-2.8008,-2.8066,-2.8848,-2.9922,-3.1269,-3.2246,-3.2949,-3.3379,-3.3398,-3.3379,-3.3379,-3.3008,-3.2734,-3.2695,-3.1543,-3.082,-3.0762,-2.9492,-2.8184,-2.6914,-2.4741,0.0,0.0,0.0,0.0,0.0,0.0,0.0,0.0,0.0,0.0,0.0,0.0,0.0,0.0,0.0,0.0,0.0,0.0,0.0,0.0,0.0,0.0,0.0,0.0,0.0,0.0,0.0,0.0,-2.5879,-2.7519,0.0,-2.6816,-2.7715,-2.8496,-2.8809,-3.0293,-3.1621,-3.2637,-3.3242,-3.416,-3.5469,-3.5664,-3.6035,-3.6621,-3.6758,-3.6914,-3.707,-3.7344,-3.7559,-3.7715,-3.7988,-3.8125,-3.8125,-3.8125,-3.7969,-3.7637,-3.6875,-3.5879,-3.4863,-3.4707,-3.4473,-3.4277,-3.4551,-3.5019,-3.5508,-3.5508,-3.5508,-3.543,-3.4883,-3.3633,-3.2363,-3.248,-3.1992,-3.1601,-3.2441,-3.291,-3.332,-3.4062,-3.459,-3.4961,-3.5117,-3.5351,-3.5469,-3.5195,-3.4902,-3.4375,-3.3301,-3.1992,-3.0723,-2.9687,-2.9512,-2.9512,-2.9512,-3.0254,-3.1191,-3.2207,-3.2832,-3.3262,-3.3398,-3.3418,-3.3418,-3.3418,-3.3281,-3.2969,-3.2422,-3.1973,-3.1328,-3.0488,-2.9726,-2.8867,-2.7851,-2.6261,-2.4407,0.0,0.0,0.0,0.0,0.0,0.0,0.0,0.0,0.0,0.0,0.0,0.0,0.0,0.0,0.0,0.0,0.0,0.0,0.0,0.0,0.0,0.0,0.0,0.0,0.0,0.0,-2.7559,-2.7851,-2.9531,-3.0273,-2.9258,-3.0332,-3.1191,-3.1484,-3.2851,-3.4043,-3.4902,-3.5351,-3.5976,-3.6855,-3.7012,-3.7226,-3.75,-3.7656,-3.7734,-3.7734,-3.8008,-3.8144,-3.8164,-3.8437,-3.8574,-3.8574,-3.8574,-3.8418,-3.8144,-3.8144,-3.7656,-3.6855,-3.6562,-3.6289,-3.6074,-3.6348,-3.6719,-3.709,-3.709,-3.709,-3.6934,-3.5898,-3.4902,-3.4121,-3.4258,-3.4101,-3.3965,-3.4394,-3.4629,-3.4785,-3.5078,-3.5371,-3.5605,-3.5605,-3.582,-3.5937,-3.5664,-3.5488,-3.5293,-3.5,-3.3672,-3.2305,-3.1426,-3.1289,-3.1191,-3.0898,-3.1484,-3.2148,-3.2715,-3.3164,-3.3418,-3.3418,-3.3418,-3.3418,-3.3418,-3.3301,-3.2969,-3.2422,-3.1973,-3.1269,-3.0234,-2.9648,-2.8945,-2.8105,-2.668,-2.5145,-2.3423,0.0,0.0,0.0,0.0,0.0,0.0,0.0,0.0,0.0,0.0,0.0,0.0,0.0,0.0,0.0,0.0,0.0,0.0,0.0,0.0,0.0,0.0,0.0,-2.6348,-2.8281,-2.9648,-2.9687,-3.1562,-3.2363,-3.1133,-3.2148,-3.3242,-3.4082,-3.4961,-3.582,-3.666,-3.709,-3.7324,-3.7344,-3.7734,-3.7949,-3.7949,-3.8359,-3.8574,-3.8574,-3.8574,-3.8574,-3.8574,-3.8574,-3.8574,-3.8574,-3.8574,-3.8574,-3.8574,-3.8574,-3.8574,-3.8496,-3.7656,-3.7344,-3.7344,-3.7344,-3.7598,-3.7949,-3.7949,-3.793,-3.7851,-3.7461,-3.7031,-3.6601,-3.6191,-3.6055,-3.5976,-3.5566,-3.5742,-3.6055,-3.6055,-3.6055,-3.6055,-3.6035,-3.6035,-3.6035,-3.6016,-3.5703,-3.541,-3.541,-3.5039,-3.4473,-3.3613,-3.3457,-3.3184,-3.2363,-3.2598,0.0,-3.2851,-3.3203,-3.3457,-3.3437,-3.3437,-3.3437,-3.3418,-3.3027,-3.2793,-3.2754,-3.1562,-3.0664,-3.0215,-2.9355,-2.8516,-2.7748,-2.6045,-2.4734,-2.3848,0.0,0.0,0.0,0.0,0.0,0.0,0.0,0.0,0.0,0.0,0.0,0.0,0.0,0.0,0.0,0.0,0.0,0.0,0.0,0.0,0.0,-2.6289,-2.7598,-2.8144,-2.9824,-3.1328,-3.2246,-3.3437,-3.4043,-3.3691,-3.4551,-3.5234,-3.5469,-3.6289,-3.7012,-3.7539,-3.7695,-3.7891,-3.8223,-3.834,-3.8398,-3.8398,-3.8516,-3.8574,-3.8574,-3.8574,-3.8574,-3.8574,-3.8574,-3.8574,-3.8574,-3.8574,-3.8574,-3.8574,-3.8574,-3.8574,-3.8555,-3.832,-3.8223,-3.8223,-3.8223,-3.8301,-3.8398,-3.8398,-3.8184,-3.791,-3.7793,-3.7461,-3.7109,-3.6992,-3.6953,-3.6914,-3.6816,-3.6855,-3.6953,-3.6953,-3.6953,-3.6875,-3.6562,-3.6484,-3.6406,-3.6094,-3.5937,-3.5859,-3.5859,-3.5742,-3.5371,-3.4492,-3.4355,-3.4277,-3.4043,-3.4101,0.0,-3.418,-3.4277,-3.4238,-3.3926,-3.3887,-3.3769,-3.3457,-3.3027,-3.2519,-3.1914,-3.0937,-3.0332,-3.0195,-2.9082,-2.8359,-2.8125,-2.6738,-2.5742,0.0,0.0,0.0,0.0,0.0,0.0,0.0,0.0,0.0,0.0,0.0,0.0,0.0,0.0,0.0,0.0,0.0,0.0,0.0,0.0,0.0,0.0,-2.8555,-3.0195,-3.0976,-3.1953,-3.3066,-3.4355,-3.5117,-3.5586,-3.5781,-3.625,-3.6621,-3.6797,-3.7285,-3.7754,-3.8164,-3.8203,-3.832,-3.8574,-3.8574,-3.8574,-3.8574,-3.8574,-3.8574,-3.8574,-3.8574,-3.8574,-3.8574,-3.8574,-3.8574,-3.8574,-3.8574,-3.8574,-3.8574,-3.8574,-3.8574,0.0,0.0,0.0,0.0,0.0,-3.8574,-3.8574,-3.8574,-3.8418,-3.8203,-3.8203,-3.8027,-3.7793,-3.7617,-3.7559,-3.7519,-3.7344,-3.7305,-3.7305,-3.7305,-3.7305,-3.7187,-3.6777,-3.668,-3.6543,-3.6113,-3.6016,-3.6016,-3.6016,-3.6016,0.0,-3.5332,-3.5098,-3.4863,-3.4492,-3.459,-3.4629,-3.4453,-3.459,-3.4609,-3.4355,-3.4336,-3.4238,-3.3984,-3.3398,0.0,0.0,0.0,-3.0156,-2.9434,-2.834,0.0,0.0,0.0,0.0,0.0,0.0,0.0,0.0,-2.5605,-2.5547,0.0,0.0,0.0,0.0,0.0,0.0,0.0,0.0,0.0,0.0,0.0,0.0,0.0,0.0,0.0,0.0,-3.0684,-3.2754,-3.4043,-3.4297,-3.4805,-3.5957,-3.6484,-3.6894,-3.7266,-3.7344,-3.7519,-3.7891,-3.7969,-3.8164,-3.8555,0.0,0.0,0.0,0.0,-3.8574,-3.8574,-3.8574,-3.8574,-3.8574,-3.8574,-3.8574,-3.8574,-3.8574,-3.8574,-3.8574,-3.8574,-3.8574,-3.8574,-3.8574,-3.8574,-3.8574,-3.8574,-3.8574,-3.8574,-3.8574,-3.8574,-3.8574,-3.8574,0.0,0.0,-3.8574,-3.8574,-3.8496,-3.8105,-3.7988,-3.791,-3.7539,-3.7441,-3.7422,-3.7383,-3.7363,-3.7246,-3.6777,-3.668,-3.6543,-3.6113,-3.6016,-3.6016,-3.6016,-3.6016,-3.6016,-3.6016,-3.5703,-3.5195,-3.4414,-3.4609,-3.4707,-3.4336,-3.4609,-3.4824,-3.4785,0.0,0.0,-3.4707,-3.3906,-3.3242,-3.2832,-3.1641,-3.0234,-2.8574,-2.7871,-2.7676,-2.808,-2.8809,-2.9394,-2.9785,-3.0625,-3.1269,-3.1641,-2.8047,-2.7637,0.0,0.0,0.0,0.0,0.0,0.0,0.0,0.0,0.0,0.0,0.0,0.0,0.0,0.0,0.0,-3.0039,-3.1953,-3.3633,-3.4961,-3.5723,-3.6269,-3.6523,-3.6914,-3.7207,-3.7285,-3.7598,-3.7832,-3.791,-3.8242,-3.8476,-3.8574,-3.8574,-3.8574,-3.8574,-3.8574,-3.8574,-3.8574,-3.8574,-3.8574,-3.8574,0.0,0.0,-3.8574,-3.8574,-3.8574,-3.8574,-3.8574,-3.8574,-3.8574,-3.8574,-3.8574,-3.8574,-3.8574,-3.8574,-3.8574,-3.8574,-3.8574,-3.8574,-3.8574,-3.8574,-3.8574,-3.8574,-3.8574,-3.8555,-3.8476,-3.8457,0.0,-3.834,-3.832,-3.8242,-3.7891,-3.7812,-3.7617,-3.6855,-3.668,-3.6543,-3.6113,-3.6016,-3.6016,-3.6016,-3.6016,-3.6016,-3.6016,-3.5957,-3.584,-3.5664,-3.5703,-3.5742,-3.5644,-3.5723,-3.5644,-3.5293,-3.5254,-3.5117,-3.4726,-3.3906,-3.3242,-3.2832,-3.1914,-3.0918,-2.9883,-3.0351,-3.0527,-3.0273,-3.0762,-3.1055,-3.1133,-3.166,-3.2305,-3.3008,-3.123,-3.0859,0.0,0.0,0.0,0.0,0.0,0.0,0.0,0.0,0.0,0.0,0.0,-2.5605,-2.7344,0.0,-3.0234,-3.2168,-3.3574,-3.4785,-3.5879,-3.6582,-3.6992,-3.6992,-3.7363,-3.7695,-3.791,-3.8125,-3.8242,-3.8242,-3.8457,-3.8574,-3.8574,-3.8574,-3.8574,-3.8574,-3.8574,-3.8574,-3.8574,-3.8574,-3.8574,-3.8574,-3.8574,-3.8574,-3.8574,-3.8574,-3.8574,-3.8574,-3.8574,-3.8574,-3.8574,-3.8574,-3.8574,-3.8574,-3.8574,-3.8574,-3.8574,-3.8574,-3.8574,-3.8574,-3.8574,-3.8574,-3.8574,-3.8574,-3.8574,-3.8535,-3.832,-3.8242,-3.8203,-3.7988,-3.793,-3.7891,-3.7676,-3.7617,-3.7461,-3.6816,-3.668,-3.6543,-3.6113,-3.6016,-3.6016,-3.6016,-3.6016,-3.6016,-3.6016,-3.6016,-3.6016,-3.6016,-3.6016,-3.6016,-3.6016,-3.6016,-3.5937,-3.5723,-3.5703,-3.5605,-3.5391,-3.457,-3.3887,-3.3457,-3.2637,-3.1953,-3.1523,-3.1719,-3.1836,-3.1836,-3.2266,-3.2578,-3.2793,-3.3223,-3.3769,-3.4394,-3.3965,-3.3652,0.0,0.0,0.0,0.0,0.0,0.0,0.0,-2.3535,-2.4375,-2.5684,-2.6719,-2.793,-2.9746,-3.1074,-3.2383,-3.3945,-3.4941,-3.5781,-3.6562,-3.7109,-3.7422,-3.7422,-3.7793,-3.8184,-3.8535,-3.8574,-3.8574,-3.8574,-3.8574,-3.8574,-3.8574,-3.8574,-3.8574,-3.8574,-3.8574,-3.8574,-3.8574,-3.8574,-3.8574,-3.8574,-3.8574,-3.8574,-3.8574,-3.8574,-3.8574,-3.8574,-3.8574,-3.8574,-3.8574,-3.8574,-3.8574,-3.8574,-3.8574,-3.8574,-3.8574,-3.8574,-3.8574,-3.8574,-3.8574,-3.8574,-3.8574,-3.8574,-3.8574,-3.8496,-3.8047,-3.793,-3.7832,-3.7422,-3.7305,-3.7285,-3.7187,-3.7168,-3.707,-3.6641,-3.6543,-3.6445,-3.6094,-3.6016,-3.6016,-3.6016,-3.6016,-3.6016,-3.6016,-3.6016,-3.6016,-3.6016,-3.6016,-3.6016,-3.6016,-3.6016,-3.6016,-3.6016,-3.6016,-3.5996,-3.5898,-3.5254,-3.4648,-3.4219,-3.3555,-3.3164,-3.3164,-3.2832,-3.2812,-3.3164,-3.3594,-3.3984,-3.4336,-3.4746,-3.5195,-3.5644,-3.5996,-3.5762,-1.5583,-1.6637,-1.8659,-2.147,-2.2631,-2.3775,0.0,-2.7141,-2.7519,-2.8863,-3.0078,-3.1133,-3.1758,-3.2617,-3.3516,-3.4473,-3.5371,-3.6113,-3.6601,-3.7344,-3.7851,-3.7851,-3.8242,-3.8516,-3.8574,-3.8574,-3.8574,-3.8574,-3.8574,-3.8574,-3.8574,-3.8574,-3.8574,-3.8574,-3.8574,-3.8574,-3.8574,-3.8574,-3.8574,-3.8574,-3.8574,-3.8574,-3.8574,-3.8574,-3.8574,-3.8574,-3.8574,-3.8574,-3.8574,-3.8574,-3.8574,-3.8574,-3.8574,-3.8574,-3.8574,-3.8574,-3.8574,-3.8574,-3.8574,-3.8574,-3.8574,-3.8574,-3.8574,-3.8496,-3.8047,-3.793,-3.7832,-3.7422,-3.7305,-3.7207,-3.6836,-3.6738,-3.6641,-3.6191,-3.6094,-3.6074,-3.6035,-3.6016,-3.6016,-3.6016,-3.6016,-3.6016,-3.6016,-3.6016,-3.6016,-3.6016,-3.6016,-3.6016,-3.6016,-3.6016,-3.6016,-3.6016,-3.6016,-3.5859,-3.5488,-3.5371,-3.5117,-3.4668,-3.4531,-3.4492,-3.4492,-3.4434,-3.4434,-3.4492,-3.4941,-3.5195,-3.5254,-3.5664,-3.6094,-3.6523,-3.6582,-3.6543,-1.8379,-1.9851,-2.1614,-2.3758,-2.5237,-2.6543,-2.8047,-2.8769,-2.9434,-3.0488,-3.1543,-3.2461,-3.3144,-3.3984,-3.4766,-3.5371,-3.5996,-3.6465,-3.6641,-3.7187,-3.7461,-3.7226,-3.7578,-3.8027,-3.8535,-3.8574,-3.8574,-3.8574,-3.8574,-3.8574,-3.8574,-3.8574,-3.8574,-3.8574,-3.8574,-3.8574,-3.8574,-3.8574,-3.8574,-3.8574,-3.8574,-3.8574,-3.8574,-3.8574,-3.8574,-3.8574,-3.8574,-3.8574,-3.8574,-3.8574,-3.8574,-3.8574,-3.8574,-3.8574,-3.8574,-3.8574,-3.8574,-3.8574,-3.8574,-3.8574,-3.8574,-3.8574,-3.8574,-3.8496,-3.8047,-3.793,-3.7832,-3.7422,-3.7305,-3.7207,-3.6777,-3.668,-3.6562,-3.6133,-3.6016,-3.6016,-3.6016,-3.6016,-3.6016,-3.6016,-3.6016,-3.6016,-3.6016,-3.6016,-3.6016,-3.6016,-3.6016,-3.6016,-3.6016,-3.6016,-3.6016,-3.6016,-3.6016,-3.5957,-3.5781,-3.5762,-3.5684,-3.5488,-3.5469,-3.5469,-3.5469,-3.5469,-3.5469,-3.5469,-3.5664,-3.5879,-3.6133,-3.6309,-3.6621,-3.7031,-3.7285,-3.7402,-2.0291,-2.195,-2.3497,-2.5833,-2.7559,-2.8828,-2.9492,-3.0215,-3.0957,-3.1719,-3.2559,-3.3379,-3.4101,-3.4883,-3.5527,-3.5957,-3.6387,-3.668,-3.668,-3.6934,-3.7012,-3.6699,-3.6836,-3.7226,-3.7988,-3.8262,-3.8437,-3.8555,-3.8574,-3.8574,-3.8574,-3.8574,-3.8574,-3.8574,-3.8574,-3.8574,-3.8574,-3.8574,-3.8574,-3.8574,-3.8574,-3.8574,-3.8574,-3.8574,-3.8574,-3.8574,-3.8574,-3.8574,-3.8574,-3.8574,-3.8574,-3.8574,-3.8574,-3.8574,-3.8574,-3.8574,-3.8574,-3.8574,-3.8574,-3.8574,-3.8574,-3.8574,-3.8574,-3.8496,-3.8047,-3.793,-3.7832,-3.7422,-3.7305,-3.7226,-3.6914,-3.6836,-3.6738,-3.6309,-3.6191,-3.6172,-3.6035,-3.6016,-3.6016,-3.6016,-3.6016,-3.6016,-3.6016,-3.6016,-3.6016,-3.6016,-3.6016,-3.6016,-3.6016,-3.6016,-3.6016,-3.6016,-3.6016,-3.6016,-3.6016,-3.6016,-3.6016,-3.6016,-3.6016,-3.6016,-3.6016,-3.6016,-3.6016,-3.6016,-3.6016,-3.6172,-3.6484,-3.6484,-3.6719,-3.7129,-3.7441,-3.7637,-2.0055,-2.1459,-2.3132,-2.7194,-2.8887,-2.9863,-3.1152,-3.1777,-3.2226,-3.2676,-3.3437,-3.416,-3.4609,-3.5078,-3.5527,-3.5957,-3.6387,-3.668,-3.668,-3.668,-3.668,-3.668,-3.6309,-3.623,0.0,-3.7461,-3.8125,-3.8555,-3.8574,-3.8574,-3.8574,-3.8574,-3.8574,-3.8574,-3.8574,-3.8574,-3.8574,-3.8574,-3.8574,-3.8574,-3.8574,-3.8574,-3.8574,-3.8574,-3.8574,-3.8574,-3.8574,-3.8574,-3.8574,-3.8574,-3.8574,-3.8574,-3.8574,-3.8574,-3.8574,-3.8574,-3.8574,-3.8574,-3.8574,-3.8574,-3.8574,-3.8574,-3.8574,-3.8496,-3.8047,-3.793,-3.7832,-3.7422,-3.7305,-3.7285,-3.7285,-3.7285,-3.7168,-3.6758,-3.666,-3.6543,-3.6113,-3.6016,-3.6016,-3.6016,-3.6016,-3.6016,-3.6016,-3.6016,-3.6016,-3.6016,-3.6016,-3.6016,-3.6016,-3.6016,-3.6016,-3.6016,-3.6016,-3.6016,-3.6016,-3.6016,-3.6016,-3.6016,-3.6016,-3.6016,-3.6016,-3.6016,-3.6016,-3.6016,-3.6016,-3.6035,-3.6035,-3.6035,-3.6269,-3.668,-3.6699,-3.6934,-2.1275,-2.3307,-2.5523,-2.8737,-3.043,-3.1484,-3.2207,-3.2695,-3.3047,-3.3184,-3.3437,-3.3691,-3.3828,-3.4219,-3.4648,-3.5078,-3.5762,-3.623,-3.623,-3.6484,-3.6348,-3.5469,-3.5508,0.0,0.0,0.0,0.0,-3.8086,-3.8144,-3.8262,-3.8555,-3.8574,-3.8574,-3.8574,-3.8574,-3.8574,-3.8574,-3.8574,-3.8574,-3.8574,-3.8574,-3.8574,-3.8574,-3.8574,-3.8574,-3.8574,-3.8574,-3.8574,-3.8574,-3.8574,-3.8574,-3.8574,-3.8574,-3.8574,-3.8574,-3.8574,-3.8574,-3.8574,-3.8574,-3.8574,-3.8574,-3.8574,-3.8574,-3.8555,-3.8398,-3.8359,-3.832,-3.8184,-3.8144,-3.8086,-3.7793,-3.7715,-3.7598,-3.7187,-3.709,-3.6973,-3.6543,-3.6445,-3.6367,-3.6074,-3.6016,-3.6016,-3.6016,-3.6016,-3.6016,-3.6016,-3.6016,-3.6016,-3.6016,-3.6016,-3.6016,-3.6016,-3.6016,-3.6016,-3.6016,-3.6016,-3.6016,-3.6016,-3.6016,-3.6016,-3.6016,-3.6016,-3.6016,-3.6016,-3.6016,-3.6152,-3.6445,-3.6445,-3.668,-3.709,-3.709,-3.7168,-2.1512,-2.3968,-2.6504,-2.9252,-3.1202,-3.25,-3.293,-3.3105,-3.3144,-3.3008,-3.2734,-3.2559,-3.2715,-3.2715,-3.3086,-3.4277,-3.4824,-3.5312,-3.5937,-3.5996,-3.5723,-3.5019,-3.4941,-3.5039,0.0,0.0,0.0,-3.7832,-3.793,-3.8105,-3.8555,-3.8574,-3.8574,-3.8574,-3.8574,-3.8574,-3.8574,-3.8574,-3.8574,-3.8574,-3.8574,-3.8574,-3.8574,-3.8574,-3.8574,-3.8574,-3.8574,-3.8574,-3.8574,-3.8574,-3.8574,-3.8574,-3.8574,-3.8574,-3.8574,-3.8574,-3.8574,-3.8574,-3.8574,-3.8574,-3.8574,-3.8574,-3.8574,-3.8574,-3.8574,-3.8574,-3.8574,-3.8574,-3.8574,-3.8516,-3.8223,-3.8164,-3.8047,-3.7617,-3.7519,-3.7402,-3.6992,-3.6894,-3.6758,-3.6348,-3.625,-3.6211,-3.6055,-3.6016,-3.6016,-3.6016,-3.6016,-3.6016,-3.6016,-3.6016,-3.6016,-3.6016,-3.6016,-3.6016,-3.6016,-3.6016,-3.6016,-3.6016,-3.6016,-3.6016,-3.6016,-3.6016,-3.6016,-3.6016,-3.6016,-3.6152,-3.6445,-3.6445,-3.6582,-3.6836,-3.6836,-3.6934,-2.1092,-2.3588,-2.6109,-2.8931,-3.1289,-3.293,-3.3301,-3.3066,-3.2637,-3.2226,-3.1426,-3.0918,-3.1309,-3.0684,-3.1016,-3.3535,-3.3672,-3.4062,-3.5781,-3.5293,-3.4922,-3.5351,-3.4648,-3.4473,0.0,0.0,0.0,-3.7754,0.0,-3.8086,-3.8555,-3.8574,-3.8574,-3.8574,-3.8555,-3.8535,-3.8535,-3.8535,-3.8555,-3.8574,-3.8574,-3.8574,-3.8574,-3.8574,-3.8574,-3.8574,-3.8574,-3.8574,-3.8574,-3.8574,-3.8574,-3.8574,-3.8574,-3.8574,-3.8574,-3.8574,-3.8574,-3.8574,-3.8574,-3.8574,-3.8574,-3.8574,-3.8574,-3.8574,-3.8574,-3.8574,-3.8574,-3.8574,-3.8574,-3.8574,-3.8574,-3.8574,-3.8476,-3.8047,-3.7969,-3.7832,-3.7422,-3.7324,-3.7207,-3.6777,-3.668,-3.6543,-3.6133,-3.6035,-3.6016,-3.6016,-3.6016,-3.6016,-3.6016,-3.6016,-3.6016,-3.6016,-3.6016,-3.6016,-3.6016,-3.6016,-3.6016,-3.6016,-3.6016,-3.6016,-3.6016,-3.6016,-3.6016,-3.6016,-3.6016,-3.6016,-3.6016,-3.6016,-3.6035,-3.6055,-3.6055,-3.6289,-2.3668,-2.577,-2.761,-3.109,-3.2618,-3.3203,-3.3008,-3.2637,-3.2207,-3.1777,-3.0469,-2.9453,-2.9551,-2.9668,-3.0273,-3.1894,-3.3144,-3.4394,-3.582,-3.582,-3.5605,-3.541,-3.5195,-3.5156,-3.5371,-3.5391,0.0,0.0,-3.7461,-3.7793,-3.8535,-3.8574,-3.8574,-3.8574,-3.8262,-3.8086,-3.8086,-3.8086,-3.8262,-3.8574,-3.8574,-3.8574,-3.8574,-3.8574,-3.8574,-3.8574,-3.8574,-3.8574,-3.8574,-3.8574,-3.8574,-3.8574,-3.8574,-3.8574,-3.8574,-3.8574,-3.8574,-3.8574,-3.8574,-3.8574,-3.8574,-3.8574,-3.8574,-3.8574,-3.8574,-3.8574,-3.8574,-3.8574,-3.8574,-3.8574,-3.8574,-3.8574,-3.8555,-3.8437,-3.8418,-3.8301,-3.7851,-3.7773,-3.7637,-3.7226,-3.6894,-3.6641,-3.6523,-3.623,-3.6016,-3.6016,-3.6016,-3.6016,-3.6016,-3.6016,-3.6016,-3.6016,-3.6016,-3.6016,-3.6016,-3.6016,-3.6016,-3.6016,-3.6016,-3.6016,-3.6016,-3.6016,-3.6016,-3.6016,-3.6016,-3.6016,-3.6016,-3.6016,-3.6191,-3.6504,-3.6504,-3.6738,-2.4176,-2.5674,-2.7212,-3.1009,-3.141,-3.1117,-3.1825,-3.0531,-2.9223,-2.9445,-2.8007,-2.6874,-2.7415,-2.7871,-2.8789,-3.0644,-3.2226,-3.3828,-3.5508,-3.5742,-3.5723,-3.5664,-3.5664,-3.5742,-3.5937,-3.5957,-3.6328,0.0,-3.7305,-3.7676,-3.8535,-3.8574,-3.8574,-3.8574,-3.834,-3.8125,-3.793,-3.793,-3.8047,-3.8301,-3.8476,-3.8574,-3.8574,-3.8574,-3.8574,-3.8574,0.0,-3.8574,-3.8574,-3.8574,-3.8574,-3.8574,-3.8574,-3.8574,-3.8574,-3.8574,-3.8574,-3.8574,-3.8574,-3.8574,-3.8574,-3.8574,-3.8574,-3.8574,-3.8574,-3.8574,-3.8574,-3.8574,-3.8574,-3.8574,-3.8574,-3.8574,-3.8574,-3.8574,-3.8574,-3.8516,-3.8262,-3.8203,-3.8086,-3.7656,-3.7226,-3.6953,-3.6953,-3.6582,-3.6309,-3.6309,-3.6152,-3.6016,-3.6016,-3.6016,-3.6016,-3.6016,-3.6016,-3.6016,-3.6016,-3.6016,-3.6016,-3.6016,-3.6016,-3.6016,-3.6016,-3.6016,-3.6016,-3.6016,-3.6016,-3.6016,-3.6016,-3.6211,-3.6426,-3.668,-3.6855,-3.7168,-2.42,-2.5043,-2.6067,-2.9837,-2.9305,-2.8398,-3.0035,-2.7843,-2.5652,-2.6446,-2.507,-2.403,-2.5111,-2.5917,-2.7207,-2.9707,-3.1269,-3.293,-3.5098,-3.5391,-3.5547,-3.5976,-3.6016,-3.6191,-3.6621,-3.6621,-3.6797,-3.7344,-3.7324,-3.7637,-3.8437,-3.8437,-3.8398,-3.8398,-3.8398,-3.8223,-3.7851,-3.7793,-3.7812,-3.793,-3.8301,-3.8516,-3.8574,-3.8574,-3.8574,-3.8574,-3.8574,-3.8574,-3.8574,-3.8574,-3.8574,-3.8574,-3.8574,-3.8574,-3.8574,-3.8574,-3.8574,-3.8574,-3.8574,-3.8574,-3.8574,-3.8574,-3.8574,-3.8574,-3.8574,-3.8574,-3.8574,-3.8574,-3.8574,-3.8574,-3.8574,-3.8574,-3.8574,-3.8574,-3.8574,-3.8574,-3.8574,-3.8574,-3.8457,-3.8086,-3.7676,-3.7383,-3.7383,-3.7031,-3.6738,-3.668,-3.6348,-3.6094,-3.6035,-3.6016,-3.6016,-3.6016,-3.6016,-3.6016,-3.6016,-3.6016,-3.6016,-3.6016,-3.6016,-3.6016,-3.6016,-3.6016,-3.6055,-3.6094,-3.6113,-3.6133,-3.6191,-3.6562,-3.6777,-3.6855,-3.7207,-3.7598,-2.7423,-2.7117,-2.6234,-2.9637,-2.9807,-2.8923,-2.797,-2.7008,-2.5991,-2.4849,-2.3657,-2.2917,-2.3249,-2.5004,-2.7109,-2.9316,-3.1074,-3.293,-3.5098,-3.5391,-3.5547,-3.5976,-3.6016,-3.6191,-3.6621,-3.6348,0.0,0.0,-3.75,-3.7519,-3.8008,-3.7715,-3.7519,-3.7519,-3.7519,-3.748,-3.7402,-3.707,-3.7226,-3.793,-3.8008,-3.8223,-3.8574,-3.8574,-3.8574,-3.8574,-3.8574,0.0,-3.8574,-3.8574,-3.8574,-3.8574,-3.8574,-3.8574,-3.8574,-3.8574,-3.8574,-3.8574,-3.8574,-3.8574,-3.8574,-3.8574,-3.8574,-3.8574,-3.8574,-3.8574,-3.8574,-3.8574,-3.8574,-3.8574,-3.8574,-3.8574,-3.8574,-3.8574,-3.8574,-3.8574,-3.8574,-3.8574,-3.8555,-3.8476,-3.8105,-3.7812,-3.7812,-3.7461,-3.707,-3.6719,-3.6601,-3.6426,-3.6074,-3.6016,-3.6016,-3.6016,-3.6016,-3.6016,-3.6016,-3.6016,-3.6016,-3.6016,-3.6016,-3.6016,-3.6016,-3.6016,-3.6191,-3.6543,-3.6562,-3.6738,-3.707,-3.7148,-3.7363,-3.7715,-3.7773,-3.8047,-2.6025,-2.5651,-2.5174,-2.9247,-2.8409,-2.6499,-2.6412,-2.4663,-2.2704,-2.1704,-2.0474,-2.0059,-2.1536,-2.3289,-2.526,-2.7584,-2.918,-3.1055,-3.3672,-3.4043,-3.4531,-3.5859,-3.623,-3.6445,-3.666,-3.6484,-3.6621,-3.7226,-3.6875,-3.7109,-3.8203,-3.8066,-3.7754,-3.7305,-3.7305,-3.7187,-3.6973,-3.6777,-3.6992,-3.7598,-3.7812,-3.8164,-3.8574,-3.8574,-3.8574,-3.8574,-3.8574,0.0,-3.8574,-3.8574,-3.8574,-3.8574,-3.8574,-3.8574,-3.8574,-3.8574,-3.8574,-3.8574,-3.8574,-3.8574,-3.8574,-3.8574,-3.8574,-3.8574,-3.8574,-3.8574,-3.8574,-3.8574,-3.8574,-3.8574,-3.8574,-3.8574,-3.8574,-3.8574,-3.8574,-3.8574,-3.8574,-3.8574,-3.8574,-3.8574,-3.8398,-3.8262,-3.8262,-3.791,-3.7559,-3.7344,-3.7148,-3.6914,-3.6719,-3.668,-3.6504,-3.6074,-3.623,-3.6348,-3.6348,-3.6562,-3.668,-3.668,-3.668,-3.668,-3.668,-3.668,-3.6777,-3.6992,-3.6992,-3.709,-3.7305,-3.7519,-3.7734,-3.793,-3.8164,-3.8379,-2.44,-2.3888,-2.3792,-2.8303,-2.6465,-2.3887,-2.4905,-2.2319,-1.9495,-1.8765,-1.7818,-1.7795,-2.0008,-2.177,-2.3608,-2.5868,-2.7324,-2.918,-3.2109,-3.2754,-3.3672,-3.5644,-3.6269,-3.6562,-3.666,-3.6582,0.0,-3.6797,-3.6484,-3.6797,-3.7969,-3.8281,-3.8047,-3.7187,-3.7168,-3.7012,-3.668,-3.6582,-3.6797,-3.7305,-3.7637,-3.8066,-3.8574,-3.8574,-3.8574,-3.8574,-3.8574,0.0,-3.8574,-3.8574,-3.8574,-3.8574,-3.8574,-3.8574,-3.8574,-3.8574,-3.8574,-3.8574,-3.8574,-3.8574,-3.8574,-3.8574,-3.8574,-3.8574,-3.8574,-3.8574,-3.8574,-3.8574,-3.8574,-3.8574,-3.8574,-3.8574,-3.8574,-3.8574,-3.8574,-3.8574,-3.8574,-3.8574,-3.8574,-3.8574,-3.8574,-3.8574,-3.8574,-3.8281,-3.8027,-3.793,-3.7637,-3.7402,-3.7305,-3.7305,-3.7051,-3.6367,-3.6601,-3.6816,-3.6816,-3.7109,-3.7305,-3.7305,-3.7305,-3.7305,-3.7305,-3.7305,-3.7344,-3.7422,-3.7441,-3.748,-3.7578,-3.791,-3.8066,-3.8066,-3.8418,-3.8613,-2.5438,-2.4287,-2.2897,-2.61,-2.4934,-2.2961,-2.2994,-2.1131,-1.8962,-1.737,-1.766,-1.838,-1.8758,-2.1193,-2.3738,-2.5479,-2.6875,-2.8633,-3.1269,-3.2637,-3.3887,-3.5293,-3.582,-3.623,-3.6641,-3.6309,-3.6406,-3.7187,-3.7207,-3.6914,-3.6289,-3.7363,-3.7598,-3.6758,-3.6738,-3.6719,-3.668,-3.6289,-3.6484,-3.7305,-3.7344,-3.7793,-3.8574,-3.8574,-3.8574,-3.8574,-3.8574,0.0,0.0,-3.8574,-3.8574,-3.8574,-3.8574,-3.8574,-3.8574,-3.8574,-3.8574,-3.8574,-3.8574,-3.8574,-3.8574,-3.8574,-3.8574,-3.8574,-3.8574,-3.8574,-3.8574,-3.8574,-3.8574,-3.8574,-3.8574,-3.8574,-3.8574,-3.8574,-3.8574,-3.8574,-3.8574,-3.8574,-3.8574,-3.8574,-3.8574,-3.8574,-3.8574,-3.8535,-3.8379,-3.7988,-3.7891,-3.7734,-3.7344,-3.7305,-3.7266,-3.7187,-3.7226,-3.7246,-3.7246,-3.7266,-3.7305,-3.7305,-3.7305,-3.7305,-3.7305,-3.7305,-3.748,-3.7851,-3.7871,-3.8066,-3.8457,-3.8496,-3.8516,-3.8516,-3.8555,-3.8789,-2.2764,-2.2636,-2.2487,-2.4508,-2.384,-2.2407,-2.1557,-2.005,-1.8195,-1.5917,-1.5605,-1.6287,-1.7933,-1.9237,-2.0966,-2.3699,-2.4394,-2.5644,-2.8769,-2.9629,-3.0996,-3.3867,-3.459,-3.5234,0.0,0.0,-3.6152,-3.6504,-3.6777,-3.666,-3.6055,-3.6992,-3.7148,-3.6309,-3.6543,-3.6543,-3.6289,-3.6113,-3.6328,-3.6914,-3.6914,-3.7363,-3.8184,-3.8184,-3.832,-3.8574,-3.8574,0.0,0.0,-3.8574,-3.8574,-3.8574,-3.8574,-3.8574,-3.8574,-3.8574,-3.8574,-3.8574,-3.8574,-3.8574,-3.8574,-3.8574,-3.8574,-3.8574,-3.8574,-3.8574,-3.8574,-3.8574,-3.8574,-3.8574,-3.8574,-3.8574,-3.8574,-3.8574,-3.8574,-3.8574,-3.8574,-3.8574,-3.8574,-3.8574,-3.8574,-3.8574,-3.8574,-3.8574,-3.8516,-3.834,-3.832,-3.8262,-3.8086,-3.8066,-3.8066,-3.8066,-3.7832,-3.7676,-3.7676,-3.791,-3.8066,-3.8066,-3.8066,-3.8066,-3.8066,-3.8066,-3.8144,-3.832,-3.832,-3.8398,-3.8574,-3.8574,-3.8574,-3.8574,-3.8828,-3.9043,-2.0722,-2.1216,-2.1815,-2.3373,-2.2598,-2.1277,-2.0514,-1.8955,-1.7077,-1.4957,-1.4538,-1.5216,-1.7391,-1.8187,-1.94,-2.2298,-2.2906,-2.4102,-2.707,-2.7793,-2.918,-3.2305,-3.3047,-3.3828,-3.5117,-3.5723,-3.6016,-3.6016,-3.6309,-3.6348,-3.6035,-3.6582,-3.6641,-3.6035,-3.6309,-3.6328,-3.6016,-3.6016,-3.623,-3.668,-3.668,-3.7051,-3.7734,-3.7734,-3.7969,-3.8379,-3.8379,0.0,0.0,-3.8574,-3.8574,-3.8574,-3.8574,-3.8574,-3.8574,-3.8574,-3.8574,-3.8574,-3.8574,-3.8574,-3.8574,-3.8574,-3.8574,-3.8574,-3.8574,-3.8574,-3.8594,-3.873,-3.8769,-3.873,-3.8613,-3.8574,-3.8574,-3.8574,-3.8574,-3.8574,-3.8574,-3.8574,-3.8574,-3.8574,-3.8574,-3.8574,-3.8574,-3.8574,-3.8574,-3.8574,-3.8574,-3.8574,-3.8574,-3.8574,-3.8574,-3.8574,-3.8301,-3.8125,-3.8125,-3.8398,-3.8574,-3.8574,-3.8574,-3.8574,-3.8574,-3.8574,-3.8574,-3.8574,-3.8574,-3.8574,-3.8574,-3.8691,-3.8769,-3.8769,-3.9199,-3.9473,-2.0361,-2.0468,-2.0672,-2.2642,-2.1012,-1.9138,-1.9852,-1.7838,-1.5578,-1.4696,-1.5149,-1.6026,-1.7107,-1.8533,-2.009,-2.1651,-2.3301,-2.5019,-2.6777,-2.8105,-2.9414,-3.0762,-3.1289,-3.2051,-3.332,-3.5,-3.6016,-3.6016,-3.6016,0.0,-3.6016,-3.6035,-3.6035,-3.6016,-3.6016,-3.6016,-3.6016,-3.6016,-3.623,-3.668,-3.668,-3.6894,-3.7305,-3.7305,-3.7539,-3.793,0.0,0.0,0.0,-3.8574,-3.8574,-3.8574,-3.8574,-3.8574,-3.8574,-3.8574,-3.8574,-3.8574,-3.8574,-3.8574,-3.8574,-3.8574,-3.8574,-3.8574,-3.8574,-3.8574,-3.8652,-3.9082,-3.9199,-3.9101,-3.8691,-3.8574,-3.8574,-3.8574,-3.8574,-3.8574,-3.8574,-3.8574,-3.8574,-3.8574,-3.8574,-3.8574,-3.8574,-3.8574,-3.8574,-3.8574,-3.8574,-3.8574,-3.8574,-3.8574,-3.8574,-3.8574,-3.8574,-3.8574,-3.8574,-3.8574,-3.8574,-3.8574,-3.8574,-3.8574,-3.8574,-3.8574,-3.8574,-3.8574,-3.8574,-3.8574,-3.8574,-3.8984,-3.9199,-3.9199,-3.9668,-4.0117,-1.8664,-1.9105,-1.9421,-1.9816,-1.8973,-1.7929,-1.753,-1.6457,-1.5284,-1.4402,-1.4431,-1.4936,-1.6026,-1.7212,-1.8835,-2.1256,-2.27,-2.4114,-2.5849,-2.7246,-2.8652,-3.0234,-3.2637,-3.4434,0.0,0.0,-3.6016,-3.6016,-3.6016,-3.6016,-3.6016,-3.6016,-3.6016,-3.6016,-3.6016,-3.6016,-3.6016,-3.6016,-3.6094,-3.623,-3.623,-3.6445,-3.6875,-3.6875,-3.709,0.0,0.0,0.0,0.0,-3.8125,-3.8301,-3.8574,-3.8574,-3.8574,-3.8574,-3.8574,-3.8574,-3.8574,-3.8574,-3.8574,-3.8574,-3.8574,-3.8574,-3.8574,-3.8574,-3.8574,-3.8613,-3.873,-3.8769,-3.875,-3.8613,-3.8574,-3.8574,-3.8574,-3.8574,-3.8574,-3.8574,-3.8574,-3.8574,-3.8574,-3.8574,-3.8574,-3.8574,-3.8574,-3.8574,-3.8574,-3.8574,-3.8574,-3.8574,-3.8574,-3.8574,-3.8574,-3.8574,-3.8574,-3.8574,-3.8574,-3.8574,-3.8574,-3.8574,-3.8574,-3.8574,-3.8574,-3.8574,-3.8574,-3.8574,-3.8711,-3.9004,-3.9141,-3.9512,-4.0117,-4.0254,-4.0566,-1.7555,-1.8143,-1.8397,-1.8343,-1.7702,-1.6914,-1.6259,-1.5565,-1.4883,-1.4215,-1.4405,-1.4894,-1.5572,-1.7024,-1.8759,-2.049,-2.2233,-2.3887,-2.5293,-2.6602,-2.8105,-2.998,-3.2695,0.0,0.0,-3.5742,-3.6016,-3.6016,-3.6016,-3.6016,-3.6016,-3.6016,-3.6016,-3.6016,-3.6016,-3.6016,-3.6016,-3.6016,-3.6016,-3.6016,-3.6016,-3.6152,-3.6426,-3.6426,-3.666,0.0,0.0,0.0,0.0,-3.7851,-3.8086,-3.834,-3.8516,-3.8574,-3.8574,-3.8574,-3.8574,-3.8574,-3.8574,-3.8574,-3.8574,-3.8574,-3.8574,-3.8574,-3.8574,-3.8691,-3.8809,-3.8809,-3.8809,-3.8809,-3.8809,-3.8691,-3.8574,-3.8574,-3.8574,-3.8574,-3.8574,-3.8691,-3.8769,-3.8613,-3.8691,-3.8769,-3.8613,-3.8574,-3.8574,-3.8574,-3.8574,-3.8574,-3.8574,-3.8574,-3.8574,-3.8574,-3.8574,-3.8574,-3.8574,-3.8574,-3.8574,-3.8574,-3.8574,-3.8574,-3.8574,-3.8574,-3.8652,-3.8809,-3.8809,-3.9023,-3.9453,-3.9629,-4.0059,-4.0762,-4.0762,-4.0918,0.0,-1.7368,-1.7488,-1.7702,-1.6994,-1.6099,-1.5758,-1.5097,0.0,-1.4122,-1.4866,-1.5598,-1.5696,-1.7763,-1.9493,-1.9761,-2.2025,-2.4102,-2.5047,-2.6348,-2.8047,0.0,-3.1953,0.0,-3.4121,-3.5312,-3.6016,-3.6016,-3.6016,-3.6016,-3.6016,-3.6016,-3.6016,-3.6016,-3.6016,-3.6016,-3.6016,-3.6016,-3.6016,-3.6016,-3.6016,-3.6016,-3.6016,-3.6016,-3.623,0.0,0.0,0.0,0.0,-3.7676,-3.7871,-3.7969,-3.8359,-3.8555,-3.8574,-3.8574,-3.8574,-3.8574,-3.8574,-3.8574,-3.8574,-3.8574,-3.8574,-3.8574,-3.8574,-3.8848,-3.916,-3.9199,-3.9199,-3.9199,-3.9238,-3.8965,-3.8672,-3.8672,-3.8672,-3.8672,-3.8672,-3.8984,-3.9141,-3.875,-3.8984,-3.9121,-3.873,-3.8672,-3.8652,-3.8633,-3.8613,-3.8613,-3.8574,-3.8574,-3.8574,-3.8574,-3.8574,-3.8574,-3.8574,-3.8574,-3.8574,-3.8574,-3.8574,-3.8594,-3.8613,-3.8613,-3.8828,-3.9238,-3.9277,-3.9512,-3.9941,-4.0371,-4.0781,-4.1172,-4.1172,-4.1172,-1.4399,0.0,-1.5872,-1.5725,-1.5484,-1.5236,0.0,-1.4496,-1.4108,-1.3773,-1.3899,-1.4447,-1.5651,-1.6951,-1.868,-2.1166,-2.2827,-2.4199,-2.541,-2.7812,-3.0371,-3.2871,-3.4121,-3.498,-3.5508,-3.584,-3.6016,-3.6016,-3.6016,-3.6016,-3.6016,-3.6016,-3.6016,-3.6016,-3.6016,-3.6016,-3.6016,-3.6016,-3.6016,-3.6016,-3.6016,-3.6016,-3.6016,-3.6016,-3.6074,0.0,0.0,0.0,-3.6816,-3.6934,-3.7344,-3.793,-3.8027,-3.8281,-3.8574,-3.8574,-3.8574,-3.8574,-3.8574,-3.8574,-3.8574,-3.8574,-3.8574,-3.8574,-3.8574,-3.8652,-3.8789,-3.9101,-3.9199,-3.9277,-3.9648,-3.9668,-3.959,-3.959,-3.959,-3.959,-3.959,-3.9668,-3.9707,-3.9609,-3.9668,-3.9707,-3.9609,-3.959,-3.9473,-3.9101,-3.9062,-3.8945,-3.8613,-3.8574,-3.8574,-3.8574,-3.8574,-3.8574,-3.8574,-3.8574,-3.8574,-3.8574,-3.8574,-3.8711,-3.9043,-3.9062,-3.9258,-3.9726,-4.0039,-4.0273,-4.0371,-4.0801,-4.1074,-4.1172,-4.1172,-4.1172,-1.3227,-1.4188,-1.5164,-1.5048,-1.4856,-1.4723,-1.4563,-1.4082,-1.3641,-1.344,-1.3939,-1.4646,-1.5482,-1.7107,-1.8952,-2.0696,-2.258,-2.459,-2.6875,-2.9453,-3.1836,-3.3828,-3.4863,-3.5566,0.0,-3.6016,-3.6016,-3.6016,-3.6016,-3.6016,-3.6016,-3.6016,-3.6016,-3.6016,-3.6016,-3.6016,-3.6016,-3.6016,-3.6016,-3.6016,-3.6016,-3.6016,-3.6016,-3.6016,-3.6016,0.0,0.0,0.0,-3.6387,-3.6582,-3.7051,-3.7656,-3.7851,-3.8184,-3.8574,-3.8574,-3.8574,-3.8574,-3.8574,-3.8574,-3.8574,-3.8574,-3.8574,-3.8574,-3.8574,-3.8574,-3.8711,-3.9336,-3.9375,-3.9355,-4.0019,-4.0039,-3.9902,-3.9902,-3.9902,-3.9902,-3.9902,-4.0059,-4.0117,-3.9941,-4.0059,-4.0117,-3.9922,-3.9902,-3.9805,-3.9551,-3.9512,-3.9434,-3.9219,-3.918,-3.918,-3.918,-3.918,-3.918,-3.918,-3.918,-3.9082,-3.8887,-3.8867,-3.9062,-3.9492,-3.9512,-3.9726,-4.0176,-4.0605,-4.082,-4.082,-4.1055,-4.1172,-4.1172,-4.1172,-4.1172,-1.2837,-1.3842,-1.4905,-1.5028,-1.4892,-1.4713,-1.4672,-1.409,-1.3465,-1.332,-1.4217,-1.5167,-1.5675,-1.7785,-1.9632,-2.0241,-2.2555,-2.543,-2.875,-3.0918,-3.2737,-3.4004,-3.4941,0.0,-3.5996,-3.6016,-3.6016,-3.6016,-3.6016,-3.6016,-3.6016,-3.6016,-3.6016,-3.6016,-3.6016,-3.6016,-3.6016,-3.6016,-3.6016,-3.6016,-3.6016,-3.6016,-3.6016,-3.6016,-3.6016,-3.6016,0.0,0.0,-3.6055,-3.6426,-3.6816,-3.7246,-3.7656,-3.8086,-3.8476,-3.8555,-3.8574,-3.8574,-3.8574,-3.8574,-3.8574,-3.8574,-3.8574,-3.8574,-3.8574,-3.8574,-3.875,-3.9648,-3.9609,-3.9512,-4.0391,-4.0351,-4.0098,-4.0098,-4.0098,-4.0098,-4.0098,-4.0371,-4.0508,-4.0156,-4.0371,-4.0508,-4.0156,-4.0098,-4.0078,-4.0,-4.0,-3.9961,-3.9902,-3.9902,-3.9902,-3.9902,-3.9902,-3.9902,-3.9902,-3.9902,-3.9766,-3.9434,-3.9336,-3.9512,-3.998,-4.0059,-4.0254,-4.0625,-4.0976,-4.1172,-4.1172,-4.1172,-4.1172,-4.1172,-4.1172,-4.1172,-1.2999,-1.3667,-1.4402,-1.508,-1.558,-1.5774,-1.5553,-1.5253,-1.4718,-1.3736,-1.3736,-1.4678,-1.7268,-1.8297,-1.9826,-2.3133,-2.5227,-2.748,0.0,0.0,-3.2773,-3.4414,0.0,-3.5957,-3.6016,-3.6016,-3.6016,-3.6016,-3.6016,-3.6016,-3.6016,-3.6016,-3.6016,-3.6016,-3.6016,-3.6016,-3.6016,-3.6016,-3.6016,-3.6016,-3.6016,-3.6016,-3.6016,-3.6016,-3.6016,-3.6016,0.0,-3.6016,-3.6035,-3.6094,-3.6367,-3.6816,-3.7226,-3.7656,-3.8066,-3.8437,-3.8574,-3.8574,-3.8574,-3.8574,-3.8574,-3.8574,-3.8574,-3.8574,-3.8574,-3.8574,-3.875,-3.9648,-3.9844,-3.998,-4.0859,-4.1035,-4.0976,-4.0976,-4.0976,-4.0976,-4.0976,-4.1035,-4.1055,-4.0996,-4.1035,-4.1055,-4.0996,-4.0976,-4.0859,-4.0488,-4.043,-4.0293,-3.9941,-3.9902,-3.9902,-3.9902,-3.9902,-3.9902,-3.9902,-3.9902,-4.0019,-4.0312,-3.998,-3.998,-4.041,-4.0781,-4.1016,-4.1074,-4.1133,-4.1172,-4.1172,-4.1172,-4.1172,-4.1172,-4.1172,-4.1172,-1.2639,-1.3267,-1.409,-1.5227,-1.6007,-1.6629,-1.7143,-1.6908,-1.6444,-1.5919,-1.595,-1.6702,-1.8683,-1.9868,-2.1699,-2.5247,-2.7266,-2.8984,-3.0644,-3.2012,-3.3301,0.0,0.0,-3.5762,-3.5996,-3.6016,-3.6016,-3.6016,-3.6016,-3.6016,-3.6016,-3.6016,-3.6016,-3.6016,-3.6016,-3.6016,-3.6016,-3.6016,-3.6016,-3.6016,-3.6016,-3.6016,-3.6016,-3.6016,-3.6016,-3.6016,0.0,-3.6016,-3.6016,-3.6016,-3.6269,-3.6719,-3.7129,-3.7559,-3.7969,-3.8418,-3.8574,-3.8574,-3.8574,-3.8574,-3.8574,-3.8574,-3.8574,-3.8574,-3.8574,-3.873,-3.9043,-3.9707,-3.9902,-4.0098,-4.0957,-4.1172,-4.1172,-4.1172,-4.1172,-4.1172,-4.1172,-4.1172,-4.1172,-4.1172,-4.1172,-4.1172,-4.1172,-4.1172,-4.1113,-4.0898,-4.0879,-4.0801,-4.0605,-4.0586,-4.0586,-4.0586,-4.0586,-4.0586,-4.0586,-4.0586,-4.0566,-4.0527,-4.0566,-4.0684,-4.0859,-4.1074,-4.1172,-4.1172,-4.1172,-4.1172,-4.1172,-4.1172,-4.1172,-4.1172,-4.1172,-4.1172,-1.2572,-1.3302,-1.4281,-1.5504,-1.6232,-1.6929,-1.8081,-1.811,-1.7878,-1.7771,-1.8187,-1.8973,-2.0117,-2.1976,-2.421,-2.6858,-2.875,-3.0195,-3.1074,-3.248,-3.3711,-3.4473,-3.4961,-3.5351,-3.5684,-3.5801,-3.5879,-3.5879,-3.5957,-3.6016,-3.6016,-3.6016,-3.6016,-3.6016,-3.6016,-3.6016,-3.6016,-3.6016,-3.6016,-3.6016,-3.6016,-3.6016,-3.6016,-3.6016,-3.6016,-3.6016,-3.6016,-3.6016,-3.6016,-3.6016,-3.6211,-3.6562,-3.6992,-3.7461,-3.7969,-3.8418,-3.8574,-3.8574,-3.8574,-3.8574,-3.8574,-3.8574,-3.8574,-3.8594,-3.8691,-3.8945,-3.9316,-3.9883,-4.0039,-4.0215,-4.0976,-4.1172,-4.1172,-4.1172,-4.1172,-4.1172,-4.1172,-4.1172,-4.1172,-4.1172,-4.1172,-4.1172,-4.1172,-4.1172,-4.1172,-4.1172,-4.1172,-4.1172,-4.1172,-4.1172,-4.1172,-4.1172,-4.1172,-4.1172,-4.1172,-4.1172,-4.1035,-4.0703,-4.0996,-4.1172,-4.1172,-4.1172,-4.1172,-4.1172,-4.1172,-4.1172,-4.1172,-4.1172,-4.1172,-4.1172,-4.1172,-4.123,-1.336,-1.4344,-1.5367,-1.6079,-1.6217,-1.6415,-1.737,-1.81,-1.8392,-1.7964,-1.891,-2.0251,-2.1726,-2.4543,-2.6987,-2.8047,-2.9668,-3.1094,-3.1953,0.0,-3.3594,-3.4062,-3.4492,-3.4766,-3.4785,-3.5176,-3.543,-3.543,-3.5801,-3.6016,-3.6016,-3.6016,-3.6016,-3.6016,-3.6016,-3.6016,-3.6016,-3.6016,-3.6016,-3.6016,-3.6016,-3.6016,-3.6016,-3.6016,-3.6016,-3.6016,-3.6016,-3.6016,-3.6016,-3.6016,-3.6035,-3.6113,-3.6543,-3.7207,-3.7969,-3.8418,-3.8574,-3.8574,-3.8574,-3.8574,-3.8574,-3.8574,-3.8574,-3.8652,-3.9043,-3.918,-3.9375,-4.0234,-4.0469,-4.0586,-4.1055,-4.1172,-4.1172,-4.1172,-4.1172,-4.1172,-4.1172,-4.1172,-4.1172,-4.1172,-4.1172,-4.1172,-4.1172,-4.1172,-4.1172,-4.1172,-4.1172,-4.1172,-4.1172,-4.1172,-4.1172,-4.1172,-4.1172,-4.1172,-4.1172,-4.1172,-4.1172,-4.1133,-4.1152,-4.1172,-4.1172,-4.1172,-4.1172,-4.1172,-4.1172,-4.1172,-4.1172,-4.1172,-4.1172,-4.1172,-4.1172,-4.1387,-1.2973,-1.3529,-1.4181,-1.4979,-1.6038,-1.7548,-1.9875,-2.0761,-2.1412,-2.2494,-2.3151,-2.3756,-2.464,-2.6253,-2.7695,-2.8535,-3.0371,-3.1797,-3.2129,-3.2891,-3.3574,-3.4023,-3.4219,-3.4414,-3.4668,-3.4863,-3.4961,-3.4961,-3.5371,-3.5625,-3.5625,-3.5879,-3.6016,-3.6016,-3.6016,-3.6016,-3.6016,-3.6016,-3.6016,-3.6016,-3.6016,-3.6016,-3.6016,-3.6016,-3.6016,-3.6016,-3.6016,-3.6016,-3.6016,-3.6016,-3.6016,-3.6094,-3.6797,-3.7422,-3.7969,-3.8418,-3.8574,-3.8574,-3.8574,-3.8574,-3.8574,-3.8574,-3.8574,-3.8652,-3.9082,-3.9394,-3.9766,-4.0351,-4.0723,-4.0976,-4.1133,-4.1172,-4.1172,-4.1172,-4.1172,-4.1172,-4.1172,-4.1172,-4.1172,-4.1172,-4.1172,-4.1172,-4.1172,-4.1172,-4.1172,-4.1172,-4.1172,-4.1172,-4.1172,-4.1172,-4.1172,-4.1172,-4.1172,-4.1172,-4.1172,-4.1172,-4.1172,-4.1172,-4.1172,-4.1172,-4.1172,-4.1172,-4.1172,-4.1172,-4.1172,-4.1172,-4.1172,-4.1172,-4.1172,-4.1172,-4.1445,-4.1641,-1.2898,-1.3571,-1.4445,-1.4867,-1.6448,-1.863,-2.1299,-2.2398,-2.3382,-2.5282,-2.5913,-2.6191,-2.6348,-2.7207,-2.8047,0.0,-3.0547,-3.2012,-3.2148,-3.2773,-3.3379,-3.3828,-3.3867,-3.3984,-3.4277,-3.4414,-3.4492,-3.4492,-3.4922,-3.5176,-3.5176,-3.5586,-3.582,-3.582,-3.5957,-3.6016,-3.6016,-3.6016,-3.6016,-3.6016,-3.6016,-3.6016,-3.6016,-3.6016,-3.6016,-3.6016,-3.6016,-3.6016,-3.6016,-3.6016,-3.6016,-3.6113,-3.6953,-3.748,-3.7793,-3.8359,-3.8574,-3.8574,-3.8574,-3.8574,-3.8574,-3.8574,-3.8574,-3.8652,-3.9082,-3.9531,-3.998,-4.041,-4.084,-4.1172,-4.1172,-4.1172,-4.1172,-4.1172,-4.1172,-4.1172,-4.1172,-4.1172,-4.1172,-4.1172,-4.1172,-4.1172,-4.1172,-4.1172,-4.1172,-4.1172,-4.1172,-4.1172,-4.1172,-4.1172,-4.1172,-4.1172,-4.1172,-4.1172,-4.1172,-4.1172,-4.1172,-4.1172,-4.1172,-4.1172,-4.1172,-4.1172,-4.1172,-4.1172,-4.1172,-4.1172,-4.1172,-4.1172,-4.1172,-4.1191,-4.1601,-4.1875,-1.324,-1.481,-1.6737,-1.6098,-1.752,-1.9484,-2.0881,-2.2407,-2.3919,-2.5336,-2.6385,-2.6894,-2.6484,-2.7441,-2.8301,-2.8301,-3.0117,-3.168,-3.2109,-3.2519,-3.2949,-3.3359,-3.3418,-3.3418,-3.3418,-3.3809,-3.4062,-3.4062,-3.4453,-3.4687,0.0,-3.5137,-3.5391,-3.5391,-3.5801,-3.6016,-3.6016,-3.6016,-3.6016,-3.6016,-3.6016,-3.6016,-3.6016,-3.6016,-3.6016,-3.6016,-3.6016,-3.6016,-3.6016,-3.6016,-3.6016,-3.6113,-3.6953,-3.7285,-3.7402,-3.8262,-3.8574,-3.8574,-3.8574,-3.8574,-3.8574,-3.8574,-3.8574,-3.8652,-3.9082,-3.9531,-3.998,-4.041,-4.084,-4.1172,-4.1172,-4.1172,-4.1172,-4.1172,-4.1172,-4.1172,-4.1172,-4.1172,-4.1172,-4.1172,-4.1172,-4.1172,-4.1172,-4.1172,-4.1172,-4.1172,-4.1172,-4.1172,-4.1172,-4.1172,-4.1172,-4.1172,-4.1172,-4.1172,-4.1172,-4.1172,-4.1172,-4.1172,-4.1172,-4.1172,-4.1172,-4.1172,-4.1172,-4.1172,-4.1172,-4.1172,-4.1172,-4.1172,-4.1172,-4.1191,-4.1601,-4.2031,-1.3918,-1.4878,-1.6552,-1.7212,-1.8545,-2.0091,-2.1594,-2.3112,-2.4804,-2.7036,-2.7723,-2.7793,-2.7415,-2.8086,-2.873,-2.873,-3.0293,-3.1562,-3.1699,-3.2344,-3.2832,-3.2969,-3.3242,-3.3418,-3.3418,-3.3535,-3.3613,-3.3613,-3.4023,0.0,0.0,-3.4668,-3.5059,-3.5391,-3.5508,-3.5723,-3.6016,-3.6016,-3.6016,-3.6016,-3.6016,-3.6016,-3.6016,-3.6016,-3.6016,-3.6016,-3.6016,-3.6016,-3.6016,-3.6016,-3.6016,-3.6074,-3.6641,-3.7031,-3.7363,-3.791,-3.8301,-3.8574,-3.8574,-3.8574,-3.8574,-3.8574,-3.8574,-3.8652,-3.9082,-3.9531,-3.998,-4.041,-4.084,-4.1172,-4.1172,-4.1172,-4.1172,-4.1172,-4.1172,-4.1172,-4.1172,-4.1172,-4.1172,-4.1172,-4.1172,-4.1172,-4.1172,-4.1172,-4.1172,-4.1172,-4.1172,-4.1172,-4.1172,-3.9864,-3.8882,-3.8882,-3.8882,-3.8882,-3.8882,-4.0275,-4.1172,-4.1172,-4.1172,-4.1172,-4.1172,-4.1172,-4.1172,-4.1172,-4.1172,-4.1172,-4.1172,-4.1172,-4.1172,-4.1191,-4.1914,-4.2305,-1.4774,-1.5669,-1.7236,-1.8334,-1.9542,-2.1174,-2.3822,-2.4947,-2.5927,-2.7878,-2.8301,-2.8164,-2.7754,-2.8359,0.0,-2.8926,-3.0234,-3.1328,-3.1504,-3.1973,-3.2402,-3.2754,-3.3008,-3.3242,-3.3398,-3.3418,-3.3418,-3.3418,0.0,0.0,0.0,-3.4219,-3.459,-3.4863,-3.5215,-3.5508,-3.5762,-3.5937,-3.6016,-3.6016,-3.6016,-3.6016,-3.6016,-3.6016,-3.6016,-3.6016,-3.6016,-3.6016,-3.6016,-3.6016,-3.6016,-3.6055,-3.6504,-3.6816,-3.7129,-3.7715,-3.8086,-3.834,-3.8516,-3.8574,-3.8574,-3.8574,-3.8574,-3.8613,-3.8887,-3.9258,-3.9707,-4.0156,-4.0586,-4.0957,-4.1133,-4.1172,-4.1172,-4.1172,-4.1172,-4.1172,-4.1172,-4.1172,-4.1172,-4.1172,-4.1172,-4.1172,-4.1172,-4.1172,-4.1172,-4.1172,-4.0431,-3.961,-3.8724,-3.7419,-3.6602,-3.6602,-3.6602,-3.7002,-3.7816,-3.9119,-4.0275,-4.1172,-4.1172,-4.1172,-4.1172,-4.1172,-4.1172,-4.1172,-4.1172,-4.1172,-4.1172,-4.1172,-4.125,-4.1445,-4.2109,-4.2519,-1.5598,-1.6832,-1.8512,-1.9303,-2.0548,-2.2515,-2.6418,-2.6952,-2.6958,-2.8091,-2.832,-2.8223,-2.7865,-2.8418,-2.8984,-2.8984,-3.0059,-3.1016,-3.1406,-3.1504,-3.1797,-3.2578,-3.2715,-3.291,-3.332,-3.3359,-3.3379,0.0,0.0,0.0,-3.3418,-3.3789,-3.4023,-3.4082,-3.4863,-3.5293,-3.5332,-3.5742,-3.5957,-3.5957,-3.5996,-3.6016,-3.6016,-3.6016,-3.6016,-3.6016,-3.6016,-3.6016,-3.6016,-3.6016,-3.6016,-3.6055,-3.6465,-3.6641,-3.6758,-3.7578,-3.7891,-3.7988,-3.8418,-3.8574,-3.8574,-3.8574,-3.8574,-3.8574,-3.8574,-3.8867,-3.9297,-3.9766,-4.0195,-4.0625,-4.1055,-4.1172,-4.1172,-4.1172,-4.1172,-4.1172,-4.1172,-4.1172,-4.1172,-4.1172,-4.1172,-4.1172,-4.1172,-4.1172,-4.1094,-4.0919,-3.9198,-3.7082,-3.4975,-3.4489,-3.4408,-3.4408,-3.4408,-3.5298,-3.7419,-3.7816,-3.8882,-4.1094,-4.1172,-4.1172,-4.1172,-4.1172,-4.1172,-4.1172,-4.1172,-4.1172,-4.1172,-4.1172,-4.1387,-4.1816,-4.2226,-4.2656,-1.5071,-1.6992,-1.9372,-1.9596,-2.1065,-2.2761,-2.4025,-2.5286,-2.6609,-2.8033,-2.8555,-2.8652,-2.8242,-2.8848,-2.9434,-2.9434,-3.0254,-3.0918,-3.1016,-3.1309,-3.1582,-3.1777,-3.209,-3.248,-3.2891,-3.293,0.0,0.0,0.0,0.0,-3.3418,-3.3516,-3.3711,-3.4062,-3.4258,-3.4512,-3.4844,-3.5293,-3.5527,0.0,-3.5859,-3.6016,-3.6016,-3.6016,-3.6016,-3.6016,-3.6016,-3.6016,-3.6016,-3.6016,-3.6016,-3.6035,-3.6113,-3.6367,-3.6738,-3.7246,-3.7637,-3.7988,-3.8418,-3.8574,-3.8574,-3.8574,-3.8574,-3.8574,-3.8574,-3.8867,-3.9297,-3.9766,-4.0195,-4.0625,-4.1055,-4.1172,-4.1172,-4.1172,-4.1172,-4.1172,-4.1172,-4.1172,-4.1172,-4.1172,-4.1172,-4.1172,-4.1172,-4.1172,-4.0607,-3.8882,-3.8213,-3.7082,-3.4975,-3.3186,-3.2134,-3.2134,-3.2134,-3.3022,-3.5218,-3.6922,-3.8882,-4.1094,-4.1172,-4.1172,-4.1172,-4.1172,-4.1172,-4.1172,-4.1172,-4.1172,-4.1172,-4.1172,-4.1387,-4.1816,-4.2226,-4.2656,-1.5206,-1.6865,-1.8828,-1.9746,-2.1358,-2.2848,-2.3319,-2.478,-2.6318,-2.7114,-2.7953,-2.8555,-2.834,-2.8828,-2.9336,-2.9531,-3.0117,-3.0644,-3.0859,-3.1074,-3.1289,-3.1504,-3.1719,-3.2031,-3.2461,-3.2676,0.0,0.0,0.0,-3.3418,-3.3418,-3.3418,-3.3535,-3.375,-3.3965,-3.418,-3.4394,-3.4844,-3.5176,-3.5391,-3.5605,-3.582,-3.6016,-3.6016,-3.6016,-3.6016,-3.6016,-3.6016,-3.6016,-3.6016,-3.6016,-3.6016,-3.6016,-3.6152,-3.6445,-3.707,-3.7441,-3.7715,-3.8359,-3.8574,-3.8574,-3.8574,-3.8574,-3.8574,-3.8574,-3.873,-3.8984,-3.9434,-3.9883,-4.0312,-4.0742,-4.1016,-4.1172,-4.1172,-4.1172,-4.0919,-3.9864,-4.0431,-4.0919,-3.9864,-4.0509,-4.1172,-4.1172,-4.1172,-4.0099,-3.6842,-3.6362,-3.5218,-3.197,-3.0592,-2.9857,-2.9857,-2.9857,-3.1159,-3.4408,-3.5719,-3.7737,-4.1016,-4.1172,-4.1172,-4.1172,-4.1172,-4.1172,-4.1172,-4.1172,-4.1172,-4.1172,-4.1172,-4.1484,-4.2109,-4.2324,-4.2773,-1.5033,-1.6286,-1.7802,-2.0323,-2.1803,-2.2765,-2.3249,-2.4946,-2.6299,-2.6136,-2.7276,-2.8301,-2.8301,-2.8633,-2.9043,-2.9394,-2.9883,-3.0332,-3.0723,-3.084,-3.1016,-3.1367,-3.1406,-3.1582,-3.2012,0.0,0.0,0.0,0.0,-3.332,-3.332,-3.3379,-3.3418,-3.3418,-3.3769,-3.3965,-3.3965,-3.4375,-3.4785,-3.5176,-3.5312,-3.5605,-3.6016,-3.6016,-3.6016,-3.6016,-3.6016,-3.6016,-3.6016,-3.6016,-3.6016,-3.6016,-3.6016,-3.6016,-3.6113,-3.6894,-3.7226,-3.7402,-3.8184,-3.8516,-3.8574,-3.8574,-3.8574,-3.8574,-3.8574,-3.8574,-3.8652,-3.9082,-3.9531,-4.0,-4.041,-4.084,-4.1094,-4.0685,-4.0607,-4.0099,-3.831,-3.9374,-4.0099,-3.8231,-3.9688,-4.1172,-4.1172,-4.0841,-3.9295,-3.5298,-3.4327,-3.271,-2.8712,-2.8221,-2.8221,-2.8221,-2.8221,-2.9941,-3.4327,-3.4732,-3.6522,-4.0919,-4.1172,-4.1172,-4.1172,-4.1172,-4.1172,-4.1172,-4.1172,-4.1172,-4.1172,-4.1172,-4.1601,-4.2422,-4.2422,-4.2891,-1.3037,-1.4593,-1.7213,-2.235,-2.2963,-2.2521,-2.3091,-2.5469,-2.7232,-2.6299,-2.7276,-2.8301,-2.8301,-2.8633,-2.8945,-2.9004,-2.9668,-3.0215,-3.0273,-3.0644,-3.0918,-3.0976,-3.0976,-3.1133,0.0,0.0,0.0,0.0,-3.2637,-3.2871,-3.2871,-3.3223,-3.3418,-3.3418,-3.3476,-3.3516,-3.3516,-3.3945,-3.418,-3.4258,-3.5019,-3.5605,-3.6016,-3.6016,-3.6016,-3.6016,-3.6016,-3.6016,-3.6016,-3.6016,-3.6016,-3.6016,-3.6016,-3.6016,-3.6074,-3.6582,-3.6992,-3.7363,-3.7851,-3.8262,-3.8574,-3.8574,-3.8574,-3.8574,-3.8574,-3.8574,-3.8652,-3.9082,-3.9531,-4.0,-4.041,-4.084,-4.0685,-3.8803,-3.831,-3.8231,-3.7975,-3.8134,-3.8231,-3.7975,-3.9688,-4.1172,-4.1172,-3.961,-3.7498,-3.5056,-3.3104,-3.0993,-2.8558,-2.8221,-2.8221,-2.8221,-2.8221,-2.9941,-3.4327,-3.4732,-3.6522,-4.0919,-4.1172,-4.1172,-4.1172,-4.1172,-4.1172,-4.1172,-4.1172,-4.1172,-4.1172,-4.1172,-4.1601,-4.2422,-4.2422,-4.2891,-1.3601,-1.5462,-1.7552,-1.9872,-2.133,-2.1832,-2.0602,-2.3274,-2.5724,-2.4435,-2.6217,-2.8008,-2.8242,-2.8437,-2.8652,-2.8887,-2.9238,-2.9648,-3.0137,-3.0371,-3.0605,-3.0859,-3.0898,0.0,0.0,0.0,0.0,0.0,-3.2207,-3.2539,-3.2793,-3.2969,-3.3184,-3.3418,-3.3418,-3.3418,-3.3418,-3.3613,-3.3828,-3.4082,-3.4961,-3.5488,-3.5684,-3.5918,-3.6016,-3.6016,-3.6016,-3.6016,-3.6016,-3.6016,-3.6016,-3.6016,-3.6016,-3.6016,-3.6074,-3.6504,-3.6934,-3.7363,-3.7773,-3.8203,-3.8574,-3.8574,-3.8574,-3.8574,-3.8574,-3.8574,-3.8613,-3.8789,-3.9355,-3.9941,-4.0117,-4.0664,-4.0685,-3.8469,-3.7002,-3.5782,-3.457,-3.5218,-3.6121,-3.6121,-3.7816,-3.8961,-3.7737,-3.6762,-3.5379,-3.3186,-3.2052,-3.0578,-2.8473,-2.8221,-2.8221,-2.8221,-2.8221,-2.9941,-3.4327,-3.4732,-3.6522,-4.0919,-4.1172,-4.1172,-4.1172,-4.1172,-4.1172,-4.1172,-4.1172,-4.1172,-4.1172,-4.1172,-4.1601,-4.2422,-4.2422,-4.2891,-1.4352,-1.5934,-1.7033,-1.7946,-1.9816,-2.0836,-1.8851,-2.1671,-2.4313,0.0,-2.5283,-2.7637,-2.8047,-2.8223,-2.8398,-2.8711,-2.8848,-2.9141,-2.9785,-3.0059,-3.0332,-3.0664,-3.082,0.0,0.0,0.0,0.0,0.0,-3.1758,-3.2187,-3.2617,-3.2734,-3.2988,-3.3418,-3.3418,-3.3418,-3.3418,-3.3418,-3.3633,-3.4082,-3.4844,-3.5273,-3.541,-3.582,-3.6016,-3.6016,-3.6016,-3.6016,-3.6016,-3.6016,-3.6016,-3.6016,-3.6016,-3.6016,-3.6055,-3.6387,-3.6836,-3.7344,-3.7656,-3.8125,-3.8574,-3.8574,-3.8574,-3.8574,-3.8574,-3.8574,-3.8574,-3.8574,-3.9219,-3.9902,-3.9902,-4.0527,-4.0509,-3.7737,-3.5863,-3.4083,-3.1887,-3.2694,-3.4002,-3.457,-3.5943,-3.6602,-3.4975,-3.4246,-3.3267,-3.164,-3.091,-3.0176,-2.9118,-2.8558,-2.8389,-2.8964,-2.9048,-3.0592,-3.4408,-3.5218,-3.7179,-4.0919,-4.1172,-4.1172,-4.1172,-4.1172,-4.1172,-4.1172,-4.1172,-4.1172,-4.1172,-4.1289,-4.1699,-4.2422,-4.2539,-4.2988,-1.4351,-1.4525,-1.4797,-1.8791,-1.9541,-1.9385,-1.9479,-2.2008,-2.4045,-2.2931,-2.4995,-2.7187,-2.7669,-2.8027,-2.8301,-2.832,-2.8652,-2.8945,-2.8984,-2.9687,-3.0215,-3.0234,0.0,0.0,0.0,0.0,0.0,0.0,-3.1309,-3.1738,-3.2187,-3.2578,-3.2988,-3.3418,-3.3418,-3.3418,-3.3418,-3.3418,-3.3633,-3.4082,-3.4531,-3.4961,-3.541,-3.582,-3.6016,-3.6016,-3.6016,-3.6016,-3.6016,-3.6016,-3.6016,-3.6016,-3.6016,-3.6016,-3.6016,-3.6035,-3.6582,-3.7305,-3.7324,-3.7871,-3.8574,-3.8574,-3.8574,-3.8574,-3.8574,-3.8574,-3.8574,-3.8574,-3.9219,-3.9902,-3.9902,-4.0527,-4.0099,-3.588,-3.4813,-3.4083,-3.1887,-3.1475,-3.2217,-3.4246,-3.4813,-3.4813,-3.4732,-3.294,-3.1557,-3.1392,-2.969,-2.9048,-3.0993,-2.9453,-2.8964,-3.0993,-3.1241,-3.2134,-3.4489,-3.6522,-3.8724,-4.1094,-4.1172,-4.1172,-4.1172,-4.1172,-4.1172,-4.1172,-4.1172,-4.1172,-4.1172,-4.1562,-4.1992,-4.2441,-4.2851,-4.3281,-1.2663,-1.3361,-1.4103,-1.6226,-1.7578,-1.826,-1.7845,-2.0798,-2.3331,-2.2281,-2.4485,-2.666,-2.6816,-2.7422,-2.7988,-2.8242,-2.8418,-2.8613,-2.8887,-2.918,-2.957,-3.0137,0.0,0.0,0.0,0.0,0.0,0.0,0.0,-3.1309,-3.1719,-3.2148,-3.2578,-3.3008,-3.3281,-3.3418,-3.3418,-3.3418,-3.3496,-3.3652,-3.4082,-3.4531,-3.4961,-3.541,-3.5762,-3.6016,-3.6016,-3.6016,-3.6016,-3.6016,-3.6016,-3.6016,-3.6016,-3.6016,-3.6016,-3.6016,-3.6562,-3.7305,-3.7305,-3.7851,-3.8574,-3.8574,-3.8574,-3.8574,-3.8574,-3.8574,-3.8574,-3.8574,-3.9219,-3.9902,-3.9902,-3.9471,-3.7975,-3.3594,-3.1572,-3.0343,-2.9523,-3.0426,-3.1241,-3.0676,-3.164,-3.2134,-3.0759,-2.9857,-2.937,-2.937,-2.8712,-2.8473,-2.9286,-2.8712,-2.9034,-3.1159,-3.1392,-3.2858,-3.6442,-3.7498,-3.8882,-4.1094,-4.1172,-4.1172,-4.1172,-4.1172,-4.1172,-4.1172,-4.1172,-4.1172,-4.1172,-4.1601,-4.2012,-4.2441,-4.2871,-4.3301,-1.1363,-1.2291,-1.336,-1.4295,-1.5581,-1.6639,-1.667,-1.9599,-2.2197,-2.1779,-2.4049,-2.6211,-2.6367,-2.6855,-2.7474,-2.7988,-2.8203,-2.8398,-2.8672,-2.8391,-2.8384,0.0,0.0,0.0,0.0,0.0,0.0,0.0,0.0,0.0,-3.1504,-3.1797,-3.2207,-3.2773,-3.3203,-3.3418,-3.3418,-3.3418,-3.3418,-3.3437,-3.3867,-3.4297,-3.4726,-3.5176,-3.5625,-3.6016,-3.6016,-3.6016,-3.6016,-3.6016,-3.6016,-3.6016,-3.6016,-3.6016,-3.6016,-3.6016,-3.6484,-3.7109,-3.7246,-3.7754,-3.8379,-3.8535,-3.8574,-3.8574,-3.8574,-3.8574,-3.8574,-3.8574,-3.9219,-3.9902,-3.9902,-3.835,-3.5863,-3.2299,-2.9774,-2.8221,-2.8221,-2.9286,-2.9941,-2.8473,-2.937,-2.9857,-2.8473,-2.8221,-2.8221,-2.8221,-2.8221,-2.8473,-2.9202,-2.8628,-2.9034,-3.1159,-3.1392,-3.2858,-3.6522,-3.7498,-3.8882,-4.1094,-4.1172,-4.1172,-4.1172,-4.1172,-4.1172,-4.1172,-4.1172,-4.1172,-4.1172,-4.1601,-4.2012,-4.2441,-4.2871,-4.3301,0.0,0.0,0.0,-1.3333,-1.3814,-1.4482,-1.6219,0.0,-2.0445,-2.1462,-2.3746,-2.5771,-2.6289,-2.6387,-2.666,-2.7552,-2.7988,-2.8281,-2.8208,-2.7342,-2.6641,0.0,0.0,0.0,0.0,0.0,0.0,0.0,-3.0898,-3.1074,-3.1484,-3.1504,-3.1914,-3.2773,-3.3184,-3.3418,-3.3418,-3.3418,-3.3418,-3.3437,-3.3848,-3.4277,-3.4726,-3.5176,-3.5605,-3.6016,-3.6016,-3.6016,-3.6016,-3.6016,-3.6016,-3.6016,-3.6016,-3.6016,-3.6016,-3.6016,-3.6289,-3.6738,-3.7148,-3.7578,-3.7988,-3.8437,-3.8574,-3.8574,-3.8574,-3.8574,-3.8574,-3.8574,-3.9219,-3.9902,-3.9771,-3.718,-3.4083,-3.1805,-2.969,-2.8221,-2.8221,-2.8221,-2.8221,-2.8221,-2.8221,-2.8221,-2.8221,-2.8221,-2.8221,-2.8221,-2.8221,-2.8964,-3.1076,-2.9453,-2.9034,-3.1159,-3.1392,-3.2299,-3.457,-3.6682,-3.8882,-4.1094,-4.1172,-4.1172,-4.1172,-4.1172,-4.1172,-4.1172,-4.1172,-4.1172,-4.1172,-4.1601,-4.2031,-4.2441,-4.2891,-4.332,-1.0586,0.0,0.0,0.0,0.0,0.0,0.0,0.0,-1.7914,-2.0235,-2.2073,-2.3834,-2.5577,-2.6172,-2.6465,-2.6699,-2.7363,-2.7497,-2.6379,-2.6245,0.0,0.0,0.0,0.0,0.0,0.0,0.0,0.0,-3.0898,-3.0937,-3.1055,-3.1348,-3.1914,-3.2773,-3.291,-3.3105,-3.3418,-3.3418,-3.3418,-3.3418,-3.3535,-3.3984,-3.4707,-3.4824,-3.5312,-3.6016,-3.6016,-3.6016,-3.6016,-3.6016,-3.6016,-3.6016,-3.6016,-3.6016,-3.6016,-3.6016,-3.6289,-3.6738,-3.7148,-3.7578,-3.7988,-3.8437,-3.8574,-3.8574,-3.8574,-3.8574,-3.8574,-3.8574,-3.9219,-3.9318,-3.6798,-3.426,-3.1805,-2.9607,-2.8628,-2.8221,-2.8221,-2.8221,-2.8221,-2.8221,-2.8221,-2.8221,-2.8221,-2.8221,-2.8221,-2.8221,-2.8221,-2.8389,-2.9048,-2.8558,-2.9034,-3.1159,-3.1392,-3.294,-3.6682,-3.7578,-3.8882,-4.1094,-4.1172,-4.1172,-4.1172,-4.1172,-4.1172,-4.1172,-4.1172,-4.1172,-4.1172,-4.1894,-4.2305,-4.2441,-4.3183,-4.3594,-1.0693,0.0,0.0,0.0,0.0,0.0,-1.3959,-1.5187,-1.6656,0.0,-2.1031,-2.263,-2.3657,-2.4454,-2.4876,-2.4477,-2.4996,-2.5423,-2.5396,-2.5233,0.0,0.0,0.0,0.0,0.0,-2.8228,-2.9661,-3.0528,-3.0781,-3.0898,-3.0898,-3.1289,-3.1738,-3.2246,-3.2617,-3.291,-3.3164,-3.334,-3.3418,-3.3418,-3.3418,-3.3867,-3.4707,-3.4707,-3.5176,-3.6016,-3.6016,-3.6016,-3.6016,-3.6016,-3.6016,-3.6016,-3.6016,-3.6016,-3.6016,-3.6016,-3.6172,-3.6484,-3.709,-3.7461,-3.7754,-3.8379,-3.8574,-3.8574,-3.8574,-3.8574,-3.8574,-3.8574,-3.8586,-3.7942,-3.5354,-3.3022,-3.0827,-2.8712,-2.8221,-2.8221,-2.8221,-2.8221,-2.8221,-2.8221,-2.8221,-2.8221,-2.8221,-2.8221,-2.8221,-2.8221,-2.8221,-2.8221,-2.8221,-2.8221,-2.8712,-2.9941,-3.0093,-3.1805,-3.6201,-3.6522,-3.7896,-4.1016,-4.0353,-3.9786,-3.9786,-3.9786,-3.9786,-3.9786,-4.0763,-4.1348,-4.1699,-4.2012,-4.2344,-4.2715,-4.3398,-4.3711,-1.1042,-1.1404,0.0,0.0,0.0,0.0,-1.4442,-1.5162,-1.5944,0.0,-2.0062,-2.156,-2.125,-2.218,-2.2708,-2.1811,-2.213,-2.3064,-2.4774,-2.4166,0.0,0.0,0.0,0.0,-2.4367,-2.6526,-2.8512,-3.0062,-3.0625,-3.0898,-3.0898,-3.125,-3.1465,-3.1523,-3.2305,-3.2754,-3.2793,-3.3203,-3.3418,-3.3418,-3.3418,-3.3848,-3.4629,-3.4668,-3.5156,-3.5957,-3.5996,-3.6016,-3.6016,-3.6016,-3.6016,-3.6016,-3.6016,-3.6016,-3.6016,-3.6016,-3.6016,-3.6133,-3.6992,-3.7305,-3.7441,-3.8301,-3.8574,-3.8574,-3.8574,-3.8574,-3.8594,-3.8633,-3.7521,-3.6015,-3.4903,-3.2843,-3.0592,-2.8628,-2.8221,-2.8221,-2.8221,-2.8221,-2.8221,-2.8221,-2.8221,-2.8221,-2.8221,-2.8221,-2.8221,-2.8221,-2.8221,-2.8221,-2.8221,-2.8221,-2.8221,-2.8221,-2.8389,-3.0176,-3.4327,-3.4894,-3.6682,-4.0607,-3.8961,-3.7816,-3.7578,-3.7578,-3.7578,-3.7578,-3.9745,-4.1385,-4.2422,-4.2051,-4.2305,-4.3164,-4.3535,-4.3711,-1.2342,-1.2476,-1.2583,-1.2462,0.0,0.0,-1.2268,-1.2798,-1.3822,0.0,-1.7066,-1.87,-2.0729,-2.2225,-2.282,-2.1725,-2.2588,-2.3248,-2.2822,-2.2116,0.0,0.0,0.0,0.0,-2.4334,-2.5996,-2.7844,-3.0023,-3.0625,-3.0898,-3.0898,-3.0976,-3.1172,-3.1504,-3.2012,-3.2461,-3.2793,-3.3203,-3.3418,-3.3418,-3.3418,-3.3691,-3.4199,-3.4551,-3.5,-3.5527,-3.5879,-3.6016,-3.6016,-3.6016,-3.6016,-3.6016,-3.6016,-3.6016,-3.6016,-3.6016,-3.6016,-3.6133,-3.6992,-3.7305,-3.7441,-3.8301,-3.8574,-3.8574,-3.8574,-3.8574,-3.8652,-3.8984,-3.6649,-3.4071,-3.4107,-3.1526,-2.8712,-2.8305,-2.8221,-2.8221,-2.8221,-2.8221,-2.8221,-2.8221,-2.8221,-2.8221,-2.8221,-2.8221,-2.8221,-2.8221,-2.8221,-2.8221,-2.8221,-2.8221,-2.8221,-2.8221,-2.9774,-3.1805,-3.4489,-3.6281,-3.7657,-3.8469,-3.8134,-3.7162,-3.5379,-3.5298,-3.5298,-3.5298,-3.7802,-4.0165,-4.2422,-4.2344,-4.2734,-4.3574,-4.3672,-4.3711,-1.2612,-1.2663,-1.2824,-1.2933,0.0,0.0,0.0,0.0,-1.3002,-1.4536,-1.5467,-1.6613,-1.8407,0.0,-1.9523,-1.9426,-1.9733,-2.0095,-2.0358,0.0,0.0,0.0,0.0,0.0,-2.371,-2.4957,-2.687,-2.9946,-3.041,-3.0644,-3.0879,-3.0898,-3.0996,-3.1191,-3.1836,-3.2266,-3.248,-3.3105,-3.3418,-3.3418,-3.3418,-3.3652,-3.4082,-3.4512,-3.4961,-3.541,-3.584,-3.6016,-3.6016,-3.6016,-3.6016,-3.6016,-3.6016,-3.6016,-3.6016,-3.6016,-3.6016,-3.6133,-3.6992,-3.7305,-3.7441,-3.8301,-3.8574,-3.8574,-3.8574,-3.8574,-3.8652,-3.9082,-3.6254,-3.3273,-3.3895,-3.0951,-2.7963,-2.8194,-2.8221,-2.8221,-2.8221,-2.8221,-2.8221,-2.8221,-2.8221,-2.8221,-2.8221,-2.8221,-2.8221,-2.8221,-2.9118,-2.9453,-2.8305,-3.0107,-3.0592,-2.8473,-3.1076,-3.3512,-3.457,-3.5719,-3.6762,-3.7816,-3.5863,-3.4164,-3.3104,-3.3022,-3.3594,-3.4651,-3.7211,-3.9256,-4.0833,-4.2133,-4.3086,-4.3711,-4.3711,-4.3093,0.0,0.0,0.0,0.0,0.0,-1.3037,0.0,0.0,0.0,0.0,0.0,0.0,0.0,0.0,0.0,0.0,0.0,0.0,0.0,0.0,0.0,0.0,0.0,0.0,-2.344,-2.4599,-2.645,-2.9713,-2.9883,-3.0098,-3.0723,-3.0762,-3.0801,-3.0898,-3.1641,-3.209,-3.2229,-3.293,-3.334,-3.3418,-3.3418,-3.3613,-3.3965,-3.4473,-3.4902,-3.5293,-3.5801,-3.6016,-3.6016,-3.6016,-3.6016,-3.6016,-3.6016,-3.6016,-3.6016,-3.6016,-3.6016,-3.6133,-3.6992,-3.7305,-3.7441,-3.8301,-3.8574,-3.8574,-3.8574,-3.8574,-3.8652,-3.8984,-3.6132,-3.3027,-3.3684,-3.0787,-2.7776,-2.8154,-2.8221,-2.8221,-2.8221,-2.8221,-2.8221,-2.8221,-2.8221,-2.8221,-2.8221,-2.8221,-2.8221,-2.8221,-2.969,-3.0176,-2.8389,-3.1241,-3.2134,-2.8558,-3.2134,-3.4732,-3.4732,-3.5056,-3.588,-3.7162,-3.3594,-3.1241,-3.0827,-3.0744,-3.1805,-3.4002,-3.6225,-3.7929,-3.925,-4.1506,-4.2949,-4.3711,-4.3711,-4.2742,0.0,0.0,0.0,0.0,-1.4811,0.0,0.0,0.0,0.0,0.0,0.0,0.0,0.0,0.0,0.0,0.0,0.0,0.0,0.0,0.0,0.0,0.0,0.0,0.0,0.0,-2.6483,-2.7825,-2.8949,-2.8711,-2.9023,-3.0215,-3.0273,-3.0469,-3.0879,-3.1348,-3.1777,-3.2229,-3.2637,-3.3047,-3.3418,-3.3418,-3.3437,-3.3516,-3.4336,-3.4726,-3.4824,-3.5664,-3.6016,-3.6016,-3.6016,-3.6016,-3.6016,-3.6016,-3.6016,-3.6016,-3.6016,-3.6016,-3.6133,-3.6992,-3.7305,-3.7441,-3.8301,-3.8574,-3.8574,-3.8574,-3.8574,-3.8594,-3.8633,-3.584,-3.2977,-3.3372,-3.0623,-2.7776,-2.8154,-2.8221,-2.8221,-2.8221,-2.8221,-2.8221,-2.8221,-2.8221,-2.8221,-2.8221,-2.8221,-2.8221,-2.8221,-2.8389,-2.8473,-2.8221,-2.8628,-2.8712,-2.8221,-3.2134,-3.4732,-3.4732,-3.6442,-3.6842,-3.5137,-3.2776,-3.0592,-2.8628,-2.8558,-2.9621,-3.1722,-3.2693,-3.5206,-3.9232,-4.0159,-4.1667,-4.3711,-4.3711,-4.3526,0.0,0.0,0.0,0.0,0.0,0.0,-1.36,0.0,-1.2625,0.0,0.0,0.0,0.0,0.0,0.0,0.0,0.0,0.0,0.0,0.0,0.0,0.0,0.0,0.0,0.0,0.0,0.0,0.0,-2.8027,-2.8496,-2.9766,-3.0059,-3.041,-3.0879,-3.1309,-3.1719,-3.2229,-3.2578,-3.3008,-3.3418,-3.3418,-3.3418,-3.3457,-3.4316,-3.4707,-3.4746,-3.5644,-3.6016,-3.6016,-3.6016,-3.6016,-3.6016,-3.6016,-3.6016,-3.6016,-3.6016,-3.6016,-3.6133,-3.6992,-3.7305,-3.7441,-3.8301,-3.8574,-3.8574,-3.8574,-3.8574,-3.8574,-3.8574,-3.5734,-3.2775,-3.3273,-3.0445,-2.7562,-2.8114,-2.8221,-2.8221,-2.8221,-2.8221,-2.8221,-2.8221,-2.8221,-2.8221,-2.8221,-2.8221,-2.8221,-2.8221,-2.9286,-2.9607,-2.8389,-3.0426,-3.0993,-2.8473,-3.3186,-3.554,-3.3022,-3.4813,-3.5137,-3.294,-3.0744,-2.9118,-2.8221,-2.8221,-2.8628,-2.9537,-3.1487,-3.3414,-3.5322,-3.867,-4.0764,-4.1807,-4.3093,-4.301,-1.7683,0.0,0.0,0.0,0.0,0.0,0.0,0.0,0.0,0.0,0.0,0.0,0.0,0.0,0.0,0.0,0.0,0.0,0.0,0.0,0.0,0.0,0.0,0.0,0.0,0.0,0.0,0.0,0.0,-2.7669,-2.9141,-2.9629,-3.0117,-3.0684,-3.1113,-3.1601,-3.2168,-3.248,-3.2891,-3.3418,-3.3418,-3.3418,-3.3457,-3.4316,-3.4707,-3.4746,-3.5644,-3.6016,-3.6016,-3.6016,-3.6016,-3.6016,-3.6016,-3.6016,-3.6016,-3.6016,-3.5655,-3.5429,-3.6852,-3.7441,-3.7754,-3.8379,-3.819,-3.7731,-3.7731,-3.7731,-3.7731,-3.7731,-3.5235,-3.267,-3.324,-3.0355,-2.7415,-2.8087,-2.8221,-2.8221,-2.8221,-2.8221,-2.8221,-2.8221,-2.8221,-2.8221,-2.8221,-2.8221,-2.8221,-2.8221,-2.9537,-2.9941,-2.8389,-3.1008,-3.1737,-2.8558,-3.294,-3.4813,-3.164,-3.2858,-3.2858,-3.0676,-2.9048,-2.8221,-2.8221,-2.8221,-2.8221,-2.8221,-3.0397,-3.1825,-3.2494,-3.6467,-3.8715,-3.9395,-4.1723,-4.2243,0.0,0.0,0.0,-1.7671,0.0,0.0,0.0,0.0,-1.3186,0.0,0.0,0.0,0.0,0.0,0.0,0.0,0.0,0.0,0.0,0.0,0.0,0.0,0.0,0.0,0.0,0.0,0.0,0.0,-2.5644,-2.6123,-2.8223,-2.873,-2.9355,-3.0195,-3.0664,-3.1309,-3.2168,-3.2187,-3.2598,-3.3418,-3.3418,-3.3418,-3.3457,-3.4316,-3.4707,-3.4746,-3.5644,-3.6016,-3.6016,-3.6016,-3.6016,-3.6016,-3.6016,-3.6016,-3.6016,-3.6016,-3.4883,-3.3645,-3.6342,-3.7832,-3.8535,-3.8555,-3.7272,-3.5589,-3.5589,-3.5589,-3.5589,-3.5589,-3.4076,-3.267,-3.324,-3.0355,-2.7415,-2.8087,-2.8221,-2.8221,-2.8221,-2.8221,-2.8221,-2.8221,-2.8221,-2.8221,-2.8221,-2.8221,-2.8221,-2.8221,-2.8221,-2.8305,-2.8234,-2.8305,-2.8389,-2.8221,-3.026,-3.1557,-3.1392,-3.1475,-3.0592,-2.8473,-2.8221,-2.8221,-2.8221,-2.8221,-2.8221,-2.8221,-2.881,-3.0218,-3.2494,-3.324,-3.4766,-3.7003,-3.931,-4.1537,0.0,0.0,-2.2648,-1.9417,0.0,0.0,0.0,0.0,0.0,0.0,0.0,0.0,0.0,0.0,0.0,0.0,0.0,0.0,0.0,0.0,0.0,0.0,0.0,0.0,0.0,0.0,0.0,0.0,-2.5078,0.0,-2.7773,-2.8535,-2.9316,-3.0176,-3.0644,-3.1309,-3.2168,-3.2229,-3.2598,-3.3418,-3.3418,-3.3418,-3.3457,-3.4316,-3.4707,-3.4746,-3.5644,-3.6016,-3.6016,-3.6016,-3.6016,-3.6016,-3.6016,-3.6016,-3.6016,-3.6016,-3.5587,-3.5291,-3.6782,-3.7851,-3.8574,-3.8574,-3.7198,-3.5497,-3.5497,-3.5497,-3.5199,-3.385,-3.302,-3.2288,-3.1589,-2.9324,-2.7415,-2.8087,-2.8221,-2.8221,-2.8221,-2.8221,-2.8221,-2.8221,-2.8221,-2.8221,-2.8221,-2.8221,-2.8221,-2.8221,-2.8221,-2.8221,-2.8221,-2.8221,-2.8221,-2.8221,-3.0093,-3.0827,-2.937,-2.9286,-2.8964,-2.8221,-2.8221,-2.8221,-2.8221,-2.8221,-2.8221,-2.8221,-2.8738,-2.9379,-3.0218,-3.2383,-3.3819,-3.4591,-3.536,-3.7759,-2.373,-2.4278,0.0,-2.0989,-2.0525,0.0,-1.7678,0.0,0.0,0.0,0.0,0.0,0.0,0.0,0.0,0.0,0.0,0.0,0.0,0.0,0.0,0.0,0.0,0.0,0.0,0.0,-2.3066,-2.4121,-2.418,-2.498,0.0,0.0,-2.9023,-2.9726,-3.0488,-3.1309,-3.2168,-3.2229,-3.2598,-3.3418,-3.3418,-3.3496,-3.3672,-3.4375,-3.4785,-3.498,-3.5703,-3.6016,-3.6016,-3.6016,-3.6016,-3.6016,-3.6016,-3.6016,-3.6016,-3.6016,-3.6211,-3.6474,-3.6368,-3.733,-3.8501,-3.7731,-3.6127,-3.4301,-3.3532,-3.3305,-3.3079,-3.1727,-3.1437,-3.1443,-3.1431,-2.9405,-2.7661,-2.898,-2.8796,-2.8221,-2.8221,-2.8221,-2.8221,-2.8221,-2.8221,-2.8221,-2.8221,-2.8221,-2.8221,-2.8221,-2.8221,-2.8221,-2.8221,-2.8221,-2.8221,-2.8221,-2.9453,-2.969,-2.8305,-2.8221,-2.8221,-2.8221,-2.8221,-2.8221,-2.8221,-2.8221,-2.8221,-2.8221,-2.8738,-2.9045,-2.9045,-3.1095,-3.2174,-3.2174,-3.2174,-3.4242]},{"header":{"parameterUnit":"m.s-1","parameterCategory":1,"la1":30.6,"la2":29.2853,"lo1":-89.7004,"lo2":-87.6739,"dy":0.0162,"dx":0.0183,"nx":112,"ny":82,"refTime":"2026-03-30T12:00:00:Z","depth":0,"parameterNumber":3,"parameterNumberName":"V-component_of_WINDS"},"data":[0.0,0.0,0.0,0.0,0.0,0.0,0.0,0.0,0.0,0.0,0.0,0.0,0.0,0.0,0.0,0.0,0.0,0.0,0.0,0.0,0.0,0.0,0.0,0.0,0.0,0.0,0.0,0.0,0.0,0.0,0.0,0.0,0.0,0.0,0.0,0.0,0.0,0.0,0.0,0.0,0.0,0.0,0.0,0.0,0.0,0.0,0.0,0.0,0.0,0.0,0.0,0.0,0.0,0.0,0.0,0.0,0.0,0.0,0.0,0.0,0.0,0.0,0.0,0.0,0.0,0.0,0.0,0.0,0.0,0.0,0.0,0.0,0.0,0.0,0.0,0.0,0.0,0.0,0.0,0.0,0.0,0.0,0.0,0.0,0.0,0.0,0.0,0.0,0.0,0.0,0.0,4.1459,4.4215,4.579,4.558,4.5323,4.3279,3.8818,0.0,0.0,0.0,0.0,0.0,0.0,0.0,0.0,0.0,0.0,0.0,0.0,0.0,0.0,0.0,0.0,0.0,0.0,0.0,0.0,0.0,0.0,0.0,0.0,0.0,0.0,0.0,0.0,0.0,0.0,0.0,0.0,0.0,0.0,0.0,0.0,0.0,0.0,0.0,0.0,0.0,0.0,0.0,0.0,0.0,0.0,0.0,0.0,0.0,0.0,0.0,0.0,0.0,0.0,0.0,0.0,0.0,0.0,0.0,0.0,0.0,0.0,0.0,0.0,0.0,0.0,0.0,0.0,0.0,0.0,0.0,0.0,0.0,0.0,0.0,0.0,0.0,0.0,0.0,0.0,0.0,0.0,0.0,0.0,0.0,0.0,0.0,0.0,0.0,0.0,0.0,0.0,0.0,0.0,0.0,0.0,0.0,0.0,0.0,0.0,0.0,0.0,0.0,0.0,3.8095,4.3532,4.5602,4.6595,4.6454,4.5614,4.3557,3.9883,0.0,0.0,0.0,0.0,0.0,0.0,0.0,0.0,0.0,0.0,0.0,0.0,0.0,0.0,0.0,0.0,0.0,0.0,0.0,0.0,0.0,0.0,0.0,0.0,0.0,0.0,0.0,0.0,0.0,0.0,0.0,0.0,0.0,0.0,0.0,0.0,0.0,0.0,0.0,0.0,0.0,0.0,0.0,0.0,0.0,0.0,0.0,0.0,0.0,0.0,0.0,0.0,0.0,0.0,0.0,0.0,0.0,0.0,0.0,0.0,0.0,0.0,0.0,0.0,0.0,0.0,0.0,0.0,0.0,0.0,0.0,0.0,0.0,0.0,0.0,0.0,0.0,0.0,0.0,0.0,0.0,0.0,0.0,0.0,0.0,0.0,0.0,0.0,0.0,0.0,0.0,0.0,0.0,0.0,0.0,0.0,0.0,0.0,0.0,0.0,0.0,0.0,0.0,3.8159,4.1068,4.5872,4.6989,4.7238,4.6766,4.5814,4.367,3.9974,3.7286,0.0,0.0,0.0,0.0,0.0,0.0,0.0,0.0,0.0,0.0,0.0,0.0,0.0,0.0,0.0,0.0,0.0,0.0,0.0,0.0,0.0,0.0,0.0,0.0,0.0,0.0,0.0,0.0,0.0,0.0,0.0,0.0,0.0,0.0,0.0,0.0,0.0,0.0,0.0,0.0,0.0,0.0,0.0,0.0,0.0,0.0,0.0,0.0,0.0,0.0,0.0,0.0,0.0,0.0,0.0,0.0,0.0,0.0,0.0,0.0,0.0,0.0,0.0,0.0,0.0,0.0,0.0,0.0,0.0,0.0,0.0,0.0,0.0,0.0,0.0,0.0,0.0,0.0,0.0,0.0,0.0,0.0,0.0,0.0,0.0,0.0,0.0,0.0,0.0,0.0,0.0,0.0,0.0,0.0,0.0,0.0,0.0,0.0,0.0,0.0,0.0,0.0,4.2083,4.4316,4.7534,4.8071,4.78,4.6887,4.5774,4.3586,3.9948,3.6686,0.0,0.0,0.0,0.0,0.0,0.0,0.0,0.0,0.0,0.0,0.0,0.0,0.0,0.0,0.0,0.0,0.0,0.0,0.0,0.0,0.0,0.0,0.0,0.0,0.0,0.0,0.0,0.0,0.0,0.0,0.0,0.0,0.0,0.0,0.0,0.0,0.0,0.0,0.0,0.0,0.0,0.0,0.0,0.0,0.0,0.0,0.0,0.0,0.0,0.0,0.0,0.0,0.0,0.0,0.0,0.0,0.0,0.0,0.0,0.0,0.0,0.0,0.0,0.0,0.0,0.0,0.0,0.0,0.0,0.0,0.0,0.0,0.0,0.0,0.0,0.0,0.0,0.0,0.0,0.0,0.0,0.0,0.0,0.0,0.0,0.0,0.0,0.0,0.0,0.0,0.0,0.0,0.0,0.0,0.0,0.0,0.0,0.0,0.0,0.0,0.0,0.0,4.2861,4.6109,4.7703,4.8511,4.8342,4.6921,4.5329,4.3124,4.0256,3.5828,0.0,0.0,0.0,0.0,0.0,0.0,0.0,0.0,0.0,0.0,0.0,0.0,0.0,0.0,0.0,0.0,0.0,0.0,0.0,0.0,0.0,0.0,0.0,0.0,0.0,0.0,0.0,0.0,0.0,0.0,0.0,0.0,0.0,0.0,0.0,0.0,0.0,0.0,0.0,0.0,0.0,0.0,0.0,0.0,0.0,0.0,0.0,0.0,0.0,0.0,0.0,0.0,0.0,0.0,0.0,0.0,0.0,0.0,0.0,0.0,0.0,0.0,0.0,0.0,0.0,0.0,0.0,0.0,0.0,0.0,0.0,0.0,0.0,0.0,0.0,0.0,0.0,0.0,0.0,0.0,0.0,0.0,0.0,0.0,0.0,0.0,0.0,0.0,0.0,0.0,0.0,0.0,0.0,0.0,0.0,0.0,0.0,0.0,0.0,0.0,0.0,0.0,4.3098,4.594,0.0,4.8849,4.8612,4.7597,4.6837,4.4629,4.0366,0.0,0.0,0.0,0.0,0.0,0.0,0.0,0.0,0.0,0.0,0.0,0.0,0.0,0.0,0.0,0.0,0.0,0.0,0.0,0.0,0.0,0.0,0.0,0.0,0.0,0.0,0.0,0.0,0.0,0.0,0.0,0.0,0.0,0.0,0.0,0.0,0.0,0.0,0.0,0.0,0.0,0.0,0.0,0.0,0.0,0.0,0.0,0.0,0.0,0.0,0.0,0.0,0.0,0.0,0.0,0.0,0.0,0.0,0.0,0.0,0.0,0.0,0.0,0.0,0.0,0.0,0.0,0.0,0.0,0.0,0.0,0.0,0.0,0.0,0.0,0.0,0.0,0.0,0.0,0.0,0.0,0.0,0.0,0.0,0.0,0.0,0.0,0.0,0.0,0.0,0.0,0.0,0.0,0.0,0.0,0.0,0.0,0.0,0.0,0.0,0.0,0.0,4.0933,4.4147,4.6853,0.0,4.9357,4.8951,4.7973,4.7346,4.5087,4.0626,0.0,0.0,0.0,0.0,0.0,0.0,0.0,0.0,0.0,0.0,0.0,0.0,0.0,0.0,0.0,0.0,0.0,0.0,0.0,0.0,0.0,0.0,0.0,0.0,0.0,0.0,0.0,0.0,0.0,0.0,0.0,0.0,0.0,0.0,0.0,0.0,0.0,0.0,0.0,0.0,0.0,0.0,0.0,0.0,0.0,0.0,0.0,0.0,0.0,0.0,0.0,0.0,0.0,0.0,0.0,0.0,0.0,0.0,0.0,0.0,0.0,0.0,0.0,0.0,0.0,0.0,0.0,0.0,0.0,0.0,0.0,0.0,0.0,0.0,0.0,0.0,0.0,0.0,0.0,0.0,0.0,0.0,0.0,0.0,0.0,0.0,0.0,0.0,0.0,0.0,0.0,0.0,0.0,0.0,0.0,0.0,0.0,0.0,0.0,0.0,0.0,0.0,4.1813,4.6244,4.9289,5.0033,5.0101,4.9492,4.8041,4.6454,4.4196,0.0,0.0,0.0,0.0,0.0,0.0,0.0,0.0,0.0,0.0,0.0,0.0,0.0,0.0,0.0,0.0,0.0,0.0,0.0,0.0,0.0,0.0,0.0,0.0,0.0,0.0,0.0,0.0,0.0,0.0,0.0,0.0,0.0,0.0,0.0,0.0,0.0,0.0,0.0,0.0,0.0,0.0,0.0,0.0,0.0,0.0,0.0,0.0,0.0,0.0,0.0,0.0,0.0,0.0,0.0,0.0,0.0,0.0,0.0,0.0,0.0,0.0,0.0,0.0,0.0,0.0,0.0,0.0,0.0,0.0,0.0,0.0,0.0,0.0,0.0,0.0,0.0,0.0,0.0,0.0,0.0,0.0,0.0,0.0,0.0,0.0,0.0,0.0,0.0,0.0,0.0,0.0,0.0,0.0,0.0,0.0,0.0,0.0,0.0,0.0,0.0,0.0,0.0,4.2625,4.6989,5.0067,5.0811,5.0405,4.9898,4.9492,4.7997,4.5278,4.1043,0.0,0.0,0.0,0.0,0.0,0.0,0.0,0.0,0.0,0.0,0.0,0.0,0.0,0.0,0.0,0.0,0.0,0.0,0.0,0.0,0.0,0.0,0.0,0.0,0.0,0.0,0.0,0.0,0.0,0.0,0.0,0.0,0.0,0.0,0.0,0.0,0.0,0.0,0.0,0.0,0.0,0.0,0.0,0.0,0.0,0.0,0.0,0.0,0.0,0.0,0.0,0.0,0.0,0.0,0.0,0.0,0.0,0.0,0.0,0.0,0.0,0.0,0.0,0.0,0.0,0.0,0.0,0.0,0.0,0.0,0.0,0.0,0.0,0.0,0.0,0.0,0.0,0.0,0.0,0.0,0.0,0.0,0.0,0.0,0.0,0.0,0.0,0.0,0.0,0.0,0.0,0.0,0.0,0.0,0.0,0.0,0.0,0.0,0.0,0.0,0.0,0.0,4.3369,4.7767,5.0811,5.1555,5.1251,5.0744,5.0135,4.886,4.6185,4.1536,0.0,0.0,0.0,0.0,0.0,0.0,0.0,0.0,0.0,0.0,0.0,0.0,0.0,0.0,0.0,0.0,0.0,0.0,0.0,0.0,0.0,0.0,0.0,0.0,0.0,0.0,0.0,0.0,0.0,0.0,0.0,0.0,0.0,0.0,0.0,0.0,0.0,0.0,0.0,0.0,0.0,0.0,0.0,0.0,0.0,0.0,0.0,0.0,0.0,0.0,0.0,0.0,0.0,0.0,0.0,0.0,0.0,0.0,0.0,0.0,0.0,0.0,0.0,0.0,0.0,0.0,0.0,0.0,0.0,0.0,0.0,0.0,0.0,0.0,0.0,0.0,0.0,0.0,0.0,0.0,0.0,0.0,0.0,0.0,0.0,0.0,0.0,0.0,0.0,0.0,0.0,0.0,0.0,0.0,0.0,0.0,0.0,0.0,0.0,0.0,0.0,0.0,4.4242,4.8612,5.1623,5.2435,5.2469,5.1826,5.0405,4.9384,4.6934,4.2477,0.0,0.0,0.0,0.0,0.0,0.0,0.0,0.0,0.0,0.0,0.0,0.0,0.0,0.0,0.0,0.0,0.0,0.0,0.0,0.0,0.0,0.0,0.0,0.0,0.0,0.0,0.0,0.0,0.0,0.0,0.0,0.0,0.0,0.0,0.0,0.0,0.0,0.0,0.0,0.0,0.0,0.0,0.0,0.0,0.0,0.0,0.0,0.0,0.0,0.0,0.0,0.0,0.0,0.0,0.0,0.0,0.0,0.0,0.0,0.0,3.8762,0.0,0.0,0.0,0.0,0.0,0.0,0.0,0.0,0.0,0.0,0.0,0.0,0.0,0.0,0.0,0.0,0.0,0.0,0.0,0.0,0.0,0.0,0.0,0.0,0.0,0.0,0.0,0.0,0.0,0.0,0.0,0.0,0.0,0.0,0.0,0.0,0.0,0.0,0.0,0.0,0.0,4.5669,4.9695,5.2604,5.3957,5.3585,5.2875,5.1894,5.0088,4.7675,4.4672,4.0813,0.0,0.0,0.0,0.0,0.0,0.0,0.0,0.0,0.0,0.0,0.0,0.0,0.0,0.0,0.0,0.0,0.0,0.0,0.0,0.0,0.0,0.0,0.0,0.0,0.0,0.0,0.0,0.0,0.0,0.0,0.0,0.0,0.0,0.0,0.0,0.0,0.0,0.0,0.0,0.0,0.0,0.0,0.0,0.0,0.0,0.0,0.0,0.0,0.0,0.0,0.0,0.0,0.0,0.0,0.0,0.0,0.0,0.0,0.0,0.0,4.0687,0.0,0.0,0.0,0.0,0.0,0.0,0.0,0.0,0.0,0.0,0.0,0.0,0.0,0.0,0.0,0.0,0.0,0.0,0.0,0.0,0.0,0.0,0.0,0.0,0.0,0.0,0.0,0.0,0.0,0.0,0.0,0.0,0.0,0.0,0.0,0.0,0.0,0.0,0.0,0.0,4.6177,5.0371,5.345,5.4972,5.4465,5.3721,5.2942,5.115,4.8904,4.6169,4.2765,0.0,0.0,0.0,0.0,0.0,0.0,0.0,0.0,0.0,0.0,0.0,0.0,0.0,0.0,0.0,0.0,0.0,0.0,0.0,0.0,0.0,0.0,0.0,0.0,0.0,0.0,0.0,0.0,0.0,0.0,0.0,0.0,0.0,0.0,0.0,0.0,0.0,0.0,0.0,0.0,0.0,0.0,0.0,0.0,0.0,0.0,0.0,0.0,0.0,0.0,0.0,0.0,0.0,4.78,4.8917,5.0371,5.0236,5.0236,5.02,4.6896,4.5574,4.5608,4.3778,0.0,0.0,0.0,0.0,0.0,0.0,0.0,0.0,0.0,0.0,0.0,0.0,0.0,0.0,0.0,0.0,0.0,0.0,0.0,0.0,0.0,0.0,0.0,0.0,4.6616,4.6752,0.0,0.0,0.0,0.0,0.0,0.0,0.0,0.0,0.0,0.0,0.0,0.0,4.6786,5.1082,5.4262,5.575,5.5344,5.4668,5.3957,5.2503,5.0507,4.7902,4.5152,4.2544,0.0,0.0,0.0,0.0,0.0,0.0,0.0,0.0,0.0,0.0,0.0,0.0,0.0,0.0,0.0,0.0,0.0,0.0,0.0,0.0,0.0,0.0,0.0,0.0,0.0,0.0,0.0,0.0,0.0,0.0,0.0,0.0,3.4822,3.5126,0.0,0.0,0.0,0.0,0.0,0.0,0.0,0.0,0.0,0.0,0.0,0.0,0.0,4.5838,4.7936,4.9357,5.0845,5.2469,5.3213,5.4329,5.575,5.5108,5.5175,5.575,5.5211,0.0,4.7518,4.7213,0.0,0.0,0.0,0.0,0.0,0.0,0.0,0.0,0.0,0.0,0.0,0.0,0.0,0.0,0.0,0.0,0.0,0.0,0.0,0.0,0.0,0.0,5.1183,5.1995,5.2401,5.2232,0.0,4.6041,4.1068,3.7922,3.7381,0.0,0.0,0.0,0.0,0.0,0.0,0.0,4.9086,5.2469,5.5006,5.6494,5.6562,5.6224,5.548,5.4059,5.2739,5.1657,4.8267,4.5828,4.4857,4.1165,0.0,0.0,0.0,0.0,0.0,0.0,0.0,0.0,0.0,0.0,0.0,0.0,0.0,0.0,0.0,0.0,0.0,0.0,0.0,0.0,0.0,0.0,0.0,0.0,0.0,0.0,0.0,0.0,0.0,3.4607,3.6884,3.6884,3.7584,3.7472,0.0,0.0,0.0,0.0,0.0,0.0,0.0,0.0,0.0,4.8815,4.9255,5.0507,5.2739,5.3822,5.4905,5.5987,5.7137,5.8254,5.9336,5.9438,5.9641,5.9945,5.9945,5.7983,5.4566,5.2097,4.9965,4.8173,0.0,0.0,0.0,0.0,4.6887,4.7428,4.912,4.9424,4.8984,4.8477,0.0,0.0,0.0,0.0,0.0,0.0,0.0,0.0,0.0,0.0,5.3281,5.4465,5.5378,5.5649,5.4465,5.1928,4.8477,0.0,4.2557,4.117,3.7652,0.0,0.0,0.0,0.0,4.6786,5.0811,5.3957,5.6224,5.7306,5.7036,5.6664,5.6359,5.5344,5.4228,5.3044,5.1014,4.9187,4.7631,4.4646,4.2056,0.0,0.0,0.0,0.0,0.0,0.0,0.0,0.0,0.0,0.0,0.0,0.0,0.0,0.0,0.0,0.0,0.0,0.0,0.0,0.0,0.0,0.0,0.0,0.0,0.0,0.0,0.0,0.0,3.7483,3.9411,3.8802,4.0087,4.0189,0.0,0.0,0.0,0.0,0.0,0.0,4.7293,4.8274,5.0304,5.3619,5.3923,5.504,5.7137,5.7881,5.8592,5.9336,6.0452,6.14,6.2178,6.2719,6.2956,6.2956,6.2956,6.2313,6.0926,5.6664,5.4025,5.2503,5.1217,5.0405,5.0033,5.1116,5.1758,5.2401,5.4668,5.5074,5.4499,5.3754,5.2097,4.9864,4.6887,0.0,0.0,0.0,0.0,4.9424,5.2198,5.3923,5.5243,5.6528,5.7679,5.8152,5.707,5.6528,5.4668,0.0,4.7767,4.6143,4.2219,0.0,0.0,0.0,0.0,4.912,5.2469,5.5175,5.707,5.7814,5.7408,5.707,5.707,5.6427,5.5513,5.4431,5.3247,5.186,5.0236,4.8003,4.5771,4.3504,0.0,0.0,0.0,0.0,0.0,0.0,0.0,0.0,0.0,0.0,0.0,0.0,0.0,0.0,0.0,0.0,0.0,0.0,0.0,0.0,0.0,0.0,0.0,0.0,0.0,0.0,0.0,0.0,0.0,4.1305,4.4215,0.0,0.0,0.0,0.0,4.5263,4.7462,4.9661,5.186,5.3382,5.5243,5.7543,5.8321,5.9438,6.0994,6.1738,6.2482,6.3226,6.3294,6.3734,6.4444,6.4478,6.4478,6.4478,6.4478,6.4444,6.4072,6.0283,5.7848,5.6461,5.5683,5.5344,5.5309,5.5377,5.6292,5.7509,5.7679,5.7712,5.7881,5.9235,5.7239,5.416,5.3281,5.1488,0.0,0.0,5.3078,5.4702,5.6968,5.8152,5.893,5.9708,5.9945,5.9979,5.9877,5.8761,5.663,0.0,5.1995,5.1217,4.8917,0.0,4.8511,4.8612,4.9965,5.1826,5.416,5.5852,5.707,5.7814,5.7848,5.7814,5.7814,5.7171,5.6697,5.663,5.4634,5.3382,5.3281,5.1082,4.8815,4.6616,4.4749,0.0,0.0,0.0,0.0,0.0,0.0,0.0,0.0,0.0,0.0,0.0,0.0,0.0,0.0,0.0,0.0,0.0,0.0,0.0,0.0,0.0,0.0,0.0,0.0,0.0,0.0,0.0,0.0,4.4823,4.7665,0.0,4.6447,4.8003,4.9357,4.9898,5.2469,5.4769,5.6528,5.7577,5.9167,6.1434,6.1772,6.2415,6.3429,6.3666,6.3937,6.4208,6.4681,6.5053,6.5324,6.5797,6.6034,6.6034,6.6034,6.5764,6.5189,6.3869,6.2144,6.0385,6.0114,5.9708,5.937,5.9844,6.0655,6.1501,6.1501,6.1501,6.1366,6.0419,5.8254,5.6055,5.6258,5.5412,5.4735,5.619,5.7002,5.7712,5.8998,5.9911,6.0554,6.0825,6.1231,6.1434,6.096,6.0452,5.9539,5.7679,5.5412,5.3213,5.142,5.1116,5.1116,5.1116,5.2401,5.4025,5.5784,5.6867,5.7611,5.7848,5.7881,5.7881,5.7881,5.7645,5.7103,5.6156,5.5378,5.4262,5.2807,5.1488,4.9999,4.824,4.618,4.2921,0.0,0.0,0.0,0.0,0.0,0.0,0.0,0.0,0.0,0.0,0.0,0.0,0.0,0.0,0.0,0.0,0.0,0.0,0.0,0.0,0.0,0.0,0.0,0.0,0.0,0.0,4.7733,4.824,5.115,5.2435,5.0676,5.2536,5.4025,5.4532,5.69,5.8964,6.0452,6.1231,6.2313,6.3835,6.4106,6.4478,6.4952,6.5222,6.5358,6.5358,6.5831,6.6068,6.6102,6.6576,6.6812,6.6812,6.6812,6.6542,6.6068,6.6068,6.5222,6.3835,6.3328,6.2854,6.2482,6.2956,6.3599,6.4241,6.4241,6.4241,6.3971,6.2178,6.0452,5.9099,5.9336,5.9066,5.8829,5.9573,5.9979,6.025,6.0757,6.1264,6.167,6.167,6.2042,6.2245,6.1772,6.1467,6.1129,6.0622,5.8321,5.5953,5.4431,5.4194,5.4025,5.3518,5.4532,5.5683,5.6664,5.7442,5.7881,5.7881,5.7881,5.7881,5.7881,5.7679,5.7103,5.6156,5.5378,5.416,5.2367,5.1352,5.0135,4.868,4.621,4.3443,4.0468,0.0,0.0,0.0,0.0,0.0,0.0,0.0,0.0,0.0,0.0,0.0,0.0,0.0,0.0,0.0,0.0,0.0,0.0,0.0,0.0,0.0,0.0,0.0,4.5635,4.8984,5.1352,5.142,5.4668,5.6055,5.3923,5.5683,5.7577,5.9032,6.0554,6.2042,6.3497,6.4241,6.4647,6.4681,6.5358,6.573,6.573,6.644,6.6812,6.6812,6.6812,6.6812,6.6812,6.6812,6.6812,6.6812,6.6812,6.6812,6.6812,6.6812,6.6812,6.6677,6.5222,6.4681,6.4681,6.4681,6.5121,6.573,6.573,6.5696,6.5561,6.4884,6.414,6.3396,6.2685,6.2448,6.2313,6.1603,6.1907,6.2448,6.2448,6.2448,6.2448,6.2415,6.2415,6.2415,6.2381,6.1839,6.1332,6.1332,6.0689,5.9708,5.822,5.7949,5.7476,5.6055,5.6461,0.0,5.69,5.7509,5.7949,5.7915,5.7915,5.7915,5.7881,5.7205,5.6799,5.6731,5.4668,5.3112,5.2334,5.0845,4.939,4.7939,4.4998,4.2733,4.1305,0.0,0.0,0.0,0.0,0.0,0.0,0.0,0.0,0.0,0.0,0.0,0.0,0.0,0.0,0.0,0.0,0.0,0.0,0.0,0.0,0.0,4.5534,4.78,4.8748,5.1657,5.4262,5.5852,5.7915,5.8964,5.8355,5.9844,6.1028,6.1434,6.2854,6.4106,6.5019,6.529,6.5628,6.6203,6.6406,6.6508,6.6508,6.6711,6.6812,6.6812,6.6812,6.6812,6.6812,6.6812,6.6812,6.6812,6.6812,6.6812,6.6812,6.6812,6.6812,6.6779,6.6373,6.6203,6.6203,6.6203,6.6339,6.6508,6.6508,6.6136,6.5662,6.5459,6.4884,6.4275,6.4072,6.4005,6.3937,6.3768,6.3835,6.4005,6.4005,6.4005,6.3869,6.3328,6.3193,6.3057,6.2516,6.2245,6.211,6.211,6.1907,6.1264,5.9742,5.9505,5.937,5.8964,5.9066,0.0,5.9201,5.937,5.9302,5.8761,5.8693,5.849,5.7949,5.7205,5.6325,5.5277,5.3585,5.2536,5.23,5.0371,4.912,4.8714,4.6312,4.4587,0.0,0.0,0.0,0.0,0.0,0.0,0.0,0.0,0.0,0.0,0.0,0.0,0.0,0.0,0.0,0.0,0.0,0.0,0.0,0.0,0.0,0.0,4.9458,5.23,5.3653,5.5344,5.7273,5.9505,6.0825,6.1637,6.1975,6.2787,6.3429,6.3734,6.458,6.5392,6.6102,6.617,6.6373,6.6812,6.6812,6.6812,6.6812,6.6812,6.6812,6.6812,6.6812,6.6812,6.6812,6.6812,6.6812,6.6812,6.6812,6.6812,6.6812,6.6812,6.6812,0.0,0.0,0.0,0.0,0.0,6.6812,6.6812,6.6812,6.6542,6.617,6.617,6.5865,6.5459,6.5155,6.5053,6.4986,6.4681,6.4613,6.4613,6.4613,6.4613,6.441,6.37,6.3531,6.3294,6.255,6.2381,6.2381,6.2381,6.2381,0.0,6.1197,6.0791,6.0385,5.9742,5.9911,5.9979,5.9674,5.9911,5.9945,5.9505,5.9471,5.9302,5.8863,5.7848,0.0,0.0,0.0,5.2232,5.098,4.9086,0.0,0.0,0.0,0.0,0.0,0.0,0.0,0.0,4.435,4.4248,0.0,0.0,0.0,0.0,0.0,0.0,0.0,0.0,0.0,0.0,0.0,0.0,0.0,0.0,0.0,0.0,5.3145,5.6731,5.8964,5.9404,6.0283,6.2279,6.3193,6.3903,6.4546,6.4681,6.4986,6.5628,6.5764,6.6102,6.6779,0.0,0.0,0.0,0.0,6.6812,6.6812,6.6812,6.6812,6.6812,6.6812,6.6812,6.6812,6.6812,6.6812,6.6812,6.6812,6.6812,6.6812,6.6812,6.6812,6.6812,6.6812,6.6812,6.6812,6.6812,6.6812,6.6812,6.6812,0.0,0.0,6.6812,6.6812,6.6677,6.6,6.5797,6.5662,6.5019,6.485,6.4816,6.4749,6.4715,6.4512,6.37,6.3531,6.3294,6.255,6.2381,6.2381,6.2381,6.2381,6.2381,6.2381,6.1839,6.096,5.9607,5.9945,6.0114,5.9471,5.9945,6.0317,6.025,0.0,0.0,6.0114,5.8727,5.7577,5.6867,5.4803,5.2367,4.9492,4.8274,4.7936,4.8514,4.9898,5.0913,5.1589,5.3044,5.416,5.4803,4.8578,4.7868,0.0,0.0,0.0,0.0,0.0,0.0,0.0,0.0,0.0,0.0,0.0,0.0,0.0,0.0,0.0,5.2029,5.5344,5.8254,6.0554,6.1873,6.2821,6.326,6.3937,6.4444,6.458,6.5121,6.5527,6.5662,6.6237,6.6643,6.6812,6.6812,6.6812,6.6812,6.6812,6.6812,6.6812,6.6812,6.6812,6.6812,0.0,0.0,6.6812,6.6812,6.6812,6.6812,6.6812,6.6812,6.6812,6.6812,6.6812,6.6812,6.6812,6.6812,6.6812,6.6812,6.6812,6.6812,6.6812,6.6812,6.6812,6.6812,6.6812,6.6779,6.6643,6.6609,0.0,6.6406,6.6373,6.6237,6.5628,6.5493,6.5155,6.3835,6.3531,6.3294,6.255,6.2381,6.2381,6.2381,6.2381,6.2381,6.2381,6.2279,6.2076,6.1772,6.1839,6.1907,6.1738,6.1873,6.1738,6.1129,6.1061,6.0825,6.0148,5.8727,5.7577,5.6867,5.5277,5.3551,5.1758,5.257,5.2875,5.2435,5.3281,5.3788,5.3923,5.4837,5.5953,5.7171,5.4093,5.345,0.0,0.0,0.0,0.0,0.0,0.0,0.0,0.0,0.0,0.0,0.0,4.435,4.7361,0.0,5.2367,5.5716,5.8152,6.025,6.2144,6.3362,6.4072,6.4072,6.4715,6.529,6.5662,6.6034,6.6237,6.6237,6.6609,6.6812,6.6812,6.6812,6.6812,6.6812,6.6812,6.6812,6.6812,6.6812,6.6812,6.6812,6.6812,6.6812,6.6812,6.6812,6.6812,6.6812,6.6812,6.6812,6.6812,6.6812,6.6812,6.6812,6.6812,6.6812,6.6812,6.6812,6.6812,6.6812,6.6812,6.6812,6.6812,6.6812,6.6812,6.6745,6.6373,6.6237,6.617,6.5797,6.5696,6.5628,6.5256,6.5155,6.4884,6.3768,6.3531,6.3294,6.255,6.2381,6.2381,6.2381,6.2381,6.2381,6.2381,6.2381,6.2381,6.2381,6.2381,6.2381,6.2381,6.2381,6.2245,6.1873,6.1839,6.167,6.1298,5.9877,5.8693,5.7949,5.6528,5.5344,5.46,5.4938,5.5141,5.5141,5.5886,5.6427,5.6799,5.7543,5.849,5.9573,5.8829,5.8287,0.0,0.0,0.0,0.0,0.0,0.0,0.0,4.0764,4.2219,4.4485,4.6278,4.8376,5.1522,5.3822,5.6089,5.8795,6.052,6.1975,6.3328,6.4275,6.4816,6.4816,6.5459,6.6136,6.6745,6.6812,6.6812,6.6812,6.6812,6.6812,6.6812,6.6812,6.6812,6.6812,6.6812,6.6812,6.6812,6.6812,6.6812,6.6812,6.6812,6.6812,6.6812,6.6812,6.6812,6.6812,6.6812,6.6812,6.6812,6.6812,6.6812,6.6812,6.6812,6.6812,6.6812,6.6812,6.6812,6.6812,6.6812,6.6812,6.6812,6.6812,6.6812,6.6677,6.5899,6.5696,6.5527,6.4816,6.4613,6.458,6.441,6.4377,6.4208,6.3463,6.3294,6.3125,6.2516,6.2381,6.2381,6.2381,6.2381,6.2381,6.2381,6.2381,6.2381,6.2381,6.2381,6.2381,6.2381,6.2381,6.2381,6.2381,6.2381,6.2347,6.2178,6.1061,6.0013,5.9268,5.8118,5.7442,5.7442,5.6867,5.6833,5.7442,5.8186,5.8863,5.9471,6.0182,6.096,6.1738,6.2347,6.1941,4.2382,4.0041,3.8793,4.07,4.0514,4.1076,0.0,4.6891,4.7665,4.9866,5.2097,5.3923,5.5006,5.6494,5.8051,5.9708,6.1264,6.255,6.3396,6.4681,6.5561,6.5561,6.6237,6.6711,6.6812,6.6812,6.6812,6.6812,6.6812,6.6812,6.6812,6.6812,6.6812,6.6812,6.6812,6.6812,6.6812,6.6812,6.6812,6.6812,6.6812,6.6812,6.6812,6.6812,6.6812,6.6812,6.6812,6.6812,6.6812,6.6812,6.6812,6.6812,6.6812,6.6812,6.6812,6.6812,6.6812,6.6812,6.6812,6.6812,6.6812,6.6812,6.6812,6.6677,6.5899,6.5696,6.5527,6.4816,6.4613,6.4444,6.3802,6.3632,6.3463,6.2685,6.2516,6.2482,6.2415,6.2381,6.2381,6.2381,6.2381,6.2381,6.2381,6.2381,6.2381,6.2381,6.2381,6.2381,6.2381,6.2381,6.2381,6.2381,6.2381,6.211,6.1467,6.1264,6.0825,6.0047,5.981,5.9742,5.9742,5.9641,5.9641,5.9742,6.052,6.096,6.1061,6.1772,6.2516,6.326,6.3362,6.3294,4.4646,4.2938,4.2078,4.3194,4.4381,4.5974,4.8578,4.983,5.098,5.2807,5.4634,5.6224,5.7408,5.8863,6.0216,6.1264,6.2347,6.3159,6.3463,6.441,6.4884,6.4478,6.5087,6.5865,6.6745,6.6812,6.6812,6.6812,6.6812,6.6812,6.6812,6.6812,6.6812,6.6812,6.6812,6.6812,6.6812,6.6812,6.6812,6.6812,6.6812,6.6812,6.6812,6.6812,6.6812,6.6812,6.6812,6.6812,6.6812,6.6812,6.6812,6.6812,6.6812,6.6812,6.6812,6.6812,6.6812,6.6812,6.6812,6.6812,6.6812,6.6812,6.6812,6.6677,6.5899,6.5696,6.5527,6.4816,6.4613,6.4444,6.37,6.3531,6.3328,6.2584,6.2381,6.2381,6.2381,6.2381,6.2381,6.2381,6.2381,6.2381,6.2381,6.2381,6.2381,6.2381,6.2381,6.2381,6.2381,6.2381,6.2381,6.2381,6.2381,6.2279,6.1975,6.1941,6.1806,6.1467,6.1434,6.1434,6.1434,6.1434,6.1434,6.1434,6.1772,6.2144,6.2584,6.2888,6.3429,6.414,6.458,6.4783,4.5441,4.4881,4.5018,4.566,4.7733,4.9932,5.1082,5.2334,5.3619,5.4938,5.6393,5.7814,5.9066,6.0419,6.1535,6.2279,6.3024,6.3531,6.3531,6.3971,6.4106,6.3565,6.3802,6.4478,6.5797,6.6271,6.6576,6.6779,6.6812,6.6812,6.6812,6.6812,6.6812,6.6812,6.6812,6.6812,6.6812,6.6812,6.6812,6.6812,6.6812,6.6812,6.6812,6.6812,6.6812,6.6812,6.6812,6.6812,6.6812,6.6812,6.6812,6.6812,6.6812,6.6812,6.6812,6.6812,6.6812,6.6812,6.6812,6.6812,6.6812,6.6812,6.6812,6.6677,6.5899,6.5696,6.5527,6.4816,6.4613,6.4478,6.3937,6.3802,6.3632,6.2888,6.2685,6.2651,6.2415,6.2381,6.2381,6.2381,6.2381,6.2381,6.2381,6.2381,6.2381,6.2381,6.2381,6.2381,6.2381,6.2381,6.2381,6.2381,6.2381,6.2381,6.2381,6.2381,6.2381,6.2381,6.2381,6.2381,6.2381,6.2381,6.2381,6.2381,6.2381,6.2651,6.3193,6.3193,6.3599,6.4309,6.485,6.5189,4.4391,4.5117,4.665,4.8435,5.0033,5.1725,5.3957,5.504,5.5818,5.6596,5.7915,5.9167,5.9945,6.0757,6.1535,6.2279,6.3024,6.3531,6.3531,6.3531,6.3531,6.3531,6.2888,6.2753,0.0,6.4884,6.6034,6.6779,6.6812,6.6812,6.6812,6.6812,6.6812,6.6812,6.6812,6.6812,6.6812,6.6812,6.6812,6.6812,6.6812,6.6812,6.6812,6.6812,6.6812,6.6812,6.6812,6.6812,6.6812,6.6812,6.6812,6.6812,6.6812,6.6812,6.6812,6.6812,6.6812,6.6812,6.6812,6.6812,6.6812,6.6812,6.6812,6.6677,6.5899,6.5696,6.5527,6.4816,6.4613,6.458,6.458,6.458,6.4377,6.3666,6.3497,6.3294,6.255,6.2381,6.2381,6.2381,6.2381,6.2381,6.2381,6.2381,6.2381,6.2381,6.2381,6.2381,6.2381,6.2381,6.2381,6.2381,6.2381,6.2381,6.2381,6.2381,6.2381,6.2381,6.2381,6.2381,6.2381,6.2381,6.2381,6.2381,6.2381,6.2415,6.2415,6.2415,6.2821,6.3531,6.3565,6.3971,4.6282,4.7522,4.916,5.0793,5.2706,5.4532,5.5784,5.663,5.7239,5.7476,5.7915,5.8355,5.8592,5.9268,6.0013,6.0757,6.1941,6.2753,6.2753,6.3193,6.2956,6.1434,6.1501,0.0,0.0,0.0,0.0,6.5967,6.6068,6.6271,6.6779,6.6812,6.6812,6.6812,6.6812,6.6812,6.6812,6.6812,6.6812,6.6812,6.6812,6.6812,6.6812,6.6812,6.6812,6.6812,6.6812,6.6812,6.6812,6.6812,6.6812,6.6812,6.6812,6.6812,6.6812,6.6812,6.6812,6.6812,6.6812,6.6812,6.6812,6.6812,6.6812,6.6779,6.6508,6.644,6.6373,6.6136,6.6068,6.5967,6.5459,6.5324,6.5121,6.441,6.4241,6.4038,6.3294,6.3125,6.299,6.2482,6.2381,6.2381,6.2381,6.2381,6.2381,6.2381,6.2381,6.2381,6.2381,6.2381,6.2381,6.2381,6.2381,6.2381,6.2381,6.2381,6.2381,6.2381,6.2381,6.2381,6.2381,6.2381,6.2381,6.2381,6.2381,6.2618,6.3125,6.3125,6.3531,6.4241,6.4241,6.4377,4.8745,5.011,5.1599,5.3457,5.5009,5.6292,5.7036,5.734,5.7408,5.7171,5.6697,5.6393,5.6664,5.6664,5.7306,5.937,6.0317,6.1163,6.2245,6.2347,6.1873,6.0655,6.052,6.0689,0.0,0.0,0.0,6.5527,6.5696,6.6,6.6779,6.6812,6.6812,6.6812,6.6812,6.6812,6.6812,6.6812,6.6812,6.6812,6.6812,6.6812,6.6812,6.6812,6.6812,6.6812,6.6812,6.6812,6.6812,6.6812,6.6812,6.6812,6.6812,6.6812,6.6812,6.6812,6.6812,6.6812,6.6812,6.6812,6.6812,6.6812,6.6812,6.6812,6.6812,6.6812,6.6812,6.6812,6.6812,6.6711,6.6203,6.6102,6.5899,6.5155,6.4986,6.4783,6.4072,6.3903,6.3666,6.2956,6.2787,6.2719,6.2448,6.2381,6.2381,6.2381,6.2381,6.2381,6.2381,6.2381,6.2381,6.2381,6.2381,6.2381,6.2381,6.2381,6.2381,6.2381,6.2381,6.2381,6.2381,6.2381,6.2381,6.2381,6.2381,6.2618,6.3125,6.3125,6.3362,6.3802,6.3802,6.3971,5.1555,5.2824,5.3978,5.6324,5.6885,5.7036,5.7679,5.7273,5.6528,5.5818,5.4431,5.3551,5.4228,5.328,5.3721,5.8084,5.8321,5.8998,6.1975,6.1129,6.0486,6.1231,6.0013,5.9708,0.0,0.0,0.0,6.5392,0.0,6.5967,6.6779,6.6812,6.6812,6.6812,6.6779,6.6745,6.6745,6.6745,6.6779,6.6812,6.6812,6.6812,6.6812,6.6812,6.6812,6.6812,6.6812,6.6812,6.6812,6.6812,6.6812,6.6812,6.6812,6.6812,6.6812,6.6812,6.6812,6.6812,6.6812,6.6812,6.6812,6.6812,6.6812,6.6812,6.6812,6.6812,6.6812,6.6812,6.6812,6.6812,6.6812,6.6812,6.6643,6.5899,6.5764,6.5527,6.4816,6.4647,6.4444,6.37,6.3531,6.3294,6.2584,6.2415,6.2381,6.2381,6.2381,6.2381,6.2381,6.2381,6.2381,6.2381,6.2381,6.2381,6.2381,6.2381,6.2381,6.2381,6.2381,6.2381,6.2381,6.2381,6.2381,6.2381,6.2381,6.2381,6.2381,6.2381,6.2415,6.2448,6.2448,6.2854,5.3473,5.5263,5.6766,5.6816,5.7215,5.7509,5.7171,5.6528,5.5784,5.504,5.2773,5.1014,5.1183,5.1386,5.2435,5.5243,5.7408,5.9573,6.2042,6.2042,6.167,6.1332,6.096,6.0892,6.1264,6.1298,0.0,0.0,6.4884,6.5459,6.6745,6.6812,6.6812,6.6812,6.6271,6.5967,6.5967,6.5967,6.6271,6.6812,6.6812,6.6812,6.6812,6.6812,6.6812,6.6812,6.6812,6.6812,6.6812,6.6812,6.6812,6.6812,6.6812,6.6812,6.6812,6.6812,6.6812,6.6812,6.6812,6.6812,6.6812,6.6812,6.6812,6.6812,6.6812,6.6812,6.6812,6.6812,6.6812,6.6812,6.6812,6.6812,6.6779,6.6576,6.6542,6.6339,6.5561,6.5425,6.5189,6.4478,6.3903,6.3463,6.326,6.2753,6.2381,6.2381,6.2381,6.2381,6.2381,6.2381,6.2381,6.2381,6.2381,6.2381,6.2381,6.2381,6.2381,6.2381,6.2381,6.2381,6.2381,6.2381,6.2381,6.2381,6.2381,6.2381,6.2381,6.2381,6.2685,6.3226,6.3226,6.3632,5.5766,5.7497,5.8858,5.8014,5.8153,5.7912,5.5823,5.4938,5.3962,5.1649,4.9501,4.7987,4.7725,4.8274,4.9864,5.3078,5.5818,5.8592,6.1501,6.1907,6.1873,6.1772,6.1772,6.1907,6.2245,6.2279,6.2922,0.0,6.4613,6.5256,6.6745,6.6812,6.6812,6.6812,6.6406,6.6034,6.5696,6.5696,6.5899,6.6339,6.6643,6.6812,6.6812,6.6812,6.6812,6.6812,0.0,6.6812,6.6812,6.6812,6.6812,6.6812,6.6812,6.6812,6.6812,6.6812,6.6812,6.6812,6.6812,6.6812,6.6812,6.6812,6.6812,6.6812,6.6812,6.6812,6.6812,6.6812,6.6812,6.6812,6.6812,6.6812,6.6812,6.6812,6.6812,6.6711,6.6271,6.617,6.5967,6.5222,6.4478,6.4005,6.4005,6.3362,6.2888,6.2888,6.2618,6.2381,6.2381,6.2381,6.2381,6.2381,6.2381,6.2381,6.2381,6.2381,6.2381,6.2381,6.2381,6.2381,6.2381,6.2381,6.2381,6.2381,6.2381,6.2381,6.2381,6.2719,6.3091,6.3531,6.3835,6.4377,5.7709,5.9177,6.0311,5.9195,5.8937,5.7903,5.4185,5.306,5.1591,4.7466,4.5816,4.4957,4.4497,4.5117,4.7124,5.1454,5.416,5.7036,6.0791,6.1298,6.1569,6.2313,6.2381,6.2685,6.3429,6.3429,6.3734,6.4681,6.4647,6.5189,6.6576,6.6576,6.6508,6.6508,6.6508,6.6203,6.5561,6.5459,6.5493,6.5696,6.6339,6.6711,6.6812,6.6812,6.6812,6.6812,6.6812,6.6812,6.6812,6.6812,6.6812,6.6812,6.6812,6.6812,6.6812,6.6812,6.6812,6.6812,6.6812,6.6812,6.6812,6.6812,6.6812,6.6812,6.6812,6.6812,6.6812,6.6812,6.6812,6.6812,6.6812,6.6812,6.6812,6.6812,6.6812,6.6812,6.6812,6.6812,6.6609,6.5967,6.5256,6.4749,6.4749,6.414,6.3632,6.3531,6.2956,6.2516,6.2415,6.2381,6.2381,6.2381,6.2381,6.2381,6.2381,6.2381,6.2381,6.2381,6.2381,6.2381,6.2381,6.2381,6.2448,6.2516,6.255,6.2584,6.2685,6.3328,6.37,6.3835,6.4444,6.5121,5.7334,5.9159,6.0877,5.8639,5.7719,5.646,5.3303,5.1469,4.9532,4.6247,4.4492,4.3558,4.3382,4.4647,4.6955,5.0777,5.3822,5.7036,6.0791,6.1298,6.1569,6.2313,6.2381,6.2685,6.3429,6.2956,0.0,0.0,6.4952,6.4986,6.5831,6.5324,6.4986,6.4986,6.4986,6.4918,6.4783,6.4208,6.4478,6.5696,6.5831,6.6203,6.6812,6.6812,6.6812,6.6812,6.6812,0.0,6.6812,6.6812,6.6812,6.6812,6.6812,6.6812,6.6812,6.6812,6.6812,6.6812,6.6812,6.6812,6.6812,6.6812,6.6812,6.6812,6.6812,6.6812,6.6812,6.6812,6.6812,6.6812,6.6812,6.6812,6.6812,6.6812,6.6812,6.6812,6.6812,6.6812,6.6779,6.6643,6.6,6.5493,6.5493,6.4884,6.4208,6.3599,6.3396,6.3091,6.2482,6.2381,6.2381,6.2381,6.2381,6.2381,6.2381,6.2381,6.2381,6.2381,6.2381,6.2381,6.2381,6.2381,6.2685,6.3294,6.3328,6.3632,6.4208,6.4343,6.4715,6.5324,6.5425,6.5899,5.8281,6.0065,6.1534,5.866,5.7767,5.6345,5.1558,4.9466,4.7467,4.3652,4.2211,4.1587,4.1371,4.3005,4.522,4.7898,5.0541,5.3788,5.8321,5.8964,5.981,6.211,6.2753,6.3125,6.3497,6.3193,6.3429,6.4478,6.3869,6.4275,6.617,6.5933,6.5392,6.4613,6.4613,6.441,6.4038,6.37,6.4072,6.5121,6.5493,6.6102,6.6812,6.6812,6.6812,6.6812,6.6812,0.0,6.6812,6.6812,6.6812,6.6812,6.6812,6.6812,6.6812,6.6812,6.6812,6.6812,6.6812,6.6812,6.6812,6.6812,6.6812,6.6812,6.6812,6.6812,6.6812,6.6812,6.6812,6.6812,6.6812,6.6812,6.6812,6.6812,6.6812,6.6812,6.6812,6.6812,6.6812,6.6812,6.6508,6.6271,6.6271,6.5662,6.5053,6.4681,6.4343,6.3937,6.3599,6.3531,6.3226,6.2482,6.2753,6.2956,6.2956,6.3328,6.3531,6.3531,6.3531,6.3531,6.3531,6.3531,6.37,6.4072,6.4072,6.4241,6.4613,6.4986,6.5358,6.5696,6.6102,6.6474,5.8726,6.0451,6.1579,5.8514,5.7739,5.6103,5.0087,4.7864,4.5788,4.1416,4.0256,3.9968,3.9696,4.116,4.3143,4.5145,4.7327,5.0541,5.5615,5.6731,5.8321,6.1738,6.2821,6.3328,6.3497,6.3362,0.0,6.3734,6.3193,6.3734,6.5764,6.6305,6.5899,6.441,6.4377,6.4106,6.3531,6.3362,6.3734,6.4613,6.5189,6.5933,6.6812,6.6812,6.6812,6.6812,6.6812,0.0,6.6812,6.6812,6.6812,6.6812,6.6812,6.6812,6.6812,6.6812,6.6812,6.6812,6.6812,6.6812,6.6812,6.6812,6.6812,6.6812,6.6812,6.6812,6.6812,6.6812,6.6812,6.6812,6.6812,6.6812,6.6812,6.6812,6.6812,6.6812,6.6812,6.6812,6.6812,6.6812,6.6812,6.6812,6.6812,6.6305,6.5865,6.5696,6.5189,6.4783,6.4613,6.4613,6.4174,6.299,6.3396,6.3768,6.3768,6.4275,6.4613,6.4613,6.4613,6.4613,6.4613,6.4613,6.4681,6.4816,6.485,6.4918,6.5087,6.5662,6.5933,6.5933,6.6542,6.688,5.7303,5.8815,6.004,5.7605,5.65,5.4756,4.9877,4.7461,4.5081,4.1046,3.9899,3.9529,3.9438,3.9963,4.1323,4.4242,4.6549,4.9593,5.416,5.6528,5.8693,6.1129,6.2042,6.2753,6.3463,6.2888,6.3057,6.441,6.4444,6.3937,6.2854,6.4715,6.5121,6.3666,6.3632,6.3599,6.3531,6.2854,6.3193,6.4613,6.4681,6.5459,6.6812,6.6812,6.6812,6.6812,6.6812,0.0,0.0,6.6812,6.6812,6.6812,6.6812,6.6812,6.6812,6.6812,6.6812,6.6812,6.6812,6.6812,6.6812,6.6812,6.6812,6.6812,6.6812,6.6812,6.6812,6.6812,6.6812,6.6812,6.6812,6.6812,6.6812,6.6812,6.6812,6.6812,6.6812,6.6812,6.6812,6.6812,6.6812,6.6812,6.6812,6.6745,6.6474,6.5797,6.5628,6.5358,6.4681,6.4613,6.4546,6.441,6.4478,6.4512,6.4512,6.4546,6.4613,6.4613,6.4613,6.4613,6.4613,6.4613,6.4918,6.5561,6.5595,6.5933,6.6609,6.6677,6.6711,6.6711,6.6779,6.7184,5.7241,5.8969,5.9944,5.8088,5.6335,5.3929,4.9578,4.6528,4.3792,4.0668,3.9489,3.8959,3.8789,3.8902,3.964,4.157,4.2252,4.4418,4.983,5.1319,5.3687,5.866,5.9911,6.1028,0.0,0.0,6.2618,6.3226,6.37,6.3497,6.2448,6.4072,6.4343,6.2888,6.3294,6.3294,6.2854,6.255,6.2922,6.3937,6.3937,6.4715,6.6136,6.6136,6.6373,6.6812,6.6812,0.0,0.0,6.6812,6.6812,6.6812,6.6812,6.6812,6.6812,6.6812,6.6812,6.6812,6.6812,6.6812,6.6812,6.6812,6.6812,6.6812,6.6812,6.6812,6.6812,6.6812,6.6812,6.6812,6.6812,6.6812,6.6812,6.6812,6.6812,6.6812,6.6812,6.6812,6.6812,6.6812,6.6812,6.6812,6.6812,6.6812,6.6711,6.6406,6.6373,6.6271,6.5967,6.5933,6.5933,6.5933,6.5527,6.5256,6.5256,6.5662,6.5933,6.5933,6.5933,6.5933,6.5933,6.5933,6.6068,6.6373,6.6373,6.6508,6.6812,6.6812,6.6812,6.6812,6.7252,6.7624,5.6932,5.829,5.8736,5.767,5.5582,5.2829,4.892,4.5761,4.294,4.0406,3.9145,3.8383,3.805,3.8023,3.8384,3.9312,3.9774,4.1745,4.6887,4.8139,5.0541,5.5953,5.7239,5.8592,6.0825,6.1873,6.2381,6.2381,6.2888,6.2956,6.2415,6.3362,6.3463,6.2415,6.2888,6.2922,6.2381,6.2381,6.2753,6.3531,6.3531,6.4174,6.5358,6.5358,6.5764,6.6474,6.6474,0.0,0.0,6.6812,6.6812,6.6812,6.6812,6.6812,6.6812,6.6812,6.6812,6.6812,6.6812,6.6812,6.6812,6.6812,6.6812,6.6812,6.6812,6.6812,6.6846,6.7083,6.7151,6.7083,6.688,6.6812,6.6812,6.6812,6.6812,6.6812,6.6812,6.6812,6.6812,6.6812,6.6812,6.6812,6.6812,6.6812,6.6812,6.6812,6.6812,6.6812,6.6812,6.6812,6.6812,6.6812,6.6339,6.6034,6.6034,6.6508,6.6812,6.6812,6.6812,6.6812,6.6812,6.6812,6.6812,6.6812,6.6812,6.6812,6.6812,6.7015,6.7151,6.7151,6.7895,6.8368,5.5941,5.6235,5.566,5.569,5.3859,5.1188,4.7926,4.5285,4.28,4.0377,3.8829,3.7755,3.7321,3.7376,3.7585,3.7882,4.0358,4.3335,4.638,4.868,5.0947,5.3281,5.4194,5.5513,5.7712,6.0622,6.2381,6.2381,6.2381,0.0,6.2381,6.2415,6.2415,6.2381,6.2381,6.2381,6.2381,6.2381,6.2753,6.3531,6.3531,6.3903,6.4613,6.4613,6.5019,6.5696,0.0,0.0,0.0,6.6812,6.6812,6.6812,6.6812,6.6812,6.6812,6.6812,6.6812,6.6812,6.6812,6.6812,6.6812,6.6812,6.6812,6.6812,6.6812,6.6812,6.6948,6.7692,6.7895,6.7726,6.7015,6.6812,6.6812,6.6812,6.6812,6.6812,6.6812,6.6812,6.6812,6.6812,6.6812,6.6812,6.6812,6.6812,6.6812,6.6812,6.6812,6.6812,6.6812,6.6812,6.6812,6.6812,6.6812,6.6812,6.6812,6.6812,6.6812,6.6812,6.6812,6.6812,6.6812,6.6812,6.6812,6.6812,6.6812,6.6812,6.6812,6.7523,6.7895,6.7895,6.8707,6.9485,5.1279,5.2491,5.2999,5.2477,5.0916,4.8761,4.6117,4.4016,4.1992,3.957,3.8727,3.8283,3.7755,3.7444,3.788,3.9663,4.043,4.1873,4.4886,4.7192,4.9627,5.2367,5.6528,5.9641,0.0,0.0,6.2381,6.2381,6.2381,6.2381,6.2381,6.2381,6.2381,6.2381,6.2381,6.2381,6.2381,6.2381,6.2516,6.2753,6.2753,6.3125,6.3869,6.3869,6.4241,0.0,0.0,0.0,0.0,6.6034,6.6339,6.6812,6.6812,6.6812,6.6812,6.6812,6.6812,6.6812,6.6812,6.6812,6.6812,6.6812,6.6812,6.6812,6.6812,6.6812,6.688,6.7083,6.7151,6.7117,6.688,6.6812,6.6812,6.6812,6.6812,6.6812,6.6812,6.6812,6.6812,6.6812,6.6812,6.6812,6.6812,6.6812,6.6812,6.6812,6.6812,6.6812,6.6812,6.6812,6.6812,6.6812,6.6812,6.6812,6.6812,6.6812,6.6812,6.6812,6.6812,6.6812,6.6812,6.6812,6.6812,6.6812,6.6812,6.7049,6.7557,6.7793,6.8436,6.9485,6.9722,7.0263,4.8233,4.9848,5.0545,5.0398,4.8636,4.6471,4.4672,4.2763,4.0891,3.9056,3.8528,3.83,3.7945,3.7573,3.7831,3.9361,4.0109,4.1373,4.3809,4.6075,4.868,5.1928,5.663,0.0,0.0,6.1907,6.2381,6.2381,6.2381,6.2381,6.2381,6.2381,6.2381,6.2381,6.2381,6.2381,6.2381,6.2381,6.2381,6.2381,6.2381,6.2618,6.3091,6.3091,6.3497,0.0,0.0,0.0,0.0,6.5561,6.5967,6.6406,6.6711,6.6812,6.6812,6.6812,6.6812,6.6812,6.6812,6.6812,6.6812,6.6812,6.6812,6.6812,6.6812,6.7015,6.7218,6.7218,6.7218,6.7218,6.7218,6.7015,6.6812,6.6812,6.6812,6.6812,6.6812,6.7015,6.7151,6.688,6.7015,6.7151,6.688,6.6812,6.6812,6.6812,6.6812,6.6812,6.6812,6.6812,6.6812,6.6812,6.6812,6.6812,6.6812,6.6812,6.6812,6.6812,6.6812,6.6812,6.6812,6.6812,6.6948,6.7218,6.7218,6.759,6.8335,6.8639,6.9383,7.0601,7.0601,7.0872,0.0,4.7719,4.8049,4.8802,4.6691,4.4232,4.3441,4.1479,0.0,3.8799,3.8227,3.7891,3.7893,3.7662,3.7546,3.7759,3.9734,4.1745,4.3274,4.5635,4.8578,0.0,5.5344,0.0,5.9099,6.1163,6.2381,6.2381,6.2381,6.2381,6.2381,6.2381,6.2381,6.2381,6.2381,6.2381,6.2381,6.2381,6.2381,6.2381,6.2381,6.2381,6.2381,6.2381,6.2753,0.0,0.0,0.0,0.0,6.5256,6.5595,6.5764,6.644,6.6779,6.6812,6.6812,6.6812,6.6812,6.6812,6.6812,6.6812,6.6812,6.6812,6.6812,6.6812,6.7286,6.7827,6.7895,6.7895,6.7895,6.7963,6.7489,6.6981,6.6981,6.6981,6.6981,6.6981,6.7523,6.7793,6.7117,6.7523,6.776,6.7083,6.6981,6.6948,6.6914,6.688,6.688,6.6812,6.6812,6.6812,6.6812,6.6812,6.6812,6.6812,6.6812,6.6812,6.6812,6.6812,6.6846,6.688,6.688,6.7252,6.7963,6.803,6.8436,6.918,6.9925,7.0635,7.1312,7.1312,7.1312,3.9696,0.0,4.3608,4.3204,4.2543,4.1719,0.0,3.9827,3.8762,3.797,3.7674,3.7635,3.7785,3.752,3.8088,4.0551,4.1075,4.1914,4.4012,4.8173,5.2604,5.6934,5.9099,6.0588,6.1501,6.2076,6.2381,6.2381,6.2381,6.2381,6.2381,6.2381,6.2381,6.2381,6.2381,6.2381,6.2381,6.2381,6.2381,6.2381,6.2381,6.2381,6.2381,6.2381,6.2482,0.0,0.0,0.0,6.3768,6.3971,6.4681,6.5696,6.5865,6.6305,6.6812,6.6812,6.6812,6.6812,6.6812,6.6812,6.6812,6.6812,6.6812,6.6812,6.6812,6.6948,6.7184,6.7726,6.7895,6.803,6.8673,6.8707,6.8571,6.8571,6.8571,6.8571,6.8571,6.8707,6.8774,6.8605,6.8707,6.8774,6.8605,6.8571,6.8368,6.7726,6.7658,6.7455,6.688,6.6812,6.6812,6.6812,6.6812,6.6812,6.6812,6.6812,6.6812,6.6812,6.6812,6.7049,6.7624,6.7658,6.7996,6.8808,6.935,6.9755,6.9925,7.0669,7.1142,7.1312,7.1312,7.1312,3.634,3.8982,4.1662,4.1205,4.0818,4.0451,4.001,3.8689,3.7477,3.7052,3.7034,3.718,3.7263,3.7321,3.7909,3.965,4.0631,4.2591,4.6549,5.1014,5.5141,5.8592,6.0385,6.1603,0.0,6.2381,6.2381,6.2381,6.2381,6.2381,6.2381,6.2381,6.2381,6.2381,6.2381,6.2381,6.2381,6.2381,6.2381,6.2381,6.2381,6.2381,6.2381,6.2381,6.2381,0.0,0.0,0.0,6.3024,6.3362,6.4174,6.5222,6.5561,6.6136,6.6812,6.6812,6.6812,6.6812,6.6812,6.6812,6.6812,6.6812,6.6812,6.6812,6.6812,6.6812,6.7049,6.8132,6.8199,6.8166,6.9316,6.935,6.9113,6.9113,6.9113,6.9113,6.9113,6.9383,6.9485,6.918,6.9383,6.9485,6.9147,6.9113,6.8944,6.8504,6.8436,6.8301,6.7929,6.7861,6.7861,6.7861,6.7861,6.7861,6.7861,6.7861,6.7692,6.7354,6.732,6.7658,6.8402,6.8436,6.8808,6.9586,7.0331,7.0703,7.0703,7.1109,7.1312,7.1312,7.1312,7.1312,3.5151,3.7903,4.0675,4.0463,4.0097,3.9747,3.9637,3.7937,3.6377,3.6472,3.6677,3.6844,3.6928,3.7392,3.7914,3.8168,4.0377,4.4045,4.9796,5.3551,5.656,5.8896,6.052,0.0,6.2347,6.2381,6.2381,6.2381,6.2381,6.2381,6.2381,6.2381,6.2381,6.2381,6.2381,6.2381,6.2381,6.2381,6.2381,6.2381,6.2381,6.2381,6.2381,6.2381,6.2381,6.2381,0.0,0.0,6.2448,6.3091,6.3768,6.4512,6.5222,6.5967,6.6643,6.6779,6.6812,6.6812,6.6812,6.6812,6.6812,6.6812,6.6812,6.6812,6.6812,6.6812,6.7117,6.8673,6.8605,6.8436,6.9958,6.9891,6.9451,6.9451,6.9451,6.9451,6.9451,6.9925,7.0161,6.9553,6.9925,7.0161,6.9553,6.9451,6.9417,6.9282,6.9282,6.9214,6.9113,6.9113,6.9113,6.9113,6.9113,6.9113,6.9113,6.9113,6.8876,6.8301,6.8132,6.8436,6.9248,6.9383,6.9722,7.0364,7.0973,7.1312,7.1312,7.1312,7.1312,7.1312,7.1312,7.1312,3.5716,3.7551,3.8779,3.768,3.8321,3.9043,3.8374,3.74,3.6773,3.7234,3.7359,3.7503,3.7891,3.8576,3.9656,4.1307,4.4027,4.7597,0.0,0.0,5.6765,5.9607,0.0,6.2279,6.2381,6.2381,6.2381,6.2381,6.2381,6.2381,6.2381,6.2381,6.2381,6.2381,6.2381,6.2381,6.2381,6.2381,6.2381,6.2381,6.2381,6.2381,6.2381,6.2381,6.2381,6.2381,0.0,6.2381,6.2415,6.2516,6.299,6.3768,6.4478,6.5222,6.5933,6.6576,6.6812,6.6812,6.6812,6.6812,6.6812,6.6812,6.6812,6.6812,6.6812,6.6812,6.7117,6.8673,6.9011,6.9248,7.077,7.1075,7.0973,7.0973,7.0973,7.0973,7.0973,7.1075,7.1109,7.1007,7.1075,7.1109,7.1007,7.0973,7.077,7.0128,7.0026,6.9789,6.918,6.9113,6.9113,6.9113,6.9113,6.9113,6.9113,6.9113,6.9316,6.9823,6.9248,6.9248,6.9992,7.0635,7.1041,7.1142,7.1244,7.1312,7.1312,7.1312,7.1312,7.1312,7.1312,7.1312,3.4724,3.645,3.7937,3.7453,3.8526,3.9536,3.8846,3.7754,3.6934,3.7164,3.7575,3.7846,3.7781,3.9417,4.1682,4.4285,4.7225,5.0202,5.3078,5.5446,5.7679,0.0,0.0,6.1941,6.2347,6.2381,6.2381,6.2381,6.2381,6.2381,6.2381,6.2381,6.2381,6.2381,6.2381,6.2381,6.2381,6.2381,6.2381,6.2381,6.2381,6.2381,6.2381,6.2381,6.2381,6.2381,0.0,6.2381,6.2381,6.2381,6.2821,6.3599,6.4309,6.5053,6.5764,6.6542,6.6812,6.6812,6.6812,6.6812,6.6812,6.6812,6.6812,6.6812,6.6812,6.7083,6.7624,6.8774,6.9113,6.9451,7.0939,7.1312,7.1312,7.1312,7.1312,7.1312,7.1312,7.1312,7.1312,7.1312,7.1312,7.1312,7.1312,7.1312,7.121,7.0838,7.0804,7.0669,7.0331,7.0297,7.0297,7.0297,7.0297,7.0297,7.0297,7.0297,7.0263,7.0195,7.0263,7.0466,7.077,7.1142,7.1312,7.1312,7.1312,7.1312,7.1312,7.1312,7.1312,7.1312,7.1312,7.1312,3.4541,3.5937,3.7447,3.8015,3.9067,4.0003,4.0139,3.8837,3.7694,3.8219,3.8671,3.8901,3.8542,4.1006,4.4015,4.6874,4.9796,5.23,5.3822,5.6258,5.8389,5.9708,6.0554,6.1231,6.1806,6.2009,6.2144,6.2144,6.2279,6.2381,6.2381,6.2381,6.2381,6.2381,6.2381,6.2381,6.2381,6.2381,6.2381,6.2381,6.2381,6.2381,6.2381,6.2381,6.2381,6.2381,6.2381,6.2381,6.2381,6.2381,6.2719,6.3328,6.4072,6.4884,6.5764,6.6542,6.6812,6.6812,6.6812,6.6812,6.6812,6.6812,6.6812,6.6846,6.7015,6.7455,6.8098,6.9079,6.935,6.9654,7.0973,7.1312,7.1312,7.1312,7.1312,7.1312,7.1312,7.1312,7.1312,7.1312,7.1312,7.1312,7.1312,7.1312,7.1312,7.1312,7.1312,7.1312,7.1312,7.1312,7.1312,7.1312,7.1312,7.1312,7.1312,7.1312,7.1075,7.05,7.1007,7.1312,7.1312,7.1312,7.1312,7.1312,7.1312,7.1312,7.1312,7.1312,7.1312,7.1312,7.1312,7.1413,3.6831,3.7005,3.7099,3.858,3.9031,3.9752,4.1935,4.0772,3.9782,4.1812,4.1736,4.1407,4.1624,4.4278,4.698,4.8578,5.1386,5.3856,5.5344,0.0,5.8186,5.8998,5.9742,6.0216,6.025,6.0926,6.1366,6.1366,6.2009,6.2381,6.2381,6.2381,6.2381,6.2381,6.2381,6.2381,6.2381,6.2381,6.2381,6.2381,6.2381,6.2381,6.2381,6.2381,6.2381,6.2381,6.2381,6.2381,6.2381,6.2381,6.2415,6.255,6.3294,6.4444,6.5764,6.6542,6.6812,6.6812,6.6812,6.6812,6.6812,6.6812,6.6812,6.6948,6.7624,6.7861,6.8199,6.9688,7.0094,7.0297,7.1109,7.1312,7.1312,7.1312,7.1312,7.1312,7.1312,7.1312,7.1312,7.1312,7.1312,7.1312,7.1312,7.1312,7.1312,7.1312,7.1312,7.1312,7.1312,7.1312,7.1312,7.1312,7.1312,7.1312,7.1312,7.1312,7.1312,7.1244,7.1278,7.1312,7.1312,7.1312,7.1312,7.1312,7.1312,7.1312,7.1312,7.1312,7.1312,7.1312,7.1312,7.1684,3.5642,3.6186,3.6942,3.9021,4.0074,4.0843,4.2021,4.1983,4.2137,4.3558,4.3655,4.364,4.4224,4.605,4.797,4.9424,5.2604,5.5074,5.5649,5.6968,5.8152,5.893,5.9268,5.9607,6.0047,6.0385,6.0554,6.0554,6.1264,6.1704,6.1704,6.2144,6.2381,6.2381,6.2381,6.2381,6.2381,6.2381,6.2381,6.2381,6.2381,6.2381,6.2381,6.2381,6.2381,6.2381,6.2381,6.2381,6.2381,6.2381,6.2381,6.2516,6.3734,6.4816,6.5764,6.6542,6.6812,6.6812,6.6812,6.6812,6.6812,6.6812,6.6812,6.6948,6.7692,6.8233,6.8876,6.9891,7.0534,7.0973,7.1244,7.1312,7.1312,7.1312,7.1312,7.1312,7.1312,7.1312,7.1312,7.1312,7.1312,7.1312,7.1312,7.1312,7.1312,7.1312,7.1312,7.1312,7.1312,7.1312,7.1312,7.1312,7.1312,7.1312,7.1312,7.1312,7.1312,7.1312,7.1312,7.1312,7.1312,7.1312,7.1312,7.1312,7.1312,7.1312,7.1312,7.1312,7.1312,7.1312,7.1785,7.2124,3.4962,3.5586,3.6671,3.8729,4.0203,4.1477,4.2719,4.3256,4.3975,4.561,4.5569,4.5365,4.5635,4.7124,4.8578,0.0,5.2909,5.5446,5.5683,5.6765,5.7814,5.8592,5.866,5.8863,5.937,5.9607,5.9742,5.9742,6.0486,6.0926,6.0926,6.1637,6.2042,6.2042,6.2279,6.2381,6.2381,6.2381,6.2381,6.2381,6.2381,6.2381,6.2381,6.2381,6.2381,6.2381,6.2381,6.2381,6.2381,6.2381,6.2381,6.255,6.4005,6.4918,6.5459,6.644,6.6812,6.6812,6.6812,6.6812,6.6812,6.6812,6.6812,6.6948,6.7692,6.847,6.9248,6.9992,7.0737,7.1312,7.1312,7.1312,7.1312,7.1312,7.1312,7.1312,7.1312,7.1312,7.1312,7.1312,7.1312,7.1312,7.1312,7.1312,7.1312,7.1312,7.1312,7.1312,7.1312,7.1312,7.1312,7.1312,7.1312,7.1312,7.1312,7.1312,7.1312,7.1312,7.1312,7.1312,7.1312,7.1312,7.1312,7.1312,7.1312,7.1312,7.1312,7.1312,7.1312,7.1345,7.2056,7.2529,3.5294,3.5427,3.6201,3.7469,3.9235,4.1428,4.4526,4.4698,4.5105,4.8156,4.7723,4.6583,4.5872,4.753,4.9018,4.9018,5.2164,5.4871,5.5615,5.6325,5.707,5.778,5.7881,5.7881,5.7881,5.8558,5.8998,5.8998,5.9674,6.008,0.0,6.0858,6.1298,6.1298,6.2009,6.2381,6.2381,6.2381,6.2381,6.2381,6.2381,6.2381,6.2381,6.2381,6.2381,6.2381,6.2381,6.2381,6.2381,6.2381,6.2381,6.255,6.4005,6.458,6.4783,6.6271,6.6812,6.6812,6.6812,6.6812,6.6812,6.6812,6.6812,6.6948,6.7692,6.847,6.9248,6.9992,7.0737,7.1312,7.1312,7.1312,7.1312,7.1312,7.1312,7.1312,7.1312,7.1312,7.1312,7.1312,7.1312,7.1312,7.1312,7.1312,7.1312,7.1312,7.1312,7.1312,7.1312,7.1312,7.1312,7.1312,7.1312,7.1312,7.1312,7.1312,7.1312,7.1312,7.1312,7.1312,7.1312,7.1312,7.1312,7.1312,7.1312,7.1312,7.1312,7.1312,7.1312,7.1345,7.2056,7.28,3.4021,3.4422,3.5598,3.7659,4.0228,4.3085,4.6177,4.6355,4.6404,4.8523,4.8629,4.8139,4.7365,4.8646,4.9763,4.9763,5.2469,5.4668,5.4905,5.6021,5.6867,5.7103,5.7577,5.7881,5.7881,5.8084,5.822,5.822,5.893,0.0,0.0,6.0047,6.0723,6.1298,6.1501,6.1873,6.2381,6.2381,6.2381,6.2381,6.2381,6.2381,6.2381,6.2381,6.2381,6.2381,6.2381,6.2381,6.2381,6.2381,6.2381,6.2482,6.3463,6.414,6.4715,6.5662,6.6339,6.6812,6.6812,6.6812,6.6812,6.6812,6.6812,6.6948,6.7692,6.847,6.9248,6.9992,7.0737,7.1312,7.1312,7.1312,7.1312,7.1312,7.1312,7.1312,7.1312,7.1312,7.1312,7.1312,7.1312,7.1312,7.1312,7.1312,7.1312,7.1312,7.1312,7.1312,7.1312,7.1917,7.2364,7.2364,7.2364,7.2364,7.2364,7.1732,7.1312,7.1312,7.1312,7.1312,7.1312,7.1312,7.1312,7.1312,7.1312,7.1312,7.1312,7.1312,7.1312,7.1345,7.2597,7.3274,3.4595,3.5611,3.7175,3.9206,4.1789,4.4518,4.7134,4.805,4.8506,4.89,4.9018,4.8781,4.8071,4.912,0.0,5.0101,5.2367,5.4262,5.4566,5.5378,5.6122,5.6731,5.7171,5.7577,5.7848,5.7881,5.7881,5.7881,0.0,0.0,0.0,5.9268,5.9911,6.0385,6.0994,6.1501,6.1941,6.2245,6.2381,6.2381,6.2381,6.2381,6.2381,6.2381,6.2381,6.2381,6.2381,6.2381,6.2381,6.2381,6.2381,6.2448,6.3226,6.3768,6.4309,6.5324,6.5967,6.6406,6.6711,6.6812,6.6812,6.6812,6.6812,6.688,6.7354,6.7996,6.8774,6.9553,7.0297,7.0939,7.1244,7.1312,7.1312,7.1312,7.1312,7.1312,7.1312,7.1312,7.1312,7.1312,7.1312,7.1312,7.1312,7.1312,7.1312,7.1312,7.1644,7.2013,7.2448,7.3044,7.3412,7.3412,7.3412,7.3212,7.2838,7.2236,7.1732,7.1312,7.1312,7.1312,7.1312,7.1312,7.1312,7.1312,7.1312,7.1312,7.1312,7.1312,7.1447,7.1785,7.2935,7.3646,3.6196,3.7916,3.9813,4.1513,4.3691,4.5909,4.766,4.9639,5.07,4.9274,4.9052,4.8883,4.8142,4.9221,5.0202,5.0202,5.2063,5.3721,5.4397,5.4566,5.5074,5.6427,5.6664,5.7002,5.7712,5.778,5.7814,0.0,0.0,0.0,5.7881,5.8524,5.893,5.9032,6.0385,6.1129,6.1197,6.1907,6.2279,6.2279,6.2347,6.2381,6.2381,6.2381,6.2381,6.2381,6.2381,6.2381,6.2381,6.2381,6.2381,6.2448,6.3159,6.3463,6.3666,6.5087,6.5628,6.5797,6.6542,6.6812,6.6812,6.6812,6.6812,6.6812,6.6812,6.732,6.8064,6.8876,6.962,7.0364,7.1109,7.1312,7.1312,7.1312,7.1312,7.1312,7.1312,7.1312,7.1312,7.1312,7.1312,7.1312,7.1312,7.1312,7.1356,7.1412,7.2193,7.3171,7.4158,7.4385,7.4423,7.4423,7.4423,7.4005,7.3044,7.2838,7.2364,7.1356,7.1312,7.1312,7.1312,7.1312,7.1312,7.1312,7.1312,7.1312,7.1312,7.1312,7.1684,7.2428,7.3138,7.3883,3.5614,3.6858,3.8748,4.2023,4.5432,4.8261,4.9258,4.9896,5.0045,4.9172,4.9458,4.9627,4.8917,4.9965,5.098,5.098,5.2401,5.3551,5.3721,5.4228,5.4702,5.504,5.5581,5.6258,5.6968,5.7036,0.0,0.0,0.0,0.0,5.7881,5.8051,5.8389,5.8998,5.9336,5.9776,6.0351,6.1129,6.1535,0.0,6.211,6.2381,6.2381,6.2381,6.2381,6.2381,6.2381,6.2381,6.2381,6.2381,6.2381,6.2415,6.255,6.299,6.3632,6.4512,6.5189,6.5797,6.6542,6.6812,6.6812,6.6812,6.6812,6.6812,6.6812,6.732,6.8064,6.8876,6.962,7.0364,7.1109,7.1312,7.1312,7.1312,7.1312,7.1312,7.1312,7.1312,7.1312,7.1312,7.1312,7.1312,7.1312,7.1312,7.159,7.2364,7.2631,7.3171,7.4158,7.4976,7.5475,7.5475,7.5475,7.5048,7.4043,7.3252,7.2364,7.1356,7.1312,7.1312,7.1312,7.1312,7.1312,7.1312,7.1312,7.1312,7.1312,7.1312,7.1684,7.2428,7.3138,7.3883,3.6151,3.8329,4.0958,4.4743,4.7274,4.8997,4.9725,4.9975,4.989,4.9551,4.9532,4.9458,4.9086,4.9932,5.0811,5.115,5.2164,5.3078,5.345,5.3822,5.4194,5.4566,5.4938,5.548,5.6224,5.6596,0.0,0.0,0.0,5.7881,5.7881,5.7881,5.8084,5.8457,5.8829,5.9201,5.9573,6.0351,6.0926,6.1298,6.167,6.2042,6.2381,6.2381,6.2381,6.2381,6.2381,6.2381,6.2381,6.2381,6.2381,6.2381,6.2381,6.2618,6.3125,6.4208,6.485,6.5324,6.644,6.6812,6.6812,6.6812,6.6812,6.6812,6.6812,6.7083,6.7523,6.8301,6.9079,6.9823,7.0567,7.1041,7.1312,7.1312,7.1312,7.1412,7.1917,7.1644,7.1412,7.1917,7.16,7.1312,7.1312,7.1312,7.1786,7.3292,7.3532,7.4043,7.5545,7.6197,7.653,7.653,7.653,7.5925,7.4423,7.3846,7.288,7.1401,7.1312,7.1312,7.1312,7.1312,7.1312,7.1312,7.1312,7.1312,7.1312,7.1312,7.1853,7.2935,7.3308,7.4086,3.6519,4.0058,4.3785,4.7303,4.8402,4.882,4.9715,4.9761,4.9723,4.9941,4.9462,4.9018,4.9018,4.9593,5.0304,5.0913,5.1758,5.2536,5.3213,5.3416,5.3721,5.4329,5.4397,5.4702,5.5446,0.0,0.0,0.0,0.0,5.7712,5.7712,5.7814,5.7881,5.7881,5.849,5.8829,5.8829,5.9539,6.025,6.0926,6.1163,6.167,6.2381,6.2381,6.2381,6.2381,6.2381,6.2381,6.2381,6.2381,6.2381,6.2381,6.2381,6.2381,6.255,6.3903,6.4478,6.4783,6.6136,6.6711,6.6812,6.6812,6.6812,6.6812,6.6812,6.6812,6.6948,6.7692,6.847,6.9282,6.9992,7.0737,7.1356,7.1546,7.159,7.1786,7.2624,7.2142,7.1786,7.2666,7.1969,7.1312,7.1312,7.1457,7.2185,7.4005,7.446,7.5227,7.7051,7.7273,7.7273,7.7273,7.7273,7.6498,7.446,7.4272,7.3452,7.1412,7.1312,7.1312,7.1312,7.1312,7.1312,7.1312,7.1312,7.1312,7.1312,7.1312,7.2056,7.3477,7.3477,7.4289,3.4869,3.9292,4.3978,4.6337,4.7342,4.8158,4.966,4.9056,4.8503,4.9723,4.9462,4.9018,4.9018,4.9593,5.0135,5.0236,5.1386,5.2334,5.2435,5.3078,5.3551,5.3653,5.3653,5.3923,0.0,0.0,0.0,0.0,5.6528,5.6934,5.6934,5.7543,5.7881,5.7881,5.7983,5.8051,5.8051,5.8795,5.9201,5.9336,6.0655,6.167,6.2381,6.2381,6.2381,6.2381,6.2381,6.2381,6.2381,6.2381,6.2381,6.2381,6.2381,6.2381,6.2482,6.3362,6.4072,6.4715,6.5561,6.6271,6.6812,6.6812,6.6812,6.6812,6.6812,6.6812,6.6948,6.7692,6.847,6.9282,6.9992,7.0737,7.1546,7.2406,7.2624,7.2666,7.2756,7.2673,7.2666,7.2756,7.1969,7.1312,7.1312,7.2013,7.3003,7.412,7.5012,7.5993,7.715,7.7273,7.7273,7.7273,7.7273,7.6498,7.446,7.4272,7.3452,7.1412,7.1312,7.1312,7.1312,7.1312,7.1312,7.1312,7.1312,7.1312,7.1312,7.1312,7.2056,7.3477,7.3477,7.4289,3.7242,4.0676,4.3717,4.6816,4.7629,4.8046,4.9433,4.8796,4.8127,4.9143,4.8793,4.8511,4.8917,4.9255,4.9627,5.0033,5.0642,5.1352,5.2198,5.2604,5.301,5.345,5.3518,0.0,0.0,0.0,0.0,0.0,5.5784,5.6359,5.6799,5.7103,5.7476,5.7881,5.7881,5.7881,5.7881,5.822,5.8592,5.9032,6.0554,6.1467,6.1806,6.2212,6.2381,6.2381,6.2381,6.2381,6.2381,6.2381,6.2381,6.2381,6.2381,6.2381,6.2482,6.3226,6.3971,6.4715,6.5425,6.617,6.6812,6.6812,6.6812,6.6812,6.6812,6.6812,6.688,6.7184,6.8166,6.918,6.9485,7.0432,7.1546,7.254,7.3212,7.3772,7.4348,7.4043,7.365,7.365,7.2838,7.2321,7.288,7.3332,7.3966,7.4976,7.551,7.6161,7.7181,7.7273,7.7273,7.7273,7.7273,7.6498,7.446,7.4272,7.3452,7.1412,7.1312,7.1312,7.1312,7.1312,7.1312,7.1312,7.1312,7.1312,7.1312,7.1312,7.2056,7.3477,7.3477,7.4289,3.8005,4.0451,4.2158,4.5704,4.6967,4.7635,4.879,4.8247,4.7717,0.0,4.8183,4.7868,4.8578,4.8883,4.9187,4.9729,4.9965,5.0473,5.1589,5.2063,5.2536,5.3112,5.3382,0.0,0.0,0.0,0.0,0.0,5.5006,5.575,5.6494,5.6697,5.7137,5.7881,5.7881,5.7881,5.7881,5.7881,5.8254,5.9032,6.0351,6.1095,6.1332,6.2042,6.2381,6.2381,6.2381,6.2381,6.2381,6.2381,6.2381,6.2381,6.2381,6.2381,6.2448,6.3024,6.3802,6.4681,6.5222,6.6034,6.6812,6.6812,6.6812,6.6812,6.6812,6.6812,6.6812,6.6812,6.7929,6.9113,6.9113,7.0195,7.16,7.288,7.3733,7.4572,7.558,7.5192,7.461,7.4348,7.3694,7.3412,7.4158,7.4498,7.494,7.5684,7.6027,7.6363,7.6856,7.715,7.7212,7.6956,7.6925,7.6197,7.4423,7.4043,7.3166,7.1412,7.1312,7.1312,7.1312,7.1312,7.1312,7.1312,7.1312,7.1312,7.1312,7.1515,7.2225,7.3477,7.368,7.4458,3.4434,3.664,3.8421,4.1233,4.415,4.6513,4.7319,4.7061,4.7065,4.8483,4.7761,4.709,4.7804,4.8545,4.9018,4.9052,4.9627,5.0135,5.0202,5.142,5.2334,5.2367,0.0,0.0,0.0,0.0,0.0,0.0,5.4228,5.4972,5.575,5.6427,5.7137,5.7881,5.7881,5.7881,5.7881,5.7881,5.8254,5.9032,5.981,6.0554,6.1332,6.2042,6.2381,6.2381,6.2381,6.2381,6.2381,6.2381,6.2381,6.2381,6.2381,6.2381,6.2381,6.2415,6.3362,6.4613,6.4647,6.5595,6.6812,6.6812,6.6812,6.6812,6.6812,6.6812,6.6812,6.6812,6.7929,6.9113,6.9113,7.0195,7.1786,7.3768,7.4234,7.4572,7.558,7.5753,7.544,7.4498,7.4234,7.4234,7.4272,7.5084,7.5718,7.5787,7.6595,7.6925,7.5993,7.6728,7.6956,7.5993,7.5891,7.5475,7.4385,7.3452,7.2448,7.1356,7.1312,7.1312,7.1312,7.1312,7.1312,7.1312,7.1312,7.1312,7.1312,7.1988,7.2732,7.351,7.4221,7.4965,3.288,3.5499,3.8099,4.0672,4.2568,4.4357,4.6037,4.5769,4.5544,4.6976,4.6661,4.6177,4.6447,4.7496,4.8477,4.8917,4.9221,4.956,5.0033,5.0541,5.1217,5.2198,0.0,0.0,0.0,0.0,0.0,0.0,0.0,5.4228,5.4938,5.5683,5.6427,5.7171,5.7645,5.7881,5.7881,5.7881,5.8017,5.8287,5.9032,5.981,6.0554,6.1332,6.1941,6.2381,6.2381,6.2381,6.2381,6.2381,6.2381,6.2381,6.2381,6.2381,6.2381,6.2381,6.3328,6.4613,6.4613,6.5561,6.6812,6.6812,6.6812,6.6812,6.6812,6.6812,6.6812,6.6812,6.7929,6.9113,6.9113,7.0661,7.2756,7.4794,7.5754,7.6297,7.666,7.6264,7.5891,7.6164,7.5684,7.5475,7.613,7.653,7.6761,7.6761,7.7051,7.7181,7.6793,7.7051,7.6888,7.5925,7.5787,7.512,7.3492,7.3003,7.2364,7.1356,7.1312,7.1312,7.1312,7.1312,7.1312,7.1312,7.1312,7.1312,7.1312,7.2056,7.2766,7.351,7.4255,7.4999,3.1115,3.377,3.6831,3.9276,4.0589,4.2105,4.5187,4.4807,4.4279,4.6047,4.5831,4.5399,4.5669,4.6515,4.7466,4.8477,4.8849,4.9187,4.9661,5.0181,5.0813,0.0,0.0,0.0,0.0,0.0,0.0,0.0,0.0,0.0,5.4566,5.5074,5.5784,5.6765,5.7509,5.7881,5.7881,5.7881,5.7881,5.7915,5.866,5.9404,6.0148,6.0926,6.1704,6.2381,6.2381,6.2381,6.2381,6.2381,6.2381,6.2381,6.2381,6.2381,6.2381,6.2381,6.3193,6.4275,6.4512,6.5392,6.6474,6.6745,6.6812,6.6812,6.6812,6.6812,6.6812,6.6812,6.7929,6.9113,6.9113,7.1186,7.3733,7.5405,7.6563,7.7273,7.7273,7.6793,7.6498,7.7181,7.6761,7.653,7.7181,7.7273,7.7273,7.7273,7.7273,7.7181,7.6824,7.7082,7.6888,7.5925,7.5787,7.512,7.3452,7.3003,7.2364,7.1356,7.1312,7.1312,7.1312,7.1312,7.1312,7.1312,7.1312,7.1312,7.1312,7.2056,7.2766,7.351,7.4255,7.4999,0.0,0.0,0.0,3.6758,3.7955,3.979,4.4562,0.0,4.335,4.5764,4.5373,4.475,4.5534,4.5703,4.6177,4.7601,4.8477,4.8984,4.8981,5.0227,5.1176,0.0,0.0,0.0,0.0,0.0,0.0,0.0,5.3518,5.3822,5.4532,5.4566,5.5277,5.6765,5.7476,5.7881,5.7881,5.7881,5.7881,5.7915,5.8626,5.937,6.0148,6.0926,6.167,6.2381,6.2381,6.2381,6.2381,6.2381,6.2381,6.2381,6.2381,6.2381,6.2381,6.2381,6.2854,6.3632,6.4343,6.5087,6.5797,6.6576,6.6812,6.6812,6.6812,6.6812,6.6812,6.6812,6.7929,6.9113,6.9233,7.1804,7.4572,7.5614,7.6595,7.7273,7.7273,7.7273,7.7273,7.7273,7.7273,7.7273,7.7273,7.7273,7.7273,7.7273,7.7273,7.6956,7.5959,7.6728,7.6888,7.5925,7.5787,7.5405,7.4348,7.3372,7.2364,7.1356,7.1312,7.1312,7.1312,7.1312,7.1312,7.1312,7.1312,7.1312,7.1312,7.2056,7.28,7.351,7.4289,7.5033,2.8987,0.0,0.0,0.0,0.0,0.0,0.0,0.0,4.0,4.3147,4.3204,4.3108,4.4637,4.5331,4.5838,4.6244,4.7394,4.8354,4.8839,4.9752,0.0,0.0,0.0,0.0,0.0,0.0,0.0,0.0,5.3518,5.3585,5.3788,5.4296,5.5277,5.6765,5.7002,5.734,5.7881,5.7881,5.7881,5.7881,5.8084,5.8863,6.0114,6.0317,6.1163,6.2381,6.2381,6.2381,6.2381,6.2381,6.2381,6.2381,6.2381,6.2381,6.2381,6.2381,6.2854,6.3632,6.4343,6.5087,6.5797,6.6576,6.6812,6.6812,6.6812,6.6812,6.6812,6.6812,6.7929,6.9671,7.222,7.4104,7.5614,7.6628,7.7082,7.7273,7.7273,7.7273,7.7273,7.7273,7.7273,7.7273,7.7273,7.7273,7.7273,7.7273,7.7273,7.7212,7.6925,7.715,7.6888,7.5925,7.5787,7.5084,7.3372,7.2962,7.2364,7.1356,7.1312,7.1312,7.1312,7.1312,7.1312,7.1312,7.1312,7.1312,7.1312,7.2563,7.3274,7.351,7.4796,7.5506,2.928,0.0,0.0,0.0,0.0,0.0,3.8484,3.831,3.842,0.0,4.2764,4.2561,4.4492,4.5039,4.5343,4.5914,4.701,4.8066,4.8785,4.9791,0.0,0.0,0.0,0.0,0.0,5.2812,5.2829,5.301,5.3315,5.3518,5.3518,5.4194,5.4972,5.5852,5.6494,5.7002,5.7442,5.7746,5.7881,5.7881,5.7881,5.866,6.0114,6.0114,6.0926,6.2381,6.2381,6.2381,6.2381,6.2381,6.2381,6.2381,6.2381,6.2381,6.2381,6.2381,6.2651,6.3193,6.4241,6.4884,6.5392,6.6474,6.6812,6.6812,6.6812,6.6812,6.6812,6.6812,6.82,7.043,7.3502,7.5048,7.6061,7.7051,7.7273,7.7273,7.7273,7.7273,7.7273,7.7273,7.7273,7.7273,7.7273,7.7273,7.7273,7.7273,7.7273,7.7273,7.7273,7.7273,7.7051,7.6498,7.6396,7.5614,7.3611,7.3452,7.2797,7.1401,7.1688,7.196,7.196,7.196,7.196,7.196,7.1501,7.1616,7.2225,7.2766,7.3341,7.3984,7.5168,7.5709,3.0234,3.1225,0.0,0.0,0.0,0.0,3.968,3.8614,3.779,0.0,4.2538,4.1974,4.4178,4.4244,4.4327,4.5599,4.6658,4.7684,4.8622,5.0101,0.0,0.0,0.0,0.0,5.2254,5.277,5.2925,5.2332,5.3044,5.3518,5.3518,5.4126,5.4499,5.46,5.5953,5.6731,5.6799,5.7509,5.7881,5.7881,5.7881,5.8626,5.9979,6.0047,6.0892,6.2279,6.2347,6.2381,6.2381,6.2381,6.2381,6.2381,6.2381,6.2381,6.2381,6.2381,6.2381,6.2584,6.4072,6.4613,6.485,6.6339,6.6812,6.6812,6.6812,6.6812,6.6846,6.6914,6.8747,7.1259,7.3587,7.5084,7.6197,7.7082,7.7273,7.7273,7.7273,7.7273,7.7273,7.7273,7.7273,7.7273,7.7273,7.7273,7.7273,7.7273,7.7273,7.7273,7.7273,7.7273,7.7273,7.7273,7.7212,7.6363,7.446,7.4196,7.3372,7.159,7.2321,7.2838,7.2962,7.2962,7.2962,7.2962,7.2072,7.2226,7.3477,7.2834,7.3274,7.4762,7.5405,7.5709,3.3793,3.416,3.4454,3.4124,0.0,0.0,3.382,3.4458,3.5657,0.0,3.7125,3.7816,4.0249,4.0827,4.1169,4.1845,4.4212,4.6374,4.7713,4.9674,0.0,0.0,0.0,0.0,5.2183,5.1856,5.1821,5.2264,5.3044,5.3518,5.3518,5.3653,5.3991,5.4566,5.5446,5.6224,5.6799,5.7509,5.7881,5.7881,5.7881,5.8355,5.9235,5.9844,6.0622,6.1535,6.2144,6.2381,6.2381,6.2381,6.2381,6.2381,6.2381,6.2381,6.2381,6.2381,6.2381,6.2584,6.4072,6.4613,6.485,6.6339,6.6812,6.6812,6.6812,6.6812,6.6948,6.7523,6.9658,7.2036,7.3142,7.5181,7.7051,7.7243,7.7273,7.7273,7.7273,7.7273,7.7273,7.7273,7.7273,7.7273,7.7273,7.7273,7.7273,7.7273,7.7273,7.7273,7.7273,7.7273,7.7273,7.7273,7.6563,7.5614,7.4385,7.3571,7.2921,7.254,7.2673,7.3131,7.3966,7.4005,7.4005,7.4005,7.3593,7.3401,7.3477,7.3341,7.4018,7.5473,7.5642,7.5709,3.4651,3.4674,3.5114,3.5532,0.0,0.0,0.0,0.0,3.5007,3.7139,3.6549,3.6559,3.9474,0.0,3.9588,4.1541,4.3679,4.54,4.6266,0.0,0.0,0.0,0.0,0.0,5.1138,5.1454,5.1893,5.2263,5.2672,5.3078,5.3484,5.3518,5.3687,5.4025,5.5141,5.5886,5.6258,5.734,5.7881,5.7881,5.7881,5.8287,5.9032,5.9776,6.0554,6.1332,6.2076,6.2381,6.2381,6.2381,6.2381,6.2381,6.2381,6.2381,6.2381,6.2381,6.2381,6.2584,6.4072,6.4613,6.485,6.6339,6.6812,6.6812,6.6812,6.6812,6.6948,6.7692,6.9644,7.1763,7.2895,7.4954,7.6827,7.72,7.7273,7.7273,7.7273,7.7273,7.7273,7.7273,7.7273,7.7273,7.7273,7.7273,7.7273,7.7273,7.6856,7.6728,7.7243,7.6432,7.6197,7.7181,7.5959,7.483,7.4348,7.3846,7.3332,7.2838,7.3733,7.4535,7.5012,7.5048,7.4794,7.431,7.4025,7.4024,7.4237,7.4092,7.4627,7.5709,7.5709,7.5973,0.0,0.0,0.0,0.0,0.0,3.5577,0.0,0.0,0.0,0.0,0.0,0.0,0.0,0.0,0.0,0.0,0.0,0.0,0.0,0.0,0.0,0.0,0.0,0.0,4.9841,5.0716,5.1495,5.1856,5.1758,5.2131,5.3213,5.3281,5.3348,5.3518,5.4803,5.5581,5.5681,5.7036,5.7746,5.7881,5.7881,5.822,5.8829,5.9708,6.0452,6.1129,6.2009,6.2381,6.2381,6.2381,6.2381,6.2381,6.2381,6.2381,6.2381,6.2381,6.2381,6.2584,6.4072,6.4613,6.485,6.6339,6.6812,6.6812,6.6812,6.6812,6.6948,6.7523,6.9224,7.1231,7.2649,7.4557,7.6313,7.709,7.7273,7.7273,7.7273,7.7273,7.7273,7.7273,7.7273,7.7273,7.7273,7.7273,7.7273,7.7273,7.6595,7.6363,7.7212,7.5891,7.5475,7.715,7.5475,7.4272,7.4272,7.412,7.3768,7.3131,7.4794,7.5891,7.6061,7.6094,7.5614,7.461,7.4686,7.4844,7.4998,7.5071,7.5336,7.5709,7.5709,7.6126,0.0,0.0,0.0,0.0,3.8583,0.0,0.0,0.0,0.0,0.0,0.0,0.0,0.0,0.0,0.0,0.0,0.0,0.0,0.0,0.0,0.0,0.0,0.0,0.0,0.0,4.8649,4.8931,5.0268,4.9729,5.027,5.2334,5.2435,5.2773,5.3484,5.4296,5.504,5.5681,5.6528,5.7239,5.7881,5.7881,5.7915,5.8051,5.9471,6.0148,6.0317,6.1772,6.2381,6.2381,6.2381,6.2381,6.2381,6.2381,6.2381,6.2381,6.2381,6.2381,6.2584,6.4072,6.4613,6.485,6.6339,6.6812,6.6812,6.6812,6.6812,6.6846,6.6914,6.8847,7.1125,7.1976,7.416,7.6313,7.709,7.7273,7.7273,7.7273,7.7273,7.7273,7.7273,7.7273,7.7273,7.7273,7.7273,7.7273,7.7273,7.7212,7.7181,7.7273,7.7082,7.7051,7.7273,7.5475,7.4272,7.4272,7.3492,7.3292,7.4082,7.5156,7.6197,7.7082,7.715,7.6664,7.5649,7.702,7.6808,7.4964,7.633,7.6542,7.5709,7.5709,7.5771,0.0,0.0,0.0,0.0,0.0,0.0,3.5198,0.0,3.4688,0.0,0.0,0.0,0.0,0.0,0.0,0.0,0.0,0.0,0.0,0.0,0.0,0.0,0.0,0.0,0.0,0.0,0.0,0.0,4.8545,4.9357,5.1555,5.2063,5.2672,5.3484,5.4228,5.4938,5.5681,5.6427,5.7171,5.7881,5.7881,5.7881,5.7949,5.9438,6.0114,6.0182,6.1738,6.2381,6.2381,6.2381,6.2381,6.2381,6.2381,6.2381,6.2381,6.2381,6.2381,6.2584,6.4072,6.4613,6.485,6.6339,6.6812,6.6812,6.6812,6.6812,6.6812,6.6812,6.8462,7.0487,7.1763,7.3727,7.5726,7.698,7.7273,7.7273,7.7273,7.7273,7.7273,7.7273,7.7273,7.7273,7.7273,7.7273,7.7273,7.7273,7.6793,7.6628,7.7212,7.6264,7.5993,7.7181,7.4976,7.3889,7.5048,7.4234,7.4082,7.5084,7.6094,7.6856,7.7273,7.7273,7.7082,7.6696,7.769,7.7774,7.684,7.7139,7.7071,7.6599,7.5973,7.602,4.0188,0.0,0.0,0.0,0.0,0.0,0.0,0.0,0.0,0.0,0.0,0.0,0.0,0.0,0.0,0.0,0.0,0.0,0.0,0.0,0.0,0.0,0.0,0.0,0.0,0.0,0.0,0.0,0.0,4.7804,5.0473,5.1319,5.2164,5.3145,5.389,5.4735,5.5716,5.6258,5.6968,5.7881,5.7881,5.7881,5.7949,5.9438,6.0114,6.0182,6.1738,6.2381,6.2381,6.2381,6.2381,6.2381,6.2381,6.2381,6.2381,6.2381,6.2542,6.294,6.4153,6.485,6.5392,6.6474,6.6988,6.7202,6.7202,6.7202,6.7202,6.7202,6.8412,7.0062,7.1692,7.351,7.5322,7.6907,7.7273,7.7273,7.7273,7.7273,7.7273,7.7273,7.7273,7.7273,7.7273,7.7273,7.7273,7.7273,7.6696,7.6498,7.7212,7.6029,7.5685,7.715,7.5084,7.4234,7.5684,7.512,7.512,7.6164,7.6925,7.7273,7.7273,7.7273,7.7273,7.7273,7.8165,7.8522,7.8205,7.8204,7.8077,7.7736,7.6645,7.6404,0.0,0.0,0.0,3.8222,0.0,0.0,0.0,0.0,3.6229,0.0,0.0,0.0,0.0,0.0,0.0,0.0,0.0,0.0,0.0,0.0,0.0,0.0,0.0,0.0,0.0,0.0,0.0,0.0,4.4418,4.5133,4.8883,4.9763,5.0845,5.23,5.3112,5.4228,5.5716,5.575,5.6461,5.7881,5.7881,5.7881,5.7949,5.9438,6.0114,6.0182,6.1738,6.2381,6.2381,6.2381,6.2381,6.2381,6.2381,6.2381,6.2381,6.2381,6.2931,6.3779,6.4398,6.5527,6.6745,6.6779,6.7414,6.8185,6.8185,6.8185,6.8185,6.8185,6.891,7.0062,7.1692,7.351,7.5322,7.6907,7.7273,7.7273,7.7273,7.7273,7.7273,7.7273,7.7273,7.7273,7.7273,7.7273,7.7273,7.7273,7.7273,7.7243,7.731,7.7243,7.7212,7.7273,7.633,7.5718,7.5787,7.5753,7.6197,7.7181,7.7273,7.7273,7.7273,7.7273,7.7273,7.7273,7.8888,7.9238,7.8205,7.9756,7.9956,7.8903,7.7779,7.6701,0.0,0.0,4.2595,4.0032,0.0,0.0,0.0,0.0,0.0,0.0,0.0,0.0,0.0,0.0,0.0,0.0,0.0,0.0,0.0,0.0,0.0,0.0,0.0,0.0,0.0,0.0,0.0,0.0,4.3436,0.0,4.8105,4.9424,5.0777,5.2266,5.3078,5.4228,5.5716,5.5681,5.6461,5.7881,5.7881,5.7881,5.7949,5.9438,6.0114,6.0182,6.1738,6.2381,6.2381,6.2381,6.2381,6.2381,6.2381,6.2381,6.2381,6.2381,6.2581,6.3017,6.4193,6.5561,6.6812,6.6812,6.7454,6.8189,6.8189,6.8189,6.8343,6.9021,6.9422,7.0239,7.2435,7.397,7.5322,7.6907,7.7273,7.7273,7.7273,7.7273,7.7273,7.7273,7.7273,7.7273,7.7273,7.7273,7.7273,7.7273,7.7273,7.7273,7.7273,7.7273,7.7273,7.7273,7.6396,7.6061,7.6761,7.6793,7.6956,7.7273,7.7273,7.7273,7.7273,7.7273,7.7273,7.7273,7.8956,7.9636,7.9238,8.0151,8.0403,8.0032,7.9652,7.85,4.3254,4.3352,0.0,4.1082,3.9959,0.0,3.6447,0.0,0.0,0.0,0.0,0.0,0.0,0.0,0.0,0.0,0.0,0.0,0.0,0.0,0.0,0.0,0.0,0.0,0.0,0.0,3.9952,4.1779,4.188,4.3267,0.0,0.0,5.027,5.1488,5.2807,5.4228,5.5716,5.5681,5.6461,5.7881,5.7881,5.8017,5.8321,5.9539,6.025,6.0588,6.1839,6.2381,6.2381,6.2381,6.2381,6.2381,6.2381,6.2381,6.2381,6.2381,6.2719,6.3334,6.4608,6.5814,6.6854,6.7202,6.7945,6.8798,6.9133,6.9242,6.9351,7.0022,7.0196,7.0621,7.2503,7.3938,7.5232,7.6491,7.7019,7.7273,7.7273,7.7273,7.7273,7.7273,7.7273,7.7273,7.7273,7.7273,7.7273,7.7273,7.7273,7.7273,7.7273,7.7273,7.7273,7.7273,7.6728,7.6595,7.7243,7.7273,7.7273,7.7273,7.7273,7.7273,7.7273,7.7273,7.7273,7.7273,7.8956,7.98,7.98,8.0743,8.116,8.116,8.116,8.0182]}]]